[[{"header":{"parameterUnit":"m.s-1","parameterCategory":1,"la1":30.6,"la2":29.2853,"lo1":-89.7004,"lo2":-87.6739,"dy":0.0162,"dx":0.0183,"nx":112,"ny":82,"refTime":"2023-10-08T06:00:00:Z","depth":0,"parameterNumber":2,"parameterNumberName":"U-component_of_WINDS"},"data":[0.0,0.0,0.0,0.0,0.0,0.0,0.0,0.0,0.0,0.0,0.0,0.0,0.0,0.0,0.0,0.0,0.0,0.0,0.0,0.0,0.0,0.0,0.0,0.0,0.0,0.0,0.0,0.0,0.0,0.0,0.0,0.0,0.0,0.0,0.0,0.0,0.0,0.0,0.0,0.0,0.0,0.0,0.0,0.0,0.0,0.0,0.0,0.0,0.0,0.0,0.0,0.0,0.0,0.0,0.0,0.0,0.0,0.0,0.0,0.0,0.0,0.0,0.0,0.0,0.0,0.0,0.0,0.0,0.0,0.0,0.0,0.0,0.0,0.0,0.0,0.0,0.0,0.0,0.0,0.0,0.0,0.0,0.0,0.0,0.0,0.0,0.0,0.0,0.0,0.0,0.0,4.0469,4.4305,4.6507,4.5957,4.704,4.5109,3.9004,0.0,0.0,0.0,0.0,0.0,0.0,0.0,0.0,0.0,0.0,0.0,0.0,0.0,0.0,0.0,0.0,0.0,0.0,0.0,0.0,0.0,0.0,0.0,0.0,0.0,0.0,0.0,0.0,0.0,0.0,0.0,0.0,0.0,0.0,0.0,0.0,0.0,0.0,0.0,0.0,0.0,0.0,0.0,0.0,0.0,0.0,0.0,0.0,0.0,0.0,0.0,0.0,0.0,0.0,0.0,0.0,0.0,0.0,0.0,0.0,0.0,0.0,0.0,0.0,0.0,0.0,0.0,0.0,0.0,0.0,0.0,0.0,0.0,0.0,0.0,0.0,0.0,0.0,0.0,0.0,0.0,0.0,0.0,0.0,0.0,0.0,0.0,0.0,0.0,0.0,0.0,0.0,0.0,0.0,0.0,0.0,0.0,0.0,0.0,0.0,0.0,0.0,0.0,0.0,3.8542,4.3461,4.4635,4.5296,4.5847,4.5498,4.3342,3.8897,0.0,0.0,0.0,0.0,0.0,0.0,0.0,0.0,0.0,0.0,0.0,0.0,0.0,0.0,0.0,0.0,0.0,0.0,0.0,0.0,0.0,0.0,0.0,0.0,0.0,0.0,0.0,0.0,0.0,0.0,0.0,0.0,0.0,0.0,0.0,0.0,0.0,0.0,0.0,0.0,0.0,0.0,0.0,0.0,0.0,0.0,0.0,0.0,0.0,0.0,0.0,0.0,0.0,0.0,0.0,0.0,0.0,0.0,0.0,0.0,0.0,0.0,0.0,0.0,0.0,0.0,0.0,0.0,0.0,0.0,0.0,0.0,0.0,0.0,0.0,0.0,0.0,0.0,0.0,0.0,0.0,0.0,0.0,0.0,0.0,0.0,0.0,0.0,0.0,0.0,0.0,0.0,0.0,0.0,0.0,0.0,0.0,0.0,0.0,0.0,0.0,0.0,0.0,3.7165,3.9093,4.2983,4.3791,4.4011,4.3956,4.4011,4.2103,3.7594,3.6772,0.0,0.0,0.0,0.0,0.0,0.0,0.0,0.0,0.0,0.0,0.0,0.0,0.0,0.0,0.0,0.0,0.0,0.0,0.0,0.0,0.0,0.0,0.0,0.0,0.0,0.0,0.0,0.0,0.0,0.0,0.0,0.0,0.0,0.0,0.0,0.0,0.0,0.0,0.0,0.0,0.0,0.0,0.0,0.0,0.0,0.0,0.0,0.0,0.0,0.0,0.0,0.0,0.0,0.0,0.0,0.0,0.0,0.0,0.0,0.0,0.0,0.0,0.0,0.0,0.0,0.0,0.0,0.0,0.0,0.0,0.0,0.0,0.0,0.0,0.0,0.0,0.0,0.0,0.0,0.0,0.0,0.0,0.0,0.0,0.0,0.0,0.0,0.0,0.0,0.0,0.0,0.0,0.0,0.0,0.0,0.0,0.0,0.0,0.0,0.0,0.0,0.0,3.8726,3.9606,4.1937,4.2763,4.2965,4.2629,4.2433,4.07,3.6862,3.5114,0.0,0.0,0.0,0.0,0.0,0.0,0.0,0.0,0.0,0.0,0.0,0.0,0.0,0.0,0.0,0.0,0.0,0.0,0.0,0.0,0.0,0.0,0.0,0.0,0.0,0.0,0.0,0.0,0.0,0.0,0.0,0.0,0.0,0.0,0.0,0.0,0.0,0.0,0.0,0.0,0.0,0.0,0.0,0.0,0.0,0.0,0.0,0.0,0.0,0.0,0.0,0.0,0.0,0.0,0.0,0.0,0.0,0.0,0.0,0.0,0.0,0.0,0.0,0.0,0.0,0.0,0.0,0.0,0.0,0.0,0.0,0.0,0.0,0.0,0.0,0.0,0.0,0.0,0.0,0.0,0.0,0.0,0.0,0.0,0.0,0.0,0.0,0.0,0.0,0.0,0.0,0.0,0.0,0.0,0.0,0.0,0.0,0.0,0.0,0.0,0.0,0.0,3.7312,3.9515,4.1691,4.1974,4.2393,4.3347,4.074,3.8678,3.7841,3.3984,0.0,0.0,0.0,0.0,0.0,0.0,0.0,0.0,0.0,0.0,0.0,0.0,0.0,0.0,0.0,0.0,0.0,0.0,0.0,0.0,0.0,0.0,0.0,0.0,0.0,0.0,0.0,0.0,0.0,0.0,0.0,0.0,0.0,0.0,0.0,0.0,0.0,0.0,0.0,0.0,0.0,0.0,0.0,0.0,0.0,0.0,0.0,0.0,0.0,0.0,0.0,0.0,0.0,0.0,0.0,0.0,0.0,0.0,0.0,0.0,0.0,0.0,0.0,0.0,0.0,0.0,0.0,0.0,0.0,0.0,0.0,0.0,0.0,0.0,0.0,0.0,0.0,0.0,0.0,0.0,0.0,0.0,0.0,0.0,0.0,0.0,0.0,0.0,0.0,0.0,0.0,0.0,0.0,0.0,0.0,0.0,0.0,0.0,0.0,0.0,0.0,0.0,3.6725,3.8719,0.0,4.1493,4.193,4.2004,4.0887,3.8696,3.5144,0.0,0.0,0.0,0.0,0.0,0.0,0.0,0.0,0.0,0.0,0.0,0.0,0.0,0.0,0.0,0.0,0.0,0.0,0.0,0.0,0.0,0.0,0.0,0.0,0.0,0.0,0.0,0.0,0.0,0.0,0.0,0.0,0.0,0.0,0.0,0.0,0.0,0.0,0.0,0.0,0.0,0.0,0.0,0.0,0.0,0.0,0.0,0.0,0.0,0.0,0.0,0.0,0.0,0.0,0.0,0.0,0.0,0.0,0.0,0.0,0.0,0.0,0.0,0.0,0.0,0.0,0.0,0.0,0.0,0.0,0.0,0.0,0.0,0.0,0.0,0.0,0.0,0.0,0.0,0.0,0.0,0.0,0.0,0.0,0.0,0.0,0.0,0.0,0.0,0.0,0.0,0.0,0.0,0.0,0.0,0.0,0.0,0.0,0.0,0.0,0.0,0.0,3.4357,3.5917,3.7617,0.0,4.0428,4.0735,4.0362,4.0349,3.8237,3.3286,0.0,0.0,0.0,0.0,0.0,0.0,0.0,0.0,0.0,0.0,0.0,0.0,0.0,0.0,0.0,0.0,0.0,0.0,0.0,0.0,0.0,0.0,0.0,0.0,0.0,0.0,0.0,0.0,0.0,0.0,0.0,0.0,0.0,0.0,0.0,0.0,0.0,0.0,0.0,0.0,0.0,0.0,0.0,0.0,0.0,0.0,0.0,0.0,0.0,0.0,0.0,0.0,0.0,0.0,0.0,0.0,0.0,0.0,0.0,0.0,0.0,0.0,0.0,0.0,0.0,0.0,0.0,0.0,0.0,0.0,0.0,0.0,0.0,0.0,0.0,0.0,0.0,0.0,0.0,0.0,0.0,0.0,0.0,0.0,0.0,0.0,0.0,0.0,0.0,0.0,0.0,0.0,0.0,0.0,0.0,0.0,0.0,0.0,0.0,0.0,0.0,0.0,3.3587,3.4789,3.6313,3.8469,3.8707,3.8707,3.8707,3.8688,3.6997,0.0,0.0,0.0,0.0,0.0,0.0,0.0,0.0,0.0,0.0,0.0,0.0,0.0,0.0,0.0,0.0,0.0,0.0,0.0,0.0,0.0,0.0,0.0,0.0,0.0,0.0,0.0,0.0,0.0,0.0,0.0,0.0,0.0,0.0,0.0,0.0,0.0,0.0,0.0,0.0,0.0,0.0,0.0,0.0,0.0,0.0,0.0,0.0,0.0,0.0,0.0,0.0,0.0,0.0,0.0,0.0,0.0,0.0,0.0,0.0,0.0,0.0,0.0,0.0,0.0,0.0,0.0,0.0,0.0,0.0,0.0,0.0,0.0,0.0,0.0,0.0,0.0,0.0,0.0,0.0,0.0,0.0,0.0,0.0,0.0,0.0,0.0,0.0,0.0,0.0,0.0,0.0,0.0,0.0,0.0,0.0,0.0,0.0,0.0,0.0,0.0,0.0,0.0,3.2556,3.433,3.6323,3.8449,3.8718,3.8718,3.8718,3.8681,3.7418,3.4431,0.0,0.0,0.0,0.0,0.0,0.0,0.0,0.0,0.0,0.0,0.0,0.0,0.0,0.0,0.0,0.0,0.0,0.0,0.0,0.0,0.0,0.0,0.0,0.0,0.0,0.0,0.0,0.0,0.0,0.0,0.0,0.0,0.0,0.0,0.0,0.0,0.0,0.0,0.0,0.0,0.0,0.0,0.0,0.0,0.0,0.0,0.0,0.0,0.0,0.0,0.0,0.0,0.0,0.0,0.0,0.0,0.0,0.0,0.0,0.0,0.0,0.0,0.0,0.0,0.0,0.0,0.0,0.0,0.0,0.0,0.0,0.0,0.0,0.0,0.0,0.0,0.0,0.0,0.0,0.0,0.0,0.0,0.0,0.0,0.0,0.0,0.0,0.0,0.0,0.0,0.0,0.0,0.0,0.0,0.0,0.0,0.0,0.0,0.0,0.0,0.0,0.0,3.21,3.3734,3.5827,3.8435,3.7548,3.7279,3.8601,3.8704,3.7204,3.3723,0.0,0.0,0.0,0.0,0.0,0.0,0.0,0.0,0.0,0.0,0.0,0.0,0.0,0.0,0.0,0.0,0.0,0.0,0.0,0.0,0.0,0.0,0.0,0.0,0.0,0.0,0.0,0.0,0.0,0.0,0.0,0.0,0.0,0.0,0.0,0.0,0.0,0.0,0.0,0.0,0.0,0.0,0.0,0.0,0.0,0.0,0.0,0.0,0.0,0.0,0.0,0.0,0.0,0.0,0.0,0.0,0.0,0.0,0.0,0.0,0.0,0.0,0.0,0.0,0.0,0.0,0.0,0.0,0.0,0.0,0.0,0.0,0.0,0.0,0.0,0.0,0.0,0.0,0.0,0.0,0.0,0.0,0.0,0.0,0.0,0.0,0.0,0.0,0.0,0.0,0.0,0.0,0.0,0.0,0.0,0.0,0.0,0.0,0.0,0.0,0.0,0.0,3.1928,3.3094,3.4954,3.7927,3.5567,3.5007,3.8,3.8253,3.6329,3.1912,0.0,0.0,0.0,0.0,0.0,0.0,0.0,0.0,0.0,0.0,0.0,0.0,0.0,0.0,0.0,0.0,0.0,0.0,0.0,0.0,0.0,0.0,0.0,0.0,0.0,0.0,0.0,0.0,0.0,0.0,0.0,0.0,0.0,0.0,0.0,0.0,0.0,0.0,0.0,0.0,0.0,0.0,0.0,0.0,0.0,0.0,0.0,0.0,0.0,0.0,0.0,0.0,0.0,0.0,0.0,0.0,0.0,0.0,0.0,0.0,2.3764,0.0,0.0,0.0,0.0,0.0,0.0,0.0,0.0,0.0,0.0,0.0,0.0,0.0,0.0,0.0,0.0,0.0,0.0,0.0,0.0,0.0,0.0,0.0,0.0,0.0,0.0,0.0,0.0,0.0,0.0,0.0,0.0,0.0,0.0,0.0,0.0,0.0,0.0,0.0,0.0,0.0,3.1426,3.2875,3.4082,3.4788,3.4217,3.4079,3.4778,3.4842,3.4407,3.3358,0.0,0.0,0.0,0.0,0.0,0.0,0.0,0.0,0.0,0.0,0.0,0.0,0.0,0.0,0.0,0.0,0.0,0.0,0.0,0.0,0.0,0.0,0.0,0.0,0.0,0.0,0.0,0.0,0.0,0.0,0.0,0.0,0.0,0.0,0.0,0.0,0.0,0.0,0.0,0.0,0.0,0.0,0.0,0.0,0.0,0.0,0.0,0.0,0.0,0.0,0.0,0.0,0.0,0.0,0.0,0.0,0.0,0.0,0.0,0.0,0.0,2.3779,0.0,0.0,0.0,0.0,0.0,0.0,0.0,0.0,0.0,0.0,0.0,0.0,0.0,0.0,0.0,0.0,0.0,0.0,0.0,0.0,0.0,0.0,0.0,0.0,0.0,0.0,0.0,0.0,0.0,0.0,0.0,0.0,0.0,0.0,0.0,0.0,0.0,0.0,0.0,0.0,3.008,3.2338,3.4394,3.5993,3.4724,3.3807,3.3806,3.3799,3.3807,3.3796,3.176,0.0,0.0,0.0,0.0,0.0,0.0,0.0,0.0,0.0,0.0,0.0,0.0,0.0,0.0,0.0,0.0,0.0,0.0,0.0,0.0,0.0,0.0,0.0,0.0,0.0,0.0,0.0,0.0,0.0,0.0,0.0,0.0,0.0,0.0,0.0,0.0,0.0,0.0,0.0,0.0,0.0,0.0,0.0,0.0,0.0,0.0,0.0,0.0,0.0,0.0,0.0,0.0,0.0,1.7873,1.7327,1.6407,1.6357,1.7454,1.9505,2.1014,2.27,2.4391,0.0,0.0,0.0,0.0,0.0,0.0,0.0,0.0,0.0,0.0,0.0,0.0,0.0,0.0,0.0,0.0,0.0,0.0,0.0,0.0,0.0,0.0,0.0,0.0,0.0,3.2075,3.124,0.0,0.0,0.0,0.0,0.0,0.0,0.0,0.0,0.0,0.0,0.0,0.0,2.8435,3.1636,3.4843,3.7572,3.5404,3.3799,3.3806,3.4083,3.4119,3.3817,3.2778,3.1656,0.0,0.0,0.0,0.0,0.0,0.0,0.0,0.0,0.0,0.0,0.0,0.0,0.0,0.0,0.0,0.0,0.0,0.0,0.0,0.0,0.0,0.0,0.0,0.0,0.0,0.0,0.0,0.0,0.0,0.0,0.0,0.0,2.9391,3.003,0.0,0.0,0.0,0.0,0.0,0.0,0.0,0.0,0.0,0.0,0.0,0.0,0.0,0.0,1.5188,1.5973,1.6094,1.5506,1.4771,1.4739,1.5268,1.4855,1.5838,1.8018,1.8458,0.0,2.165,2.0521,0.0,0.0,0.0,0.0,0.0,0.0,0.0,0.0,0.0,0.0,0.0,0.0,0.0,0.0,0.0,0.0,0.0,0.0,0.0,0.0,0.0,0.0,3.3061,3.2513,3.1396,3.0402,0.0,2.9531,2.8726,2.7396,0.0,0.0,0.0,0.0,0.0,0.0,0.0,0.0,2.6973,3.0969,3.3989,3.4394,3.4064,3.3808,3.3789,3.5137,3.5348,3.3899,3.2947,3.2486,3.2595,3.1517,0.0,0.0,0.0,0.0,0.0,0.0,0.0,0.0,0.0,0.0,0.0,0.0,0.0,0.0,0.0,0.0,0.0,0.0,0.0,0.0,0.0,0.0,0.0,0.0,0.0,0.0,0.0,0.0,0.0,2.8081,2.8363,2.8174,2.6092,2.3808,0.0,0.0,0.0,0.0,0.0,0.0,0.0,0.0,0.0,0.2919,0.5426,0.7663,0.9468,1.1817,1.2747,1.2221,1.1951,1.2428,1.3619,1.3363,1.4973,1.7873,1.7359,1.828,2.0164,1.9118,1.9806,2.1425,0.0,0.0,0.0,0.0,0.0,2.6086,2.7161,2.721,0.0,0.0,0.0,0.0,0.0,0.0,0.0,0.0,0.0,0.0,0.0,0.0,0.0,3.1603,3.1141,3.0401,2.9517,2.8736,2.7792,0.0,2.5855,2.5121,2.3623,0.0,0.0,0.0,0.0,0.0,2.8869,3.1912,3.3822,3.3803,3.379,3.3798,3.3799,3.4485,3.4577,3.3854,3.297,3.2942,3.3898,3.259,3.1235,0.0,0.0,0.0,0.0,0.0,0.0,0.0,0.0,0.0,0.0,0.0,0.0,0.0,0.0,0.0,0.0,0.0,0.0,0.0,0.0,0.0,0.0,0.0,0.0,0.0,0.0,0.0,0.0,2.776,2.7977,2.6847,2.5292,2.3177,0.0,0.0,0.0,0.0,0.0,0.0,-0.0585,-0.2173,-0.3532,-0.4536,0.0291,0.3268,0.3992,0.8129,1.0006,0.9525,0.9642,1.0593,1.2297,1.2353,1.4311,1.7486,1.6621,1.7134,1.8533,1.8105,1.8887,2.0467,2.0289,2.1202,2.2864,2.3758,2.4149,2.4441,2.5548,2.589,2.5616,2.4299,0.0,2.4117,2.2012,0.0,0.0,0.0,0.0,2.7187,2.9216,2.9651,2.9651,3.0072,3.0067,2.9457,2.7954,2.6547,2.5356,0.0,2.4697,2.4136,2.2167,0.0,0.0,0.0,0.0,2.5243,2.9715,3.1951,3.3005,3.2611,3.3302,3.3789,3.3808,3.3789,3.3817,3.3808,3.3333,3.3386,3.4128,3.3274,3.1938,3.0146,0.0,0.0,0.0,0.0,0.0,0.0,0.0,0.0,0.0,0.0,0.0,0.0,0.0,0.0,0.0,0.0,0.0,0.0,0.0,0.0,0.0,0.0,0.0,0.0,0.0,0.0,0.0,0.0,0.0,2.8058,2.6258,0.0,0.0,0.0,0.0,0.3051,-0.1237,-0.3917,-0.4361,-0.6178,-0.7429,-0.8024,-0.292,-0.0104,-0.0103,0.5366,0.8228,0.8378,0.8158,0.9422,1.197,1.2282,1.3647,1.596,1.6152,1.6195,1.6082,1.674,1.7575,1.8288,1.791,1.8065,1.8646,2.0068,2.0866,2.1448,2.2051,2.2162,2.1937,2.1421,2.1288,2.1303,2.1722,2.1517,0.0,0.0,2.3699,2.4597,2.6258,2.7616,2.8505,2.8141,2.7419,2.6519,2.5514,2.2708,2.084,0.0,2.2147,2.1222,1.9657,0.0,1.9929,1.9887,2.2025,2.4627,2.7403,2.9871,3.0782,2.9395,3.1969,3.3811,3.3798,3.3807,3.3807,3.3807,3.4315,3.397,3.2668,3.3567,3.382,3.3203,2.9967,0.0,0.0,0.0,0.0,0.0,0.0,0.0,0.0,0.0,0.0,0.0,0.0,0.0,0.0,0.0,0.0,0.0,0.0,0.0,0.0,0.0,0.0,0.0,0.0,0.0,0.0,0.0,0.0,2.2822,2.265,0.0,1.3388,0.8243,0.3262,-0.173,-0.5101,-0.6868,-0.7024,-0.7817,-0.8344,-0.8557,-0.6859,-0.476,-0.2301,0.2862,0.6297,0.8079,0.8153,0.9522,1.1853,1.2031,1.3488,1.5838,1.5939,1.5925,1.5818,1.6074,1.6885,1.7864,1.774,1.8209,1.9115,1.9627,1.9939,2.0228,2.1239,2.1334,2.1053,2.1153,2.0948,2.0887,2.1694,2.1829,2.1948,2.3424,2.3746,2.3835,2.453,2.4991,2.5109,2.4394,2.4205,2.3735,2.1756,2.0388,1.9171,1.7789,1.838,1.8942,1.8312,1.8447,1.8927,1.9695,2.1973,2.397,2.4887,2.7283,2.9293,3.0316,3.246,3.3803,3.3798,3.3807,3.3807,3.3807,3.3677,3.369,3.3899,3.3772,3.3236,3.2253,3.0966,2.9686,0.0,0.0,0.0,0.0,0.0,0.0,0.0,0.0,0.0,0.0,0.0,0.0,0.0,0.0,0.0,0.0,0.0,0.0,0.0,0.0,0.0,0.0,0.0,0.0,0.0,0.0,2.3251,1.8912,1.7869,1.4589,0.7084,0.3584,-0.0361,-0.5423,-0.7362,-0.8352,-0.8333,-0.8625,-0.8764,-0.8713,-0.8736,-0.7211,-0.3773,0.1166,0.503,0.7979,0.8157,0.923,1.1263,1.1653,1.3108,1.5146,1.5146,1.5146,1.5146,1.4663,1.493,1.5772,1.625,1.6893,1.7617,1.7617,1.7617,1.7864,1.9639,2.0208,2.0207,2.078,2.081,2.0712,2.1375,2.1517,2.1731,2.2787,2.2682,2.239,2.2842,2.2721,2.2391,2.1658,2.1713,2.1344,1.9076,1.8419,1.7597,1.5315,1.6327,1.7445,1.7101,1.7595,1.8417,1.962,2.1984,2.3606,2.3583,2.5133,2.7541,3.0854,3.2758,3.3786,3.3817,3.3807,3.3807,3.3807,3.3582,3.3746,3.4353,3.4214,3.3304,3.1523,3.1139,3.003,2.8112,0.0,0.0,0.0,0.0,0.0,0.0,0.0,0.0,0.0,0.0,0.0,0.0,0.0,0.0,0.0,0.0,0.0,0.0,0.0,0.0,0.0,0.0,0.0,2.0722,2.2585,2.2174,1.6656,1.2276,0.8332,0.5077,0.0476,-0.3834,-0.7758,-0.8347,-0.8476,-0.8476,-0.8764,-0.8859,-0.871,-0.8618,-0.7295,-0.465,0.0309,0.4497,0.7992,0.7955,0.8726,0.9998,1.1361,1.2624,1.3878,1.3878,1.3878,1.3782,1.2431,1.1945,1.2042,1.3295,1.3872,1.3878,1.3866,1.3951,1.4432,1.7217,1.853,1.9213,2.0245,2.0566,2.0566,2.0547,2.0547,2.0557,2.0547,2.0244,2.0072,2.1073,2.103,2.0579,2.0096,2.0049,1.9489,1.7574,1.6572,1.5905,1.5133,1.6003,1.6648,1.6004,1.7181,1.8564,1.9733,2.2003,0.0,2.3604,2.3626,2.5536,3.0568,3.2718,3.3817,3.3799,3.3807,3.3788,3.3752,3.4149,3.4181,3.3761,3.4746,3.4054,3.126,3.0369,2.9337,2.8178,0.0,0.0,0.0,0.0,0.0,0.0,0.0,0.0,0.0,0.0,0.0,0.0,0.0,0.0,0.0,0.0,0.0,0.0,0.0,0.0,0.0,0.0,1.4401,1.5176,1.4179,1.1895,0.7795,0.5651,0.321,-0.0291,-0.4056,-0.6819,-0.7925,-0.8133,-0.826,-0.8474,-0.8769,-0.8852,-0.868,-0.8721,-0.8315,-0.7373,-0.0103,0.5118,0.7992,0.7955,0.8726,0.9998,1.1361,1.2139,1.2528,1.3494,1.3397,1.2431,1.2042,1.1945,1.1945,1.2334,1.3006,1.3855,1.3667,1.5114,1.7209,1.7758,1.9076,2.0589,2.0596,2.0566,2.0508,2.0185,1.9763,1.9543,1.9947,1.9118,1.8154,1.8954,1.9099,1.876,1.8046,1.8463,1.8368,1.5939,1.5791,1.5394,1.3064,1.318,1.3517,1.3384,1.7994,2.1822,2.2116,2.2114,0.0,2.3554,2.3601,2.4902,2.8239,3.1741,3.3791,3.3807,3.3808,3.346,3.269,3.3488,3.3386,3.2104,3.0196,2.9883,3.1372,2.9326,2.8666,0.0,0.0,0.0,0.0,0.0,0.0,0.0,0.0,0.0,0.0,0.0,0.0,0.0,0.0,0.0,0.0,0.0,0.0,0.0,0.0,0.0,0.0,1.1911,0.802,0.6793,0.6289,0.4776,0.1459,-0.069,-0.2686,-0.4714,-0.6751,-0.7572,-0.645,-0.6355,-0.6424,-0.6632,-0.6857,-0.7106,-0.7354,-0.8243,-0.7538,-0.5001,-0.0102,0.456,0.908,0.8939,0.9217,0.9998,1.1361,1.1658,0.0,1.194,1.1843,1.1072,1.0485,1.024,0.0,0.0,0.0,0.0,0.0,1.5301,1.8083,1.7877,1.8862,2.0343,2.0488,2.0323,1.9925,1.9887,1.9621,1.9418,1.9616,1.8769,1.7926,1.8303,1.8267,1.7989,1.7348,1.7615,1.7425,1.4993,1.495,1.4597,1.21,0.0,0.0,1.1594,1.679,2.1463,2.2896,2.2579,2.2551,2.3547,2.4602,2.628,2.8841,3.3141,3.5843,3.5855,3.4596,0.0,0.0,0.0,3.2573,3.1367,3.0729,0.0,0.0,0.0,2.8793,2.9537,0.0,0.0,0.0,3.1912,3.2644,0.0,0.0,0.0,0.0,0.0,0.0,0.0,0.0,0.0,0.0,0.0,0.0,0.0,0.0,0.0,0.0,0.6222,0.2837,-0.2378,-0.123,-0.0666,-0.2985,-0.6129,-0.7979,-0.7989,-0.7982,-0.6751,-0.3817,-0.357,-0.35,-0.35,0.0,0.0,0.0,0.0,-0.511,-0.0,0.0598,0.4081,1.0233,1.0066,0.9841,0.9743,1.1196,1.1099,0.9743,0.9836,0.9836,0.9645,0.8477,0.8007,0.8083,0.9385,1.0583,1.1594,1.2592,1.4906,1.757,1.757,0.0,0.0,2.0032,1.969,1.9049,1.9601,1.973,1.9597,1.9326,1.8749,1.8328,1.8431,1.8112,1.7687,1.7338,1.7268,1.6777,1.4632,1.4229,1.3695,1.1715,1.0943,1.0626,1.0577,1.4637,1.8971,2.2309,2.2888,2.3158,2.3717,2.5798,2.8093,3.0518,0.0,0.0,3.8146,3.5477,3.3862,3.3981,3.282,3.1888,3.1373,3.3775,3.3897,3.1271,3.0463,2.9767,2.92,3.0422,3.1057,3.1232,3.334,3.3273,0.0,0.0,0.0,0.0,0.0,0.0,0.0,0.0,0.0,0.0,0.0,0.0,0.0,0.0,0.0,0.2752,-0.0527,-0.3786,-0.6594,-0.7353,-0.7478,-0.7,-0.755,-0.7979,-0.7989,-0.8006,-0.5967,-0.1109,-0.081,-0.0811,-0.0811,0.3253,0.0,0.2215,-0.0302,-0.1105,-0.0,0.4144,0.6884,0.8272,0.0,0.0,0.8153,1.0389,1.0202,0.8153,0.9169,0.8985,0.8058,0.778,0.8222,0.9027,0.943,1.0163,1.1066,1.236,1.4263,1.6125,1.6125,1.6738,1.7777,1.85,1.8634,1.8497,1.8749,1.8531,0.0,1.8591,1.767,1.6661,1.7189,1.7024,1.6606,1.6138,1.6421,1.6475,1.5079,1.4496,1.358,1.1192,1.0647,1.0591,1.0611,1.4158,1.7871,2.0676,2.1789,2.2814,2.4243,2.4419,2.5423,2.8013,3.2187,3.4748,3.4743,3.4154,3.4174,3.51,3.2901,3.178,3.2214,3.2115,3.1774,3.1199,3.227,3.2208,3.0991,3.029,3.0368,3.1209,3.1678,3.2269,0.0,0.0,0.0,0.0,0.0,0.0,0.0,0.0,0.0,0.0,0.0,0.0682,0.0,0.0,-0.1453,-0.1715,-0.5498,-0.8343,-0.8025,-0.8523,-0.8642,-0.8034,-0.7885,-0.7858,-0.7986,-0.8004,-0.6807,-0.3734,0.0883,0.3042,0.186,0.4313,0.4992,0.3116,0.3511,0.3117,0.1844,0.5605,0.7907,0.8649,0.9108,0.9064,0.8606,0.9802,0.9355,0.7594,0.8247,0.8166,0.7594,0.8155,0.9025,1.0013,1.0088,1.0761,1.1811,1.2869,1.4192,1.5538,1.5538,1.5748,1.6316,1.7812,1.7835,1.7401,1.8309,1.8423,1.814,1.8298,1.7525,1.6758,1.7144,1.6859,1.643,1.6002,1.6157,1.6085,1.4845,1.4729,1.4223,1.2219,1.1157,1.0575,1.0573,1.4362,1.7789,1.9091,2.0445,2.2254,2.4682,2.4048,2.4475,2.7292,2.9168,3.1217,3.3597,3.3807,3.422,3.5193,3.3566,3.2558,3.2511,3.308,3.3393,3.3403,3.3521,3.2579,3.0561,3.0566,3.0523,3.04,3.0938,3.1602,0.0,0.0,0.0,0.0,0.0,0.0,0.0,0.0,-0.1854,-0.5587,-0.5398,-0.432,-0.3712,-0.5046,-0.5916,-0.4959,-0.8332,-1.0162,-0.7604,-0.718,-0.7446,-0.7928,-0.7865,-0.7841,-0.7977,-0.63,-0.5034,-0.4557,0.1791,0.5197,0.4344,0.425,0.3964,0.3116,0.6083,0.6561,0.4434,0.6304,0.7877,0.9046,0.9245,0.9211,0.8939,0.9063,0.8641,0.7689,0.7862,0.7963,0.8051,0.9221,1.0229,1.1066,1.1186,1.1916,1.2793,1.3137,1.4021,1.4969,1.4911,1.4791,1.5057,1.7115,1.7139,1.6653,1.8057,1.8446,1.8428,1.8008,1.7646,1.7344,1.7168,1.6865,1.6494,1.6035,1.5937,1.571,1.4812,1.5037,1.5034,1.3743,1.2414,1.1555,1.152,1.4861,1.7616,1.7934,1.9505,2.1634,2.4569,2.4361,2.5096,2.7977,2.7326,2.8624,3.3393,3.3808,3.4138,3.4935,3.4847,3.4064,3.2562,3.394,3.477,3.4771,3.3723,3.2015,2.9594,3.0519,3.0494,2.963,3.0242,3.0758,1.0392,1.2303,1.4934,1.777,1.205,0.4951,0.0,0.0,-0.8269,-0.8897,-0.9314,-0.8886,-0.701,-0.7091,-0.733,-0.7079,-0.765,-0.7256,-0.4765,-0.4436,-0.5343,-0.7761,-0.8005,-0.7977,-0.7984,-0.0281,0.4743,0.4835,0.2092,0.2266,0.6498,0.6682,0.6728,0.6838,0.7318,0.7412,0.7117,0.7144,0.719,0.7361,0.8179,0.7951,0.7045,0.8014,0.8346,0.8213,0.9363,0.976,0.9635,1.1256,1.1895,1.1885,1.3212,1.36,1.3391,1.2478,1.2788,1.3764,1.35,1.3995,1.4757,1.5608,1.6388,1.7027,1.7849,1.8076,1.7988,1.7568,1.7422,1.7197,1.6478,1.6243,1.6025,1.5586,1.5488,1.5644,1.6151,1.5816,1.5362,1.5168,1.4989,1.4828,1.4878,1.5299,1.6207,1.7747,1.9448,2.1289,2.313,2.5544,2.8065,3.0518,2.8351,2.8631,3.3405,3.3807,3.4144,3.4954,3.6985,3.6457,3.2652,3.1958,3.1669,3.1675,3.1675,3.0986,2.9594,2.934,2.9342,2.9565,2.8494,2.9159,1.0664,1.1784,1.2497,0.0,0.7528,0.1795,-0.3052,-0.7577,-1.1042,-1.2128,-1.1368,-1.0171,-0.8771,-0.8858,-0.8812,0.0,-0.6505,-0.4873,-0.2568,-0.0981,-0.052,-0.1609,-0.5183,-0.5452,-0.0177,0.3963,0.5534,0.3843,0.3635,0.3972,0.4699,0.6183,0.7024,0.6994,0.7163,0.7166,0.7078,0.6949,0.6885,0.6881,0.7155,0.7288,0.7365,0.7626,0.8125,0.8802,0.9533,1.0198,1.0772,1.1548,1.2155,1.2737,1.3358,1.35,1.3313,1.2811,1.2862,1.3178,1.367,1.3874,1.4305,1.5911,1.658,1.6933,1.7773,1.7842,1.7607,1.7432,1.7012,1.6596,1.6223,1.5879,1.5635,1.5459,1.538,1.5464,1.5796,1.5638,1.5425,1.5395,1.5419,1.5414,1.537,1.5408,1.6255,1.87,1.9672,2.0919,2.3114,2.4506,2.6771,3.0784,3.0976,3.2036,3.5005,3.4357,3.422,3.5165,3.5617,3.5933,3.6111,3.2936,3.1213,3.1187,3.0577,3.0038,2.9593,2.9144,2.8711,2.8419,2.7847,2.8529,1.0657,1.1052,0.0,0.6965,0.3352,-0.1222,-0.8078,-1.1117,-1.2763,-1.3748,-1.217,-1.0263,-0.9026,-0.858,-0.7475,-0.4977,-0.3392,-0.1629,0.0883,0.2584,0.3522,0.3575,-0.0716,-0.0953,0.6044,0.6358,0.5451,0.3681,0.5281,0.5681,0.4085,0.575,0.6729,0.6702,0.6807,0.6814,0.6702,0.6658,0.6617,0.6576,0.6655,0.7021,0.7585,0.7903,0.8538,0.951,1.0302,1.1193,1.2129,1.2433,1.2955,1.3478,1.356,1.3382,1.308,1.308,1.2939,1.2885,1.3768,1.4086,1.441,1.6139,1.686,1.7092,1.7514,1.7529,1.7334,1.709,1.6625,1.6096,1.5918,1.5644,1.5468,1.5642,1.5541,1.5572,1.6098,1.578,1.5646,1.6471,1.6612,1.66,1.66,1.6634,1.7332,1.9491,2.1054,2.2612,2.446,2.5304,2.7137,3.0812,3.2331,3.3773,3.546,3.4503,3.4257,3.5358,3.4171,3.4727,3.7551,3.3504,3.1206,3.119,3.0004,2.9262,2.9048,2.8893,2.8389,2.761,2.7573,2.8066,1.0214,1.0076,0.8948,0.419,0.0073,-0.4852,-1.2514,-1.4112,-1.3782,-1.3108,-1.1577,-0.9656,-0.7545,-0.5026,-0.1808,0.2487,0.2566,0.3166,0.6025,0.6059,0.574,0.5693,0.529,0.5702,0.0,0.6524,0.6379,0.7748,0.6593,0.5959,0.618,0.6278,0.641,0.6692,0.6705,0.6705,0.6702,0.6552,0.641,0.6349,0.7005,0.7196,0.7174,0.8985,1.0031,1.0485,1.2226,1.327,1.3725,1.4843,1.4836,1.4215,1.4451,1.3846,1.2835,1.2835,1.2829,1.2858,1.3506,1.4322,1.5246,1.5777,1.6822,1.7784,1.7021,1.7061,1.7207,1.6409,1.6145,1.6027,1.5537,1.542,1.5584,1.6322,1.593,1.592,1.7909,1.6765,1.6265,1.909,1.9667,1.9684,1.9684,1.966,1.9723,1.9798,2.4128,2.7405,2.7482,2.9507,3.1031,3.1167,3.1237,3.1974,3.3732,3.3822,3.4284,3.5432,3.3633,3.3288,3.4954,3.2581,3.1219,3.119,3.0004,2.8824,2.7637,2.8293,2.8248,2.7625,2.761,2.761,0.992,0.9596,0.8115,0.2908,-0.0459,-0.3851,-0.9192,-1.1453,-1.1999,-1.0726,-0.873,-0.6128,-0.265,-0.1027,0.0627,0.3252,0.5817,0.7797,0.8909,0.8501,0.821,0.8446,0.7642,0.0,0.0,0.0,0.0,0.7897,0.6504,0.5875,0.6101,0.621,0.6305,0.6407,0.641,0.6359,0.6254,0.6101,0.6296,0.683,0.8669,0.9518,0.9414,1.1376,1.2262,1.2447,1.305,1.3346,1.3621,1.5236,1.5666,1.5392,1.4816,1.3958,1.3136,1.3404,1.3189,1.2897,1.4269,1.5138,1.5804,1.6655,1.7004,1.7109,1.6816,1.6621,1.6507,1.6213,1.6208,1.6345,1.6192,1.6472,1.6912,1.7191,1.7071,1.707,1.7706,1.8118,1.86,1.9636,1.9787,1.9798,1.9798,1.9775,2.036,2.2065,2.5339,2.7596,2.7612,2.9707,3.1213,3.1206,3.1194,3.169,3.2842,3.3463,3.3954,3.4362,3.2638,3.1872,3.2406,3.1637,3.121,3.119,3.0789,2.963,2.759,2.7807,2.7799,2.7625,2.7625,2.7625,1.0147,0.9242,0.7315,0.2364,-0.1134,-0.4334,-0.7663,-0.9424,-0.9691,-0.7461,-0.4985,-0.2401,0.0526,0.286,0.4928,0.6749,0.9239,1.1105,1.1359,1.0879,1.0378,1.0049,0.9406,0.943,0.0,0.0,0.0,0.806,0.6073,0.5338,0.6295,0.6478,0.6704,0.7057,0.6765,0.6466,0.6299,0.6251,0.6966,0.8418,0.9819,1.0758,1.1432,1.2664,1.3296,1.3418,1.3531,1.3768,1.4172,1.534,1.6072,1.6358,1.5245,1.4293,1.353,1.3773,1.376,1.3757,1.4883,1.5434,1.5803,1.6696,1.6836,1.6607,1.6357,1.6162,1.6146,1.6228,1.6376,1.6549,1.681,1.7246,1.7688,1.7961,1.8135,1.8341,1.8374,1.9146,2.0051,2.0997,2.1145,2.1152,2.1152,2.1925,2.3455,2.5933,2.7042,2.7926,2.878,3.0234,3.1183,3.1207,3.1216,3.1422,3.2,3.2535,3.3001,3.3306,3.1983,3.1203,3.1196,3.1219,3.119,3.119,3.1198,2.9992,2.759,2.762,2.759,2.7625,2.7625,2.7625,1.0684,0.9012,0.6599,0.2463,-0.2207,-0.6251,-0.7906,-0.8029,-0.6838,-0.334,-0.0587,0.1493,0.0,0.0,1.0876,1.2562,1.2952,1.3152,1.3551,1.3134,1.2233,0.0,0.0,0.0,0.0,0.0,0.0,0.8379,0.0,0.4654,0.686,0.6941,0.7362,0.8393,0.7548,0.7036,0.6924,0.715,0.8363,1.066,1.0301,1.1158,1.3011,1.3105,1.3305,1.3517,1.3804,1.4443,1.5341,1.542,1.61,1.6947,1.5781,1.4768,1.3925,1.3975,1.4482,1.5267,1.5322,1.534,1.5433,1.6098,1.6429,1.6504,1.5664,1.5762,1.6178,1.6446,1.6539,1.6754,1.7468,1.7688,1.795,1.865,1.9233,1.9712,1.9885,1.9991,2.0718,2.3122,2.3616,2.3616,2.3583,2.5794,2.8435,3.0832,2.9252,2.8618,3.0912,3.1193,3.1191,3.1202,3.1196,3.1194,3.1194,3.1202,3.1544,3.2364,3.1655,3.1214,3.1194,3.1181,3.119,3.119,3.1215,3.007,2.7805,2.7643,2.758,2.7625,2.7625,2.7625,1.0444,0.9215,0.7179,0.1758,-0.2554,-0.5361,-0.4628,-0.2778,-0.0768,0.0614,0.3975,0.7192,0.0,0.0,0.0,1.3639,1.5315,0.0,1.6054,1.5898,0.0,1.4493,0.0,1.2211,1.2125,1.0789,0.0,0.0,0.6353,0.5785,0.7624,0.7172,0.7362,0.8393,0.7826,0.7513,0.7522,0.8384,0.9114,0.9774,1.1733,1.276,1.3011,1.4792,1.5474,1.5256,1.506,1.5168,1.541,1.5908,1.6233,1.6471,1.6065,1.5399,1.4666,1.4934,1.4814,1.4693,1.5999,1.6287,1.6046,1.6264,1.6068,1.5703,1.5478,1.5886,1.6409,1.6467,1.7302,1.8178,1.8394,1.9218,2.0004,2.0232,2.0476,2.0898,2.1589,2.2226,2.2836,2.3458,2.3608,2.3606,2.3623,2.5846,2.842,3.0847,3.0677,3.0481,3.1104,3.1215,3.119,3.1207,3.1184,3.1193,3.1193,3.121,3.1284,3.1528,3.133,3.1188,3.1176,3.1218,3.119,3.119,3.1215,3.0919,3.0271,2.8483,2.758,2.7625,2.7625,2.7625,1.0303,0.9142,0.7349,0.1993,-0.2217,-0.4443,-0.2389,0.0323,0.2842,0.4242,0.7709,1.0628,1.1146,1.2592,0.0,0.0,0.0,0.0,1.8791,1.8353,1.7813,0.0,1.5425,0.0,1.3262,1.1692,1.0356,0.0,0.7624,0.7086,0.8548,0.8249,0.859,0.9804,0.8908,0.8466,0.8466,0.9163,1.0014,1.0982,1.2703,1.3657,1.3917,1.579,1.6515,1.6331,0.0,1.6493,1.6073,1.6407,1.6798,1.7159,1.6502,1.6216,1.6077,1.6054,1.5548,1.5064,1.6037,1.636,1.6342,1.7022,1.6812,1.6358,1.6358,1.6641,1.7034,1.7357,1.8058,1.8809,1.9438,2.0412,2.1329,2.1565,2.1945,2.2258,2.2362,2.3014,2.3615,2.3615,2.36,2.3985,2.5131,2.6611,2.841,3.0856,3.1199,3.1225,3.1223,3.1207,3.119,3.119,3.119,3.119,3.119,3.1181,3.1185,3.1173,3.1219,3.1185,3.119,3.119,3.119,3.119,3.1211,3.1224,3.1173,2.8777,2.759,2.7625,2.7625,2.7625,1.0311,0.8934,0.7198,0.2726,-0.0851,-0.2694,-0.0424,0.2451,0.5236,0.7528,1.0661,1.2645,1.1705,1.4221,1.6476,1.6664,0.0,2.1059,2.1509,2.0682,1.9799,1.9244,1.7422,1.5533,1.3905,1.2175,1.1077,1.1,0.9272,0.8667,0.9697,0.9619,1.0165,1.1598,1.035,0.9653,0.9613,0.9917,1.1034,1.2914,1.341,1.4155,1.5068,1.6365,1.6912,1.6942,0.0,0.0,1.7005,1.6946,1.7312,1.791,1.6871,1.684,1.7332,1.6855,1.6315,1.5857,1.5946,1.6149,1.6633,1.7844,1.7886,1.7489,1.7556,1.7688,1.7895,1.865,1.8915,1.9294,2.0675,2.1469,2.2055,2.2685,2.3274,2.3493,2.2719,2.3111,2.358,2.3606,2.3603,2.4544,2.7565,2.78,2.8426,3.0859,3.1203,3.1199,3.1202,3.119,3.119,3.119,3.119,3.119,3.119,3.119,3.119,3.119,3.119,3.119,3.119,3.119,3.119,3.119,3.119,3.1182,3.1181,2.8889,2.7674,2.76,2.7595,2.7625,1.0754,0.8916,0.6744,0.2999,0.2488,0.2882,0.2709,0.5879,0.0,0.0,1.2297,1.4307,1.4653,1.6642,1.8588,1.9656,2.2131,2.3865,2.3652,2.3327,2.2383,0.0,1.8338,0.0,0.0,0.0,0.0,0.0,0.0,1.117,1.1606,1.0751,1.0558,1.1358,1.1126,1.0822,1.0581,1.1692,1.2442,1.2801,1.4272,1.4912,1.4824,1.6804,1.7553,1.726,0.0,0.0,1.7445,1.6981,1.658,1.619,1.6134,1.6166,1.6258,1.6169,1.6063,1.6069,1.6665,1.7182,1.7604,1.7542,1.7224,1.7,1.7455,1.8015,1.865,1.931,1.9953,2.0738,2.2015,2.2448,2.2705,2.3359,2.3564,2.357,2.3437,2.348,2.3603,2.3611,2.3598,2.5101,2.9777,2.8914,2.8404,3.0813,3.1223,3.1196,3.1207,3.119,3.119,3.119,3.119,3.119,3.119,3.119,3.119,3.119,3.119,3.119,3.119,3.119,3.119,3.119,3.119,3.1211,3.1222,2.944,2.8263,2.7585,2.7625,2.7625,1.1986,0.9769,0.7359,0.4149,0.447,0.5686,0.6027,0.0,0.0,0.0,1.3701,1.575,1.6539,1.8314,0.0,2.1019,2.2991,2.459,2.5089,2.4716,0.0,2.2806,2.0698,1.8813,0.0,0.0,0.0,0.0,0.0,1.3382,1.2955,1.3017,1.2915,1.256,1.3155,1.3105,1.2308,1.329,1.3784,1.3784,1.4911,1.5372,1.522,1.6871,1.7713,1.7835,1.8521,0.0,1.9169,1.8199,1.8022,1.8301,1.7666,1.7663,1.7922,1.7622,1.7522,1.7518,1.7568,1.8029,1.8544,1.8608,1.8511,1.8486,1.9092,1.953,1.9851,2.0156,2.0756,2.1506,2.2432,2.2969,2.3441,2.4388,2.478,2.4839,2.4508,2.443,2.429,2.3705,2.5749,2.8336,3.0777,3.0236,2.9889,3.1041,3.1204,3.119,3.119,3.119,3.119,3.119,3.119,3.119,3.119,3.119,3.119,3.119,3.119,3.119,3.119,3.119,3.119,3.119,3.119,3.1177,3.1191,2.9592,2.8589,2.8198,2.7815,2.7625,1.338,1.1235,0.8906,0.6015,0.6333,0.7687,0.8857,1.1057,0.0,1.3077,1.5151,1.7206,1.8026,1.9568,2.1016,0.0,2.3409,2.4866,2.6179,2.5781,2.5258,0.0,2.3143,0.0,0.0,0.0,0.0,0.0,0.0,0.0,1.4301,1.5159,1.5248,1.4312,1.5171,1.5215,1.4266,1.4903,1.5252,1.5252,1.5872,1.6133,1.6145,1.7251,1.7939,1.84,1.8917,0.0,0.0,1.9192,1.9277,2.0044,1.9008,1.8926,1.9373,1.8907,1.8728,1.8673,1.841,1.8727,1.9377,2.0074,2.0207,2.0141,2.0792,2.0979,2.1028,2.1175,2.1534,2.2114,2.302,2.3567,2.4104,2.5126,2.5668,2.5918,2.5657,2.5641,2.5352,2.443,2.8024,3.119,3.1216,3.1197,3.1213,3.1191,3.119,3.1312,3.1718,3.176,3.1585,3.1244,3.1179,3.119,3.119,3.119,3.119,3.119,3.119,3.119,3.119,3.119,3.119,3.119,3.119,3.1183,3.12,2.9653,2.8805,2.8513,2.7864,2.7625,1.4442,1.3207,1.1859,0.902,0.9058,0.9925,1.0386,0.0,1.3694,1.4875,1.7019,1.8826,1.9339,2.0505,2.1834,2.3106,2.4325,2.5597,2.6986,2.7027,2.6535,2.553,0.0,0.0,0.0,0.0,0.0,0.0,0.0,0.0,0.0,1.6168,1.6168,1.607,1.6168,1.6156,1.607,1.6683,1.6959,1.6972,1.7585,1.7894,1.7907,1.8481,1.878,1.8876,0.0,0.0,0.0,1.8876,1.8564,1.807,1.814,1.8192,1.8271,1.8202,1.8175,1.8244,1.8823,1.9363,2.0059,2.1312,2.129,2.0882,2.145,2.1615,2.1758,2.236,2.2558,2.2991,2.4709,2.4748,2.4467,2.5084,2.524,2.5593,2.6667,2.6961,2.6918,2.6477,2.8992,3.12,3.1196,3.1185,3.1207,3.1202,3.121,3.177,3.3366,3.3547,3.2949,3.1351,3.1202,3.119,3.119,3.119,3.119,3.119,3.119,3.119,3.119,3.119,3.119,3.119,3.119,3.1207,3.1202,2.9935,2.8783,2.7701,2.7625,2.7625,1.7048,1.5575,1.4017,1.2568,1.2176,1.231,1.2835,0.0,1.506,1.6622,1.824,1.9549,2.0283,2.1209,2.2224,2.3318,2.4073,2.5038,2.6393,2.6581,2.6303,2.5705,0.0,0.0,0.0,0.0,0.0,0.0,0.0,0.0,0.0,1.8819,1.8507,1.8166,1.8261,1.8135,1.7822,1.7746,1.7746,1.7746,1.7973,1.8106,1.8106,1.8314,1.8577,1.892,0.0,0.0,0.0,1.9405,1.9277,1.9071,1.9046,1.9043,1.9043,1.9043,1.9501,2.0109,1.9908,2.0801,2.2017,2.2104,2.2325,2.2482,2.2366,2.23,2.2438,2.2995,2.3448,2.3937,2.5017,2.5313,2.5411,2.5615,2.5908,2.6241,2.6751,2.783,2.8568,2.8156,2.9774,3.1218,3.119,3.119,3.1572,3.2614,3.2748,3.3036,3.3722,3.3804,3.3521,3.2825,3.1842,3.1206,3.1213,3.119,3.119,3.119,3.119,3.119,3.119,3.119,3.119,3.119,3.119,3.119,3.119,3.0335,2.9371,2.8302,2.8309,2.8069,1.9231,1.7741,1.6124,1.5556,1.497,1.4706,0.0,0.0,1.6594,1.7956,1.9104,2.0043,2.0846,2.1678,2.2548,2.3458,2.399,2.4762,2.6086,2.6314,2.6278,0.0,0.0,0.0,0.0,0.0,0.0,0.0,0.0,0.0,0.0,2.1236,2.0719,1.9921,1.9963,1.9838,1.9453,1.9104,1.897,1.897,1.897,1.891,1.876,1.876,1.8902,1.9145,0.0,0.0,0.0,2.0011,2.0078,2.0026,2.0076,2.0085,2.0085,2.0085,2.062,2.1318,2.1174,2.2081,2.3286,2.3186,2.3575,2.3991,2.3578,2.3333,2.3333,2.3846,2.4424,2.495,2.5335,2.5799,2.6227,2.6227,2.647,2.681,2.7266,2.8492,2.9517,2.9621,3.0483,3.1281,3.153,3.1802,3.2288,3.3265,3.3617,3.3805,3.3788,3.3791,3.3768,3.3641,3.261,3.1741,3.1236,3.1215,3.1189,3.119,3.119,3.119,3.119,3.119,3.119,3.119,3.119,3.119,3.119,3.0775,3.0205,2.9488,2.8982,2.8314,2.0539,1.9455,1.8335,1.7723,1.7221,1.701,1.7632,1.786,1.814,1.875,1.9636,2.0449,2.0926,2.1859,2.2869,2.3669,2.4372,2.5246,2.6507,2.6695,0.0,0.0,0.0,0.0,0.0,0.0,0.0,0.0,0.0,0.0,0.0,2.2944,2.2513,2.1023,2.0991,2.0991,2.0959,2.0959,2.0959,2.0959,2.0959,2.0731,2.028,2.028,2.0054,0.0,0.0,0.0,0.0,2.0648,2.0698,2.0364,2.0797,2.1007,2.1007,2.1007,2.1007,2.1215,2.2607,2.3103,2.3343,2.4718,2.5166,2.5182,2.5182,2.4816,2.4511,2.5012,2.5577,2.5961,2.5997,2.6332,2.6691,2.6691,2.6691,2.7114,2.8636,2.9011,2.9451,3.0886,3.1213,3.1457,3.235,3.3195,3.3484,3.2641,3.3257,3.3798,3.3798,3.3797,3.3652,3.3262,3.3551,3.3055,3.1373,3.1214,3.1185,3.1213,3.119,3.119,3.119,3.119,3.119,3.119,3.119,3.119,3.119,3.1199,3.1191,3.1132,2.9324,2.8189,2.2252,2.1589,2.0809,1.9949,1.9626,1.9485,1.9446,1.9471,1.9672,2.0215,2.0797,2.1305,2.1665,2.2539,2.3415,2.4044,2.4682,2.5246,0.0,0.0,0.0,0.0,0.0,0.0,0.0,0.0,0.0,0.0,0.0,0.0,0.0,2.3206,2.3003,2.2513,2.2023,2.1753,2.1753,2.1243,2.0991,2.0991,2.0991,2.0926,2.0797,2.0797,0.0,0.0,0.0,0.0,0.0,2.0748,2.0699,2.027,2.0813,2.0991,2.0991,2.0991,2.1472,2.2214,2.2671,2.3438,2.4335,2.4792,2.5045,2.5259,2.5652,2.5373,2.5067,2.5615,2.6104,2.6539,2.6807,2.7002,2.7252,2.7736,2.7856,2.8011,2.8492,2.9438,3.0283,3.0696,3.1322,3.2142,3.3193,3.361,3.3687,3.3427,3.3617,3.3796,3.3807,3.3808,3.3734,3.3606,3.3716,3.3328,3.2177,3.1545,3.1185,3.1213,3.119,3.119,3.119,3.119,3.119,3.119,3.119,3.119,3.119,3.119,3.1189,3.1191,2.9778,2.8592,2.3595,2.3057,2.2538,2.1912,2.1573,0.0,2.1004,2.0815,2.075,2.0943,2.1413,2.1845,2.2068,2.2976,2.3835,2.4264,2.4809,2.5337,0.0,0.0,0.0,0.0,0.0,0.0,0.0,0.0,0.0,0.0,0.0,0.0,0.0,0.0,2.3769,2.3684,2.2944,2.253,2.253,2.191,2.1694,2.1824,2.1711,2.1652,2.1602,2.1602,0.0,0.0,0.0,0.0,0.0,2.1569,2.1523,2.1157,2.1645,2.1824,2.1824,2.1824,2.2298,2.2909,2.3085,2.3902,2.491,2.5046,2.5509,2.6092,2.6573,2.6386,2.6073,2.6386,2.6807,2.721,2.7439,2.7547,2.7739,2.846,2.8652,2.8809,2.9417,3.0274,3.1021,3.1264,3.1937,3.2674,3.3444,3.371,3.3792,3.3811,3.3803,3.3788,3.3798,3.3807,3.3807,3.3807,3.3807,3.3593,3.3046,3.1899,3.1181,3.1206,3.1184,3.119,3.119,3.119,3.119,3.119,3.119,3.119,3.119,3.119,3.1194,3.1191,3.0424,2.9422,0.0,2.4026,2.3601,2.3557,2.3099,2.2599,2.2272,2.1893,0.0,2.1197,2.1681,2.2152,2.2163,2.3158,2.408,2.4376,2.4874,2.5574,0.0,0.0,0.0,0.0,0.0,0.0,0.0,0.0,0.0,0.0,0.0,0.0,0.0,0.0,2.4716,2.4528,2.3726,2.3282,2.3253,2.2898,2.2898,2.3189,2.295,2.2746,2.2625,2.2625,0.0,0.0,0.0,0.0,0.0,2.2877,2.2968,2.2693,2.3058,2.3189,2.3189,2.3189,2.3189,2.3265,2.3816,2.4445,2.5115,2.5595,2.647,2.7409,2.7783,2.7619,2.7348,2.7348,2.7654,2.7996,2.7926,2.8025,2.8291,2.9029,2.9242,2.9686,3.1124,3.1497,3.1728,3.237,3.2796,3.3087,3.3225,3.355,3.3807,3.3807,3.3807,3.3807,3.3807,3.3807,3.3807,3.3807,3.3807,3.3808,3.3785,3.2303,3.139,3.1391,3.1257,3.1213,3.1303,3.1247,3.119,3.119,3.119,3.119,3.119,3.119,3.1217,3.1199,3.1199,3.0586,2.5945,0.0,2.4527,2.4026,2.3775,2.353,0.0,2.2863,2.2694,2.2371,2.2441,2.2626,2.2888,2.3481,2.4103,2.4611,2.5666,2.6404,0.0,0.0,0.0,0.0,0.0,0.0,0.0,0.0,0.0,0.0,0.0,0.0,0.0,0.0,2.4775,2.4731,2.4388,2.3984,2.3588,2.3236,2.3117,2.3189,2.3135,2.3093,2.3058,2.3058,0.0,0.0,0.0,0.0,2.2902,2.3124,2.3147,2.3076,2.3165,2.3189,2.3189,2.3189,2.3189,2.3383,2.468,2.5235,2.5596,2.6929,2.7537,2.7783,2.7869,2.784,2.7754,2.7754,2.8275,2.8756,2.8398,2.9233,3.0222,3.0374,3.0859,3.1427,3.1775,3.2343,3.2739,3.2601,3.3141,3.3616,3.3634,3.3734,3.3807,3.3807,3.3807,3.3807,3.3807,3.3807,3.3807,3.3807,3.3807,3.3798,3.379,3.3411,3.3208,3.319,3.1932,3.1502,3.2167,3.1564,3.119,3.119,3.119,3.119,3.119,3.119,3.1202,3.1207,3.1207,3.1065,2.6583,2.6458,2.611,2.5731,2.5585,2.5282,2.4366,2.3855,2.345,2.3028,2.3045,2.3212,2.3392,2.4242,2.4976,2.5226,2.6329,0.0,0.0,0.0,0.0,0.0,0.0,0.0,0.0,0.0,0.0,0.0,0.0,0.0,0.0,0.0,2.5031,2.4936,2.4799,2.4567,2.421,2.379,2.3645,2.3787,2.3645,2.3599,2.3671,2.3671,2.3717,0.0,0.0,0.0,2.3785,2.3696,2.3671,2.3671,2.3671,2.3671,2.3671,2.3671,2.3671,2.3775,2.4444,2.5049,2.5799,2.7558,2.8129,2.8156,2.8334,2.8665,2.8855,2.8291,2.8838,2.9457,2.8833,2.9355,3.021,3.0893,3.141,3.1938,3.2665,3.3156,3.3504,3.3661,3.4064,3.4357,3.4357,3.4473,3.443,3.4042,3.4093,3.416,3.4012,3.3986,3.3954,3.3815,3.3807,3.3807,3.3807,3.3789,3.3796,3.3804,3.2908,3.2371,3.2336,3.16,3.1188,3.1189,3.1223,3.119,3.119,3.119,3.119,3.119,3.119,3.119,2.6939,2.7516,2.798,2.7695,2.7608,2.7195,2.5763,2.4857,2.4134,2.3512,2.3599,2.384,2.3948,2.5132,0.0,0.0,0.0,0.0,0.0,0.0,0.0,0.0,0.0,0.0,0.0,0.0,0.0,0.0,0.0,0.0,0.0,0.0,2.5313,2.5149,2.5042,2.4949,2.4888,2.4364,2.4245,2.4526,2.4264,2.4192,2.4284,2.4284,2.4393,0.0,0.0,0.0,2.4545,2.4357,2.4284,2.4284,2.4284,2.4284,2.4284,2.4266,2.4247,2.4246,2.4213,2.5018,2.6326,2.8001,2.8522,2.8565,2.8905,2.9567,2.9954,2.8808,2.9405,3.021,2.9402,2.925,2.9714,3.1072,3.1476,3.199,3.3476,3.3899,3.4192,3.4862,3.5046,3.5073,3.5073,3.5243,3.5128,3.44,3.4529,3.4612,3.4292,3.4288,3.4195,3.3954,3.3895,3.3868,3.3813,3.3797,3.3808,3.3807,3.3786,3.3372,3.2396,3.1872,3.1479,3.1196,3.1206,3.1218,3.119,3.1218,3.1218,3.119,3.1201,3.1218,2.7524,2.8999,2.977,2.8168,2.8303,2.831,2.6407,2.5869,2.5456,2.4355,2.417,2.4428,2.5095,2.5616,2.6188,0.0,0.0,0.0,0.0,0.0,0.0,0.0,0.0,0.0,0.0,0.0,0.0,0.0,0.0,0.0,0.0,0.0,2.5387,2.5351,2.5118,2.5077,2.5222,2.4864,2.4712,2.476,2.4712,2.4697,2.4716,2.4716,2.4731,0.0,0.0,2.4731,2.4746,2.4716,2.4716,2.4716,2.4716,2.4716,2.4685,2.4528,2.4444,2.463,2.595,2.7306,2.8557,2.9071,2.9097,2.8929,2.8994,2.9567,3.0002,2.9148,3.0015,3.1017,3.0228,3.0522,3.1091,3.1329,3.1916,3.2669,3.3605,3.4339,3.4844,3.4972,3.5243,3.5429,3.5429,3.5094,3.4783,3.4651,3.4674,3.4674,3.4632,3.4614,3.4612,3.4569,3.4404,3.4165,3.3844,3.3799,3.3798,3.3808,3.3807,3.371,3.3535,3.3463,3.2719,3.1214,3.1192,3.1196,3.119,3.1196,3.1213,3.119,3.1196,3.1213,2.7298,2.9095,3.0545,2.9699,3.0391,3.0914,2.9418,2.8747,2.8109,2.6961,2.6745,2.6683,2.655,0.0,2.8355,2.926,0.0,0.0,0.0,0.0,0.0,0.0,0.0,0.0,0.0,0.0,0.0,0.0,0.0,0.0,0.0,0.0,2.5517,2.5515,2.531,2.5271,2.5341,2.5168,2.5012,2.4917,2.4917,2.4864,2.4804,2.4804,2.4842,2.4904,0.0,2.4842,2.4904,2.4828,2.4804,2.4804,2.4804,2.4804,2.479,2.47,2.4951,2.5477,2.6643,2.7791,2.8894,2.9945,3.0168,3.0163,3.0613,3.0984,3.1206,3.0833,3.1038,3.1201,3.0411,3.0797,3.1544,3.212,3.2428,3.2919,3.4022,3.4791,3.5291,3.5466,3.5946,3.6362,3.6362,3.5903,3.5553,3.5552,3.5319,3.524,3.5533,3.5552,3.5685,3.6019,3.5609,3.4903,3.3894,3.3796,3.3806,3.3788,3.3799,3.3803,3.3821,3.3803,3.3409,3.2619,3.1687,3.1202,3.1198,3.1185,3.169,3.2561,3.1638,3.1202,2.7251,2.9042,3.0895,3.1104,3.2069,3.281,3.2157,3.1359,3.0581,2.9971,2.9656,2.9207,0.0,2.8774,0.0,0.0,0.0,0.0,0.0,0.0,0.0,0.0,0.0,0.0,0.0,0.0,0.0,0.0,0.0,0.0,0.0,0.0,2.5603,2.5599,2.5487,2.5427,2.5409,2.5341,2.5243,2.5077,2.5077,2.5018,2.4929,2.4929,2.4956,2.5057,2.4962,2.4987,2.5065,2.4962,2.4929,2.4929,2.4929,2.5015,2.5177,2.5385,2.5943,2.6688,2.7324,2.8099,2.903,3.0574,3.1049,3.1164,3.1957,3.2203,3.2204,3.2204,3.2037,3.1681,3.0886,3.1127,3.1844,3.2851,3.2939,3.3133,3.4423,3.5187,3.5716,3.6104,3.6717,3.7196,3.7196,3.6749,3.6337,3.6143,3.5925,3.5931,3.6332,3.6564,3.6875,3.7338,3.688,3.6109,3.5048,3.4223,3.3794,3.381,3.3805,3.3807,3.3807,3.3806,3.3814,3.3786,3.2495,3.18,3.1822,3.18,3.2497,3.3766,3.2444,3.1817,2.7988,2.9421,3.0914,3.1727,3.2109,3.2421,3.3046,3.2466,3.1991,3.2725,3.2179,0.0,0.0,2.882,0.0,0.0,0.0,0.0,0.0,0.0,0.0,0.0,0.0,0.0,0.0,0.0,0.0,0.0,0.0,0.0,0.0,0.0,0.0,2.5603,2.5531,2.546,2.5409,2.5409,2.5341,2.5274,2.5274,2.5264,2.5264,2.5264,2.5264,2.5274,2.5264,2.5264,2.5274,2.5264,2.5264,2.5264,2.5264,2.5639,2.6282,2.7096,2.7785,2.8364,2.8598,2.908,2.9805,3.0928,3.1149,3.1164,3.1957,3.2203,3.2203,3.2203,3.2713,3.3071,3.226,3.2109,3.2355,3.3166,3.3373,3.358,3.4505,3.5315,3.6085,3.6864,3.726,3.7471,3.7471,3.7031,3.6421,3.5671,3.6166,3.6628,3.6671,3.7397,3.7882,3.7924,3.7893,3.7985,3.8322,3.5562,3.3805,3.3817,3.3799,3.3807,3.3807,3.3798,3.3788,3.379,3.3687,3.3605,3.3613,3.3605,3.3677,3.3789,3.3691,3.3612,2.7334,2.9012,3.0713,3.1064,3.1488,3.2348,3.4333,3.4523,3.4214,3.4036,3.4121,0.0,0.0,0.0,0.0,0.0,0.0,0.0,0.0,0.0,0.0,0.0,0.0,0.0,0.0,0.0,0.0,0.0,0.0,0.0,0.0,0.0,0.0,2.5664,2.5599,2.5546,2.5524,2.5486,2.5447,2.5428,2.5341,2.5303,2.5303,2.5303,2.5303,2.5303,2.5303,2.5303,2.5303,2.5303,2.5303,2.5341,2.5909,2.6589,2.7332,2.7658,2.8255,2.8887,2.8969,2.95,3.0371,3.1813,3.2239,3.245,3.3827,3.3865,3.344,3.344,3.3655,3.3745,3.3109,3.3355,3.3866,3.4338,3.4339,3.4528,3.5692,3.6479,3.711,3.7578,3.818,3.8613,3.8613,3.8001,3.7584,3.7834,3.7661,3.77,3.8257,3.8604,3.8988,3.9488,3.8605,3.8499,3.9719,3.678,3.4864,3.4861,3.4195,3.3806,3.3817,3.379,3.3816,3.3803,3.3803,3.4818,3.6833,3.4818,3.3798,3.3839,3.5884,3.6863,2.7891,2.937,3.0854,3.0914,3.103,3.1823,3.4371,3.4989,3.5123,3.5385,3.4688,3.3238,3.0601,0.0,0.0,0.0,0.0,0.0,0.0,0.0,0.0,0.0,0.0,0.0,0.0,0.0,0.0,0.0,0.0,0.0,0.0,0.0,0.0,0.0,2.5664,2.5625,2.5596,2.5541,2.5524,2.5506,2.5401,2.5367,2.537,2.537,2.5341,2.5322,2.5322,2.5322,2.5322,2.5591,2.587,2.6217,2.7063,2.7755,2.8313,2.8582,2.9044,2.9544,2.9833,3.0314,3.1102,3.2776,3.3314,3.3583,3.5064,3.5084,3.4603,3.4603,3.4603,3.4529,3.4173,3.4507,3.4999,3.519,3.5278,3.5585,3.6507,3.7229,3.7852,3.8304,3.8892,3.9296,3.9296,3.8815,3.8527,3.8834,3.8623,3.8623,3.9219,3.9508,3.9888,4.0446,3.9461,3.9257,4.0394,3.8404,3.7088,3.7068,3.6335,3.5287,3.3862,3.4788,3.5349,3.5352,3.5352,3.6439,3.8689,3.6439,3.5352,3.5407,3.765,3.8696,3.0028,3.0769,3.1427,3.1538,3.088,3.0728,3.2812,3.3443,3.4336,3.6925,3.3682,3.0097,2.9236,0.0,0.0,0.0,0.0,0.0,0.0,0.0,0.0,0.0,0.0,0.0,0.0,0.0,0.0,0.0,0.0,0.0,0.0,0.0,0.0,0.0,2.5703,2.5664,2.5605,2.559,2.5572,2.5493,2.5513,2.5506,2.5505,2.5505,2.5466,2.5409,2.5409,2.537,2.538,2.6255,2.7121,2.7986,2.8794,2.9113,2.9217,3.0083,3.0398,3.0533,3.141,3.1698,3.1987,3.366,3.4199,3.4353,3.5238,3.5493,3.5493,3.5493,3.5526,3.5512,3.5493,3.5526,3.5512,3.5512,3.6122,3.6699,3.6719,3.7411,3.8277,3.9142,3.9296,3.9296,3.9296,3.9296,3.9008,3.8142,3.8757,3.9296,3.9296,4.0008,4.0504,4.05,4.0504,4.05,4.0506,4.0496,4.0511,4.0497,4.0516,3.8497,3.4043,3.6988,3.8689,3.8722,3.8693,3.8693,3.8693,3.8693,3.8693,3.8693,3.8693,3.8688,2.8762,2.9208,2.9761,2.9652,2.9801,3.015,3.0747,3.1799,3.2858,0.0,3.1219,2.8719,2.828,0.0,0.0,0.0,0.0,0.0,0.0,0.0,0.0,0.0,0.0,0.0,0.0,0.0,0.0,0.0,0.0,0.0,0.0,0.0,0.0,0.0,2.5703,2.5684,2.5664,2.5668,2.5652,2.5649,2.6257,2.6173,2.5499,2.5499,2.5816,2.6359,2.5743,2.616,2.7287,2.7545,2.8181,2.8981,2.9212,2.9663,3.0198,3.0448,3.0544,3.066,3.1475,3.177,3.2045,3.368,3.4199,3.4353,3.5238,3.5493,3.5493,3.5493,3.5911,3.6219,3.5661,3.593,3.6353,3.6353,3.6526,3.7046,3.8257,3.8719,3.9161,3.9969,4.0142,4.0142,4.0142,4.0142,4.0046,3.9796,3.9969,4.0142,4.0142,4.0335,4.0504,4.0504,4.0504,4.0504,4.05,4.0504,4.0508,4.0499,4.0499,3.9889,3.8573,3.864,3.8697,3.8702,3.8702,3.8691,3.8683,3.8691,3.8691,3.8683,3.8683,3.8704,2.8029,2.8223,2.8575,2.8733,2.9084,2.946,2.9627,3.0644,0.0,0.0,2.9505,2.7883,2.7805,0.0,0.0,0.0,0.0,0.0,0.0,0.0,0.0,0.0,0.0,0.0,0.0,0.0,0.0,0.0,0.0,0.0,0.0,0.0,0.0,0.0,2.5703,2.5703,2.5703,2.5703,2.5699,2.5707,2.6236,2.6178,2.559,2.5944,2.6568,2.7306,2.6398,2.6618,2.7621,2.7954,2.8603,2.9397,2.9745,3.0384,3.1129,3.1129,3.1342,3.1758,3.259,3.2863,3.309,3.4391,3.4776,3.4853,3.5411,3.5545,3.5526,3.5545,3.5872,3.6122,3.5641,3.6103,3.6699,3.6699,3.6969,3.7603,3.8988,3.9296,3.9527,4.0335,4.0239,4.0123,4.0431,4.0489,4.0489,4.0489,4.0489,4.0489,4.0489,4.0489,4.0489,4.0489,4.0489,4.0489,4.0489,4.0489,4.0489,4.0489,4.0489,4.0488,4.0501,3.9791,3.9199,3.8696,3.8696,3.8936,3.9407,3.8917,3.8704,3.872,3.872,3.8699,2.7601,2.7542,2.7634,2.8432,2.8653,2.8807,2.9231,2.9788,3.0072,2.9617,0.0,2.7336,0.0,0.0,0.0,0.0,0.0,0.0,0.0,0.0,0.0,0.0,0.0,0.0,0.0,0.0,0.0,0.0,0.0,0.0,0.0,0.0,0.0,0.0,2.5684,2.5684,2.5703,2.5703,2.5703,0.0,2.5781,2.5859,2.5957,2.6582,2.7285,2.7949,2.7326,2.7015,2.7015,2.7955,2.8783,2.9527,3.0311,3.1115,3.1821,3.1821,3.2366,3.3229,3.4091,3.4431,3.465,3.5438,3.5663,3.5624,3.5694,3.5597,3.5547,3.568,3.5738,3.5757,3.5757,3.6295,3.6853,3.6853,3.745,3.8257,3.92,3.9354,3.9527,4.0335,3.9912,3.9642,4.0354,4.0489,4.0489,4.0489,4.0642,4.07,4.0623,4.0681,4.0739,4.0739,4.0585,4.0489,4.0489,4.0489,4.0489,4.0489,4.0489,4.0489,4.0489,4.0498,3.9981,3.8882,3.8863,3.9415,4.0499,3.9415,3.8859,3.8855,3.8855,3.8855,2.6188,2.5788,2.6017,2.7786,2.8417,2.8773,2.9416,2.8699,2.7825,2.7597,2.6856,2.6251,0.0,0.0,0.0,0.0,0.0,0.0,0.0,0.0,0.0,0.0,0.0,0.0,0.0,0.0,0.0,0.0,0.0,0.0,0.0,0.0,0.0,2.5625,2.5625,2.5644,2.5703,2.5703,2.5703,0.0,2.6387,2.707,2.7695,2.6523,2.6074,2.6348,2.8182,2.8609,2.8101,2.9664,3.0405,3.056,3.0756,3.0951,3.1127,3.1127,3.1675,3.2515,3.3296,3.4012,3.4693,3.5456,3.5702,3.5687,3.5701,3.5693,3.5794,3.644,3.7151,3.7698,3.7632,3.7791,3.795,3.795,3.7969,3.8411,3.9912,3.9738,3.9527,4.0335,4.0354,4.0296,4.0469,4.0489,4.0489,4.0489,4.1662,4.2297,4.1604,4.2124,4.2547,4.2547,4.1319,4.0495,4.0495,4.0492,4.0489,4.0489,4.0489,4.0489,4.0489,4.0498,4.0367,4.0117,4.0117,4.0243,4.0499,4.0243,4.0108,4.0117,4.0117,4.0113,2.4303,2.4511,2.5619,2.7697,2.836,2.8542,2.9047,2.7704,2.6576,2.6953,2.6385,0.0,0.0,0.0,0.0,0.0,0.0,0.0,0.0,0.0,0.0,0.0,0.0,0.0,0.0,0.0,0.0,0.0,0.0,0.0,0.0,2.5406,2.5459,2.5552,2.5576,2.5625,2.5644,2.5684,2.5703,2.5703,2.6582,2.7461,2.8281,2.7793,2.6875,2.5801,2.7578,2.8105,2.7773,2.9101,2.9902,3.0312,3.0742,3.1387,3.2109,3.2109,3.291,3.4062,3.4453,3.4883,3.5332,3.572,3.5822,3.5795,3.5833,3.5774,3.5898,3.6798,3.7353,3.777,3.8144,3.8576,3.8924,3.8924,3.8524,3.8503,3.9788,3.9754,3.9681,4.0504,4.0331,4.0192,4.0581,4.095,4.1335,4.1681,4.2527,4.2931,4.2489,4.2816,4.3104,4.3104,4.228,4.1399,4.0575,4.0515,4.0495,4.0511,4.0495,4.0495,4.0495,4.0511,4.0497,4.0496,4.0496,4.0499,4.0501,4.0499,4.0499,4.0501,4.0501,4.0502,2.283,2.4139,2.6194,2.7926,2.8553,2.8679,2.8747,2.7349,2.626,2.7047,0.0,0.0,0.0,0.0,0.0,0.0,0.0,0.0,0.0,0.0,0.0,0.0,0.0,0.0,0.0,0.0,0.0,0.0,0.0,0.0,2.539,2.539,2.5409,2.5486,2.5541,2.5581,2.5605,2.5664,2.5781,2.5937,2.6953,2.7676,2.8105,2.8984,2.8203,2.6191,2.707,2.7441,2.7519,2.8398,2.918,2.9902,3.0625,3.1836,3.3164,3.3027,3.4062,3.5547,3.5547,3.5644,3.5801,3.5957,3.5957,3.5937,3.5976,3.5879,3.5987,3.7087,3.7344,3.7502,3.8509,3.9206,3.9643,3.9643,3.9102,3.8794,3.9617,3.97,3.9841,4.0631,4.0389,4.0249,4.0916,4.1821,4.2585,4.3047,4.3355,4.347,4.3335,4.3431,4.3528,4.3528,4.3528,4.2951,4.1495,4.0828,4.0751,4.1341,4.1382,4.1382,4.1382,4.138,4.1107,4.0511,4.0508,4.0508,4.0489,4.0508,4.0508,4.0489,4.0495,4.0822,2.3358,2.5548,2.7983,2.824,2.9256,3.0097,0.0,0.0,2.7668,0.0,0.0,0.0,0.0,0.0,0.0,0.0,0.0,0.0,0.0,0.0,0.0,0.0,0.0,0.0,0.0,0.0,0.0,0.0,0.0,0.0,2.5303,2.5303,2.5341,2.5409,2.5474,2.5549,2.5605,2.5664,2.6074,2.6855,2.8476,2.8516,2.7207,2.8086,2.8281,2.8008,2.8867,2.9258,2.9316,3.0195,3.0625,3.0742,3.0859,3.1504,3.2266,3.1504,3.2305,3.375,3.375,3.4238,3.5,3.5742,3.5996,3.5996,3.5996,3.5976,3.6288,3.7812,3.8318,3.8729,4.0261,4.0255,3.9857,3.9857,3.9762,3.9857,4.0507,4.0096,3.9843,4.0643,4.1323,4.1799,4.1915,4.3169,4.3948,4.328,4.4374,4.4989,4.4239,4.4797,4.5259,4.5259,4.5257,4.5178,4.4947,4.2206,4.1764,4.4732,4.4925,4.4925,4.4925,4.4906,4.3525,4.0559,4.0499,4.0511,4.0489,4.0511,4.0511,4.0489,4.0495,4.2104,2.4812,2.6201,2.7559,2.8741,2.954,2.9913,2.9605,2.8927,2.8223,0.0,0.0,0.0,0.0,0.0,0.0,0.0,0.0,0.0,0.0,0.0,0.0,0.0,0.0,0.0,0.0,0.0,0.0,0.0,0.0,2.5303,2.5303,2.5303,2.5303,2.5341,2.5409,2.5453,2.5488,2.6087,2.707,2.8476,2.9238,2.9199,2.8496,2.9355,2.8965,2.7598,2.7988,2.8691,2.9629,3.0019,3.0469,3.0898,3.0898,3.1426,3.2148,3.1777,3.2383,3.3476,3.3965,3.4375,3.4844,3.5723,3.5996,3.5996,3.5996,3.6348,3.6973,3.8184,3.8906,3.9606,4.0797,4.0877,4.0623,4.0623,4.0636,4.0691,4.0964,4.0756,4.0737,4.1534,4.2393,4.3134,4.3544,4.42,4.4686,4.4707,4.5297,4.5642,4.5257,4.5545,4.5757,4.5719,4.5642,4.5601,4.5601,4.422,4.4008,4.5503,4.5599,4.5601,4.5601,4.5599,4.4889,4.3376,4.1478,4.1437,4.3346,4.1434,4.0515,4.0511,4.0515,4.2335,2.5357,2.6163,2.693,2.8457,2.9205,2.9599,0.0,0.0,0.0,0.0,0.0,0.0,0.0,0.0,0.0,0.0,0.0,0.0,0.0,0.0,0.0,0.0,0.0,0.0,0.0,0.0,0.0,0.0,0.0,2.5726,2.5947,2.5755,2.5726,2.5947,2.6024,2.6063,2.6057,2.7064,2.8242,2.9609,2.9824,2.9805,2.9629,3.0273,2.9512,2.7676,2.7891,2.873,2.9922,2.9922,3.0312,3.0898,3.0898,3.1426,3.2207,3.2207,3.2715,3.3516,3.4394,3.4707,3.4844,3.5723,3.5996,3.6035,3.6269,3.6777,3.7539,3.8613,3.9394,4.0098,4.0976,4.1191,4.1191,4.1191,4.1191,4.1269,4.1465,4.1504,4.1758,4.2578,4.3437,4.4219,4.4766,4.5019,4.5311,4.5883,4.5921,4.5901,4.5901,4.5901,4.5866,4.58,4.5714,4.5661,4.5659,4.5622,4.5603,4.5601,4.5603,4.5586,4.5586,4.5603,4.5601,4.5601,4.309,4.3049,4.5594,4.3028,4.1341,4.0495,4.0495,4.1873,2.3731,2.5135,2.6613,2.6737,2.8173,2.9599,0.0,0.0,0.0,0.0,0.0,0.0,0.0,0.0,0.0,0.0,0.0,0.0,0.0,0.0,0.0,0.0,0.0,0.0,0.0,0.0,0.0,0.0,0.0,2.689,2.7717,2.6986,2.6909,2.7736,2.7824,2.7853,2.7864,2.8863,2.9434,2.9609,3.0449,3.0391,2.9609,2.9648,2.959,2.9512,3.0332,3.0742,3.082,3.082,3.0859,3.0898,3.0898,3.1426,3.2207,3.2207,3.2715,3.3516,3.4394,3.4707,3.4844,3.5723,3.5996,3.6152,3.6973,3.7266,3.7656,3.9355,3.9863,4.0098,4.0976,4.1191,4.1191,4.1191,4.1191,4.1406,4.2168,4.2344,4.2598,4.3457,4.4336,4.4941,4.498,4.5566,4.6054,4.6072,4.5981,4.59,4.59,4.59,4.5872,4.5813,4.5789,4.5796,4.5796,4.568,4.5586,4.5586,4.5586,4.5586,4.5586,4.5586,4.5586,4.5586,4.5432,4.5409,4.5591,4.5409,4.3662,4.0489,4.0489,4.0585,2.4133,2.4792,2.554,2.6378,2.7126,2.7875,2.8575,2.9037,0.0,0.0,0.0,0.0,0.0,0.0,0.0,0.0,0.0,0.0,0.0,0.0,0.0,0.0,0.0,0.0,0.0,0.0,0.0,0.0,0.0,0.0,2.7871,2.7601,2.7582,2.789,2.792,2.8209,2.8767,2.9136,2.962,3.0244,3.0556,3.0244,2.9425,3.0034,3.0019,2.959,3.0508,3.0898,3.0898,3.0898,3.0898,3.0898,3.0898,3.1094,3.1367,3.1367,3.1894,3.2754,3.3574,3.4238,3.4844,3.5723,3.6387,3.6894,3.7207,3.8086,3.9101,3.9726,4.0293,4.0801,4.1113,4.1191,4.1328,4.1855,4.2402,4.3047,4.3887,4.3633,4.332,4.3633,4.4863,4.582,4.582,4.6055,4.623,4.623,4.6184,4.617,4.617,4.617,4.6105,4.5996,4.5995,4.5989,4.5995,4.5871,4.5871,4.6046,4.6046,4.6046,4.6046,4.6046,4.6046,4.6046,4.6059,4.604,4.605,4.6057,4.5417,4.4214,4.4217,4.4228,2.4223,0.0,0.0,0.0,2.6529,2.7057,2.8069,0.0,0.0,0.0,0.0,0.0,0.0,0.0,0.0,0.0,0.0,0.0,0.0,0.0,0.0,0.0,0.0,0.0,0.0,0.0,0.0,0.0,0.0,0.0,2.8717,2.8467,2.8429,2.8736,2.8736,2.9025,2.9621,2.9632,2.9965,3.0607,3.0607,3.0316,2.9784,3.0414,3.0428,3.0,3.0625,3.0898,3.0898,3.0898,3.0898,3.0898,3.0898,3.0898,3.0937,3.123,3.1875,3.2715,3.3555,3.4414,3.5234,3.5801,3.6387,3.6973,3.7559,3.8555,3.959,4.0176,4.0742,4.1191,4.1191,4.1191,4.1406,4.2207,4.2832,4.3496,4.4375,4.4336,4.4219,4.4512,4.5508,4.6308,4.6308,4.6308,4.6308,4.6308,4.6308,4.6308,4.6308,4.6308,4.625,4.6113,4.6137,4.6154,4.6096,4.606,4.6117,4.6293,4.6293,4.6293,4.6293,4.6293,4.6307,4.6297,4.6308,4.6291,4.629,4.629,4.6293,4.6293,4.6304,4.6304,0.0,0.0,0.0,0.0,0.0,0.0,2.8083,0.0,0.0,0.0,0.0,0.0,0.0,0.0,0.0,0.0,0.0,0.0,0.0,0.0,0.0,0.0,0.0,0.0,0.0,0.0,0.0,0.0,0.0,2.9506,3.034,2.9602,2.9525,3.0359,3.0398,3.0417,3.0506,3.0506,3.0525,3.0583,3.0583,3.0621,3.0679,3.0691,3.0766,3.0898,3.0898,3.0898,3.0898,3.0898,3.0898,3.0898,3.0937,3.0937,3.1055,3.1914,3.2754,3.3555,3.4414,3.5273,3.5996,3.5996,3.6035,3.6387,3.8086,3.8633,3.9023,4.0723,4.1191,4.1191,4.1191,4.123,4.1465,4.2246,4.248,4.2734,4.3555,4.4414,4.5273,4.6094,4.6289,4.6308,4.6308,4.6308,4.6308,4.6308,4.6308,4.6308,4.6308,4.6308,4.625,4.6113,4.6211,4.624,4.6124,4.6229,4.6308,4.6308,4.6308,4.6308,4.6308,4.6308,4.6293,4.6305,4.6297,4.6309,4.6309,4.6298,4.6308,4.6308,4.6308,4.6308,2.4941,0.0,0.0,0.0,0.0,0.0,0.0,0.0,0.0,0.0,0.0,0.0,0.0,0.0,0.0,0.0,0.0,0.0,0.0,0.0,0.0,0.0,0.0,0.0,0.0,0.0,0.0,0.0,2.9926,3.016,3.0379,3.0179,3.016,3.0379,3.0398,3.0398,3.0417,3.0417,3.0448,3.0467,3.0467,3.0487,3.0564,3.0615,3.0665,3.0765,3.0858,3.0898,3.0898,3.0898,3.0898,3.0957,3.1582,3.1953,3.2207,3.2832,3.3613,3.4375,3.4629,3.5273,3.5996,3.5996,3.6855,3.7969,3.8457,3.9473,4.0586,4.1055,4.1191,4.1191,4.1191,4.2109,4.3066,4.3281,4.4297,4.5117,4.4726,4.5332,4.582,4.5449,4.5879,4.6308,4.6308,4.6308,4.6308,4.6308,4.6308,4.6308,4.6308,4.6308,4.6289,4.625,4.6289,4.6285,4.624,4.6282,4.6308,4.6308,4.6308,4.6308,4.6308,4.6308,4.6307,4.6295,4.6292,4.6294,4.6294,4.6303,4.6308,4.6308,4.6308,4.6308,0.0,0.0,0.0,0.0,0.0,0.0,2.6743,2.7184,0.0,0.0,0.0,0.0,0.0,0.0,0.0,0.0,0.0,0.0,0.0,0.0,0.0,0.0,0.0,0.0,0.0,0.0,0.0,3.0907,3.1235,3.1295,3.0968,3.0602,3.0398,3.0398,3.0398,3.0398,3.0398,3.0398,3.0398,3.0398,3.0398,3.0448,3.0498,3.0576,3.0625,3.0655,3.0769,3.0827,3.082,3.0829,3.0852,3.0957,3.1465,3.2617,3.4004,3.3848,3.418,3.4707,3.4707,3.5273,3.6055,3.6426,3.7226,3.8184,3.8926,3.9844,4.0723,4.1094,4.1445,4.1777,4.2148,4.2969,4.3789,4.416,4.5019,4.5723,4.5566,4.5937,4.6035,4.5176,4.5703,4.6308,4.6308,4.6308,4.6308,4.6308,4.6308,4.6308,4.6308,4.6308,4.6308,4.6308,4.6308,4.6308,4.6308,4.6308,4.6308,4.6308,4.6308,4.6308,4.6308,4.6308,4.6308,4.6308,4.6308,4.6308,4.6308,4.6308,4.6308,4.6308,4.6308,4.6308,0.0,0.0,0.0,0.0,0.0,0.0,2.662,2.6677,2.7334,0.0,0.0,0.0,0.0,0.0,0.0,0.0,0.0,0.0,0.0,0.0,0.0,0.0,0.0,0.0,0.0,3.2143,3.2314,3.2584,3.2779,3.2545,3.1737,3.0968,3.0494,3.0398,3.0398,3.0398,3.0398,3.0398,3.0398,3.0398,3.0398,3.0448,3.0487,3.0552,3.0587,3.0594,3.0656,3.075,3.0831,3.0745,3.0794,3.0937,3.1172,3.3203,3.5879,3.4863,3.4628,3.4837,3.4837,3.5328,3.6112,3.6992,3.7344,3.7734,3.9394,3.9961,4.0215,4.1094,4.1914,4.2715,4.3496,4.3769,4.4043,4.4824,4.5078,4.5332,4.6016,4.623,4.6035,4.5176,4.5703,4.6308,4.6308,4.6308,4.6308,4.6308,4.6308,4.6308,4.6308,4.6308,4.6308,4.6308,4.6308,4.6308,4.6308,4.6308,4.6308,4.6308,4.6308,4.6308,4.6308,4.6308,4.6308,4.6308,4.6308,4.6308,4.6308,4.6308,4.6308,4.6308,4.6308,4.6308,0.0,0.0,0.0,0.0,0.0,0.0,2.7827,2.8037,2.8655,0.0,0.0,0.0,0.0,0.0,0.0,0.0,0.0,0.0,0.0,0.0,0.0,0.0,0.0,0.0,0.0,3.2799,3.2314,3.2584,3.2779,3.2545,3.1737,3.1545,3.1121,3.0417,3.0398,3.0398,3.0398,3.0398,3.0398,3.0398,3.0398,3.0448,3.0506,3.0505,3.0548,3.0594,3.0607,3.1025,3.1622,3.1076,3.0884,3.1074,3.293,3.4609,3.5976,3.5742,3.5675,3.5673,3.5673,3.5704,3.5929,3.689,3.7656,3.8398,3.9551,4.0391,4.1113,4.1933,4.2773,4.3496,4.3652,4.4219,4.4785,4.4961,4.5547,4.5898,4.5371,4.5801,4.6035,4.5176,4.5703,4.6308,4.6308,4.6308,4.6308,4.6308,4.6308,4.6308,4.6308,4.6308,4.6308,4.6308,4.6308,4.6308,4.6308,4.6308,4.6308,4.6308,4.6308,4.6308,4.6308,4.6308,4.6308,4.6308,4.6308,4.6308,4.6308,4.6308,4.6308,4.6308,4.6308,4.6308,0.0,0.0,0.0,2.8812,0.0,0.0,0.0,2.8525,2.9093,2.9465,0.0,0.0,0.0,0.0,0.0,0.0,0.0,0.0,0.0,0.0,0.0,0.0,0.0,0.0,0.0,3.384,3.3618,3.4006,3.3736,3.3372,3.2968,3.216,3.1506,3.1064,3.0641,3.0398,3.0398,3.0398,3.0398,3.0398,3.0398,3.0417,3.0448,3.0487,3.0739,3.1148,3.1179,3.1667,3.2442,3.2375,3.2383,3.2551,3.4242,3.5279,3.5806,3.5806,3.5801,3.5861,3.6292,3.6402,3.657,3.7949,3.8681,3.9178,4.0157,4.0758,4.1252,4.2037,4.2939,4.375,4.4199,4.4961,4.5644,4.5644,4.5976,4.6172,4.5742,4.5996,4.6172,4.5723,4.5996,4.6308,4.6308,4.6308,4.6308,4.6308,4.6308,4.6308,4.6308,4.6308,4.6308,4.6308,4.6308,4.6308,4.6308,4.6308,4.6308,4.6308,4.6308,4.6308,4.6308,4.6308,4.6308,4.6308,4.6308,4.6308,4.6308,4.6308,4.6308,4.6308,4.6308,4.6308,0.0,0.0,0.0,0.0,0.0,2.9827,0.0,0.0,0.0,2.9786,0.0,0.0,0.0,0.0,0.0,0.0,0.0,0.0,0.0,0.0,0.0,0.0,0.0,0.0,0.0,3.5281,3.5323,3.5498,3.4988,3.4545,3.4218,3.291,3.2102,3.1948,3.1102,3.0648,3.0648,3.0475,3.0398,3.0398,3.0398,3.0398,3.0398,3.0467,3.0929,3.1698,3.1763,3.2333,3.325,3.3647,3.3968,3.4301,3.5185,3.5554,3.5605,3.5605,3.5741,3.6026,3.6742,3.6959,3.7243,3.8999,3.9688,3.9975,4.0727,4.1211,4.16,4.2177,4.3182,4.4201,4.494,4.5683,4.6269,4.6289,4.6308,4.6308,4.6308,4.6308,4.6308,4.6308,4.6308,4.6308,4.6308,4.6308,4.6308,4.6308,4.6308,4.6308,4.6308,4.6308,4.6308,4.6308,4.6308,4.6308,4.6308,4.6308,4.6308,4.6308,4.6308,4.6308,4.6308,4.6308,4.6308,4.6308,4.6308,4.6308,4.6308,4.6308,4.6308,4.6308,4.6308,4.6308,0.0,0.0,0.0,0.0,2.9655,0.0,0.0,0.0,2.982,2.9228,0.0,0.0,0.0,0.0,0.0,0.0,0.0,0.0,0.0,0.0,0.0,0.0,0.0,0.0,0.0,0.0,3.6702,3.5575,3.6084,3.5776,3.4276,3.4007,3.3564,3.2795,3.1987,3.1545,3.1545,3.0794,3.0398,3.0398,3.0398,3.0398,3.0398,3.0398,3.0891,3.1698,3.1718,3.2602,3.4045,3.3872,3.4397,3.5353,3.5515,3.5586,3.5599,3.5656,3.6138,3.6779,3.6892,3.682,3.7026,3.883,3.9976,4.0679,4.08,4.1897,4.314,4.3227,4.4403,4.568,4.5902,4.6035,4.6152,4.6269,4.6308,4.6308,4.6308,4.6308,4.6308,4.6308,4.6308,4.6308,4.6308,4.6308,4.6308,4.6308,4.6308,4.6308,4.6308,4.6308,4.6308,4.6308,4.6308,4.6308,4.6308,4.6308,4.6308,4.6308,4.6308,4.6308,4.6308,4.6308,4.6308,4.6308,4.6308,4.6308,4.6308,4.6308,4.6308,4.6308,4.6308,4.6308,0.0,0.0,0.0,0.0,0.0,0.0,0.0,0.0,3.0649,0.0,0.0,0.0,0.0,0.0,0.0,0.0,0.0,0.0,0.0,0.0,0.0,0.0,0.0,0.0,0.0,0.0,0.0,0.0,0.0,3.6199,3.5026,3.4468,3.4026,3.366,3.2833,3.2391,3.2391,3.1564,3.116,3.116,3.0641,3.0648,3.116,3.116,3.1891,3.3141,3.3141,3.3833,3.4949,3.4834,3.507,3.5507,3.554,3.5828,3.6199,3.5757,3.6411,3.7546,3.7546,3.7834,3.8411,3.9638,4.0369,4.0727,4.0649,4.1181,4.1928,4.2354,4.3371,4.4469,4.5032,4.5577,4.6015,4.615,4.6172,4.6211,4.6289,4.6308,4.6308,4.6308,4.6308,4.6308,4.6308,4.6308,4.6308,4.6308,4.6308,4.6308,4.6308,4.6308,4.6308,4.6308,4.6308,4.6308,4.6308,4.6308,4.6308,4.6308,4.6308,4.6308,4.6308,4.6308,4.6308,4.6308,4.6308,4.6308,4.6308,4.6308,4.6308,4.6308,4.6308,4.6308,2.7504,0.0,0.0,0.0,0.0,0.0,0.0,0.0,0.0,0.0,0.0,0.0,0.0,0.0,0.0,0.0,0.0,0.0,0.0,0.0,0.0,0.0,0.0,0.0,0.0,0.0,0.0,3.5507,3.6345,3.6492,3.5551,3.4911,3.4564,3.4564,3.3699,3.3256,3.3256,3.2449,3.1929,3.1698,3.1275,3.1295,3.1718,3.1929,3.2814,3.4199,3.4199,3.4699,3.5493,3.5493,3.5493,3.5493,3.5493,3.5988,3.6603,3.5815,3.6411,3.768,3.7911,3.8719,3.9681,4.0046,4.0389,4.0639,4.0543,4.0908,4.147,4.2008,4.2989,4.4008,4.468,4.536,4.5901,4.6059,4.61,4.6133,4.6269,4.6308,4.6308,4.6308,4.6308,4.6308,4.6308,4.6308,4.6308,4.6308,4.6308,4.6308,4.6308,4.6308,4.6308,4.6308,4.6308,4.6308,4.6308,4.6308,4.6308,4.6308,4.6308,4.6308,4.6308,4.6308,4.6308,4.6308,4.6308,4.6308,4.6308,4.6308,4.6308,4.6308,4.6308,4.6308,0.0,0.0,0.0,2.8749,0.0,0.0,0.0,0.0,3.119,0.0,0.0,0.0,0.0,0.0,0.0,0.0,0.0,0.0,0.0,0.0,0.0,0.0,0.0,0.0,0.0,0.0,0.0,3.6406,3.7013,3.6889,3.557,3.5468,3.5468,3.5468,3.4603,3.416,3.416,3.3295,3.2468,3.1718,3.2468,3.2429,3.1737,3.2506,3.3353,3.4199,3.4199,3.4699,3.5493,3.5493,3.5493,3.5493,3.5493,3.5988,3.6603,3.5815,3.6045,3.6873,3.7719,3.9084,4.0335,3.9565,3.9873,4.0508,4.0489,4.1681,4.3028,4.3047,4.4239,4.5547,4.5719,4.5776,4.5851,4.6042,4.6099,4.6133,4.6269,4.6308,4.6308,4.6308,4.6308,4.6308,4.6308,4.6308,4.6308,4.6308,4.6308,4.6308,4.6308,4.6308,4.6308,4.6308,4.6308,4.6308,4.6308,4.6308,4.6308,4.6308,4.6308,4.6308,4.6308,4.6308,4.6308,4.6308,4.6308,4.6308,4.6308,4.6308,4.6308,4.6308,4.6308,4.6308,0.0,0.0,2.802,2.8494,0.0,0.0,0.0,0.0,0.0,0.0,0.0,0.0,0.0,0.0,0.0,0.0,0.0,0.0,0.0,0.0,0.0,0.0,0.0,0.0,0.0,0.0,0.0,3.5343,3.5806,3.5978,0.0,3.5493,3.5493,3.5493,3.5218,3.5064,3.5064,3.4199,3.3622,3.3353,3.3045,3.3064,3.3353,3.3641,3.4237,3.5064,3.5064,3.5238,3.5493,3.5493,3.5493,3.5551,3.6103,3.6469,3.6603,3.5815,3.6372,3.768,3.8565,3.9585,4.045,4.0181,4.0662,4.1354,4.1354,4.2162,4.3201,4.3739,4.4297,4.4874,4.5509,4.568,4.5719,4.5853,4.5933,4.6002,4.6131,4.623,4.6308,4.6308,4.6308,4.6308,4.6308,4.6308,4.6308,4.6308,4.6308,4.6308,4.6308,4.6308,4.6308,4.6308,4.6308,4.6308,4.6308,4.6308,4.6308,4.6308,4.6308,4.6308,4.6308,4.6308,4.6308,4.6308,4.6308,4.6308,4.6308,4.6308,4.6308,4.6308,4.6308,4.6308,2.5113,2.6423,0.0,2.8412,2.9726,0.0,3.114,0.0,0.0,0.0,0.0,0.0,0.0,0.0,0.0,0.0,0.0,0.0,0.0,3.4266,0.0,0.0,0.0,0.0,0.0,0.0,3.5794,3.4869,3.5405,3.5691,0.0,0.0,3.5641,3.593,3.5661,3.5641,3.593,3.5084,3.4507,3.4199,3.3949,3.3968,3.4199,3.4526,3.4968,3.5493,3.5493,3.5493,3.5493,3.5493,3.568,3.5988,3.6507,3.6892,3.7103,3.6584,3.7276,3.8546,3.9104,3.9815,4.0489,4.0489,4.1085,4.1797,4.1797,4.2604,4.3624,4.4143,4.4509,4.4893,4.5451,4.5586,4.5624,4.5776,4.5829,4.589,4.6011,4.6127,4.623,4.623,4.6269,4.6308,4.6308,4.6308,4.6308,4.6308,4.6308,4.6308,4.6308,4.6308,4.6308,4.6308,4.6308,4.6308,4.6308,4.6308,4.6308,4.6308,4.6308,4.6308,4.6308,4.6308,4.6308,4.6308,4.6308,4.6308,4.6308,4.6308,4.6308,4.6308,4.6308,4.6308]},{"header":{"parameterUnit":"m.s-1","parameterCategory":1,"la1":30.6,"la2":29.2853,"lo1":-89.7004,"lo2":-87.6739,"dy":0.0162,"dx":0.0183,"nx":112,"ny":82,"refTime":"2023-10-08T06:00:00:Z","depth":0,"parameterNumber":3,"parameterNumberName":"V-component_of_WINDS"},"data":[0.0,0.0,0.0,0.0,0.0,0.0,0.0,0.0,0.0,0.0,0.0,0.0,0.0,0.0,0.0,0.0,0.0,0.0,0.0,0.0,0.0,0.0,0.0,0.0,0.0,0.0,0.0,0.0,0.0,0.0,0.0,0.0,0.0,0.0,0.0,0.0,0.0,0.0,0.0,0.0,0.0,0.0,0.0,0.0,0.0,0.0,0.0,0.0,0.0,0.0,0.0,0.0,0.0,0.0,0.0,0.0,0.0,0.0,0.0,0.0,0.0,0.0,0.0,0.0,0.0,0.0,0.0,0.0,0.0,0.0,0.0,0.0,0.0,0.0,0.0,0.0,0.0,0.0,0.0,0.0,0.0,0.0,0.0,0.0,0.0,0.0,0.0,0.0,0.0,0.0,0.0,-1.473,-1.6126,-1.6927,-1.6727,-1.7121,-1.7429,-1.7366,0.0,0.0,0.0,0.0,0.0,0.0,0.0,0.0,0.0,0.0,0.0,0.0,0.0,0.0,0.0,0.0,0.0,0.0,0.0,0.0,0.0,0.0,0.0,0.0,0.0,0.0,0.0,0.0,0.0,0.0,0.0,0.0,0.0,0.0,0.0,0.0,0.0,0.0,0.0,0.0,0.0,0.0,0.0,0.0,0.0,0.0,0.0,0.0,0.0,0.0,0.0,0.0,0.0,0.0,0.0,0.0,0.0,0.0,0.0,0.0,0.0,0.0,0.0,0.0,0.0,0.0,0.0,0.0,0.0,0.0,0.0,0.0,0.0,0.0,0.0,0.0,0.0,0.0,0.0,0.0,0.0,0.0,0.0,0.0,0.0,0.0,0.0,0.0,0.0,0.0,0.0,0.0,0.0,0.0,0.0,0.0,0.0,0.0,0.0,0.0,0.0,0.0,0.0,0.0,-1.4028,-1.5818,-1.6246,-1.6486,-1.6687,-1.656,-1.6746,-1.7318,0.0,0.0,0.0,0.0,0.0,0.0,0.0,0.0,0.0,0.0,0.0,0.0,0.0,0.0,0.0,0.0,0.0,0.0,0.0,0.0,0.0,0.0,0.0,0.0,0.0,0.0,0.0,0.0,0.0,0.0,0.0,0.0,0.0,0.0,0.0,0.0,0.0,0.0,0.0,0.0,0.0,0.0,0.0,0.0,0.0,0.0,0.0,0.0,0.0,0.0,0.0,0.0,0.0,0.0,0.0,0.0,0.0,0.0,0.0,0.0,0.0,0.0,0.0,0.0,0.0,0.0,0.0,0.0,0.0,0.0,0.0,0.0,0.0,0.0,0.0,0.0,0.0,0.0,0.0,0.0,0.0,0.0,0.0,0.0,0.0,0.0,0.0,0.0,0.0,0.0,0.0,0.0,0.0,0.0,0.0,0.0,0.0,0.0,0.0,0.0,0.0,0.0,0.0,-1.3527,-1.4229,-1.5645,-1.5939,-1.6019,-1.5999,-1.6019,-1.6267,-1.6738,-1.5989,0.0,0.0,0.0,0.0,0.0,0.0,0.0,0.0,0.0,0.0,0.0,0.0,0.0,0.0,0.0,0.0,0.0,0.0,0.0,0.0,0.0,0.0,0.0,0.0,0.0,0.0,0.0,0.0,0.0,0.0,0.0,0.0,0.0,0.0,0.0,0.0,0.0,0.0,0.0,0.0,0.0,0.0,0.0,0.0,0.0,0.0,0.0,0.0,0.0,0.0,0.0,0.0,0.0,0.0,0.0,0.0,0.0,0.0,0.0,0.0,0.0,0.0,0.0,0.0,0.0,0.0,0.0,0.0,0.0,0.0,0.0,0.0,0.0,0.0,0.0,0.0,0.0,0.0,0.0,0.0,0.0,0.0,0.0,0.0,0.0,0.0,0.0,0.0,0.0,0.0,0.0,0.0,0.0,0.0,0.0,0.0,0.0,0.0,0.0,0.0,0.0,0.0,-1.4095,-1.4416,-1.5264,-1.5565,-1.5638,-1.5305,-1.5444,-1.5725,-1.6124,-1.5634,0.0,0.0,0.0,0.0,0.0,0.0,0.0,0.0,0.0,0.0,0.0,0.0,0.0,0.0,0.0,0.0,0.0,0.0,0.0,0.0,0.0,0.0,0.0,0.0,0.0,0.0,0.0,0.0,0.0,0.0,0.0,0.0,0.0,0.0,0.0,0.0,0.0,0.0,0.0,0.0,0.0,0.0,0.0,0.0,0.0,0.0,0.0,0.0,0.0,0.0,0.0,0.0,0.0,0.0,0.0,0.0,0.0,0.0,0.0,0.0,0.0,0.0,0.0,0.0,0.0,0.0,0.0,0.0,0.0,0.0,0.0,0.0,0.0,0.0,0.0,0.0,0.0,0.0,0.0,0.0,0.0,0.0,0.0,0.0,0.0,0.0,0.0,0.0,0.0,0.0,0.0,0.0,0.0,0.0,0.0,0.0,0.0,0.0,0.0,0.0,0.0,0.0,-1.3581,-1.4382,-1.4969,-1.5277,-1.5325,-1.5031,-1.4728,-1.4944,-1.5771,-1.4954,0.0,0.0,0.0,0.0,0.0,0.0,0.0,0.0,0.0,0.0,0.0,0.0,0.0,0.0,0.0,0.0,0.0,0.0,0.0,0.0,0.0,0.0,0.0,0.0,0.0,0.0,0.0,0.0,0.0,0.0,0.0,0.0,0.0,0.0,0.0,0.0,0.0,0.0,0.0,0.0,0.0,0.0,0.0,0.0,0.0,0.0,0.0,0.0,0.0,0.0,0.0,0.0,0.0,0.0,0.0,0.0,0.0,0.0,0.0,0.0,0.0,0.0,0.0,0.0,0.0,0.0,0.0,0.0,0.0,0.0,0.0,0.0,0.0,0.0,0.0,0.0,0.0,0.0,0.0,0.0,0.0,0.0,0.0,0.0,0.0,0.0,0.0,0.0,0.0,0.0,0.0,0.0,0.0,0.0,0.0,0.0,0.0,0.0,0.0,0.0,0.0,0.0,-1.3367,-1.3997,0.0,-1.5,-1.5054,-1.4669,-1.4781,-1.4951,-1.5372,0.0,0.0,0.0,0.0,0.0,0.0,0.0,0.0,0.0,0.0,0.0,0.0,0.0,0.0,0.0,0.0,0.0,0.0,0.0,0.0,0.0,0.0,0.0,0.0,0.0,0.0,0.0,0.0,0.0,0.0,0.0,0.0,0.0,0.0,0.0,0.0,0.0,0.0,0.0,0.0,0.0,0.0,0.0,0.0,0.0,0.0,0.0,0.0,0.0,0.0,0.0,0.0,0.0,0.0,0.0,0.0,0.0,0.0,0.0,0.0,0.0,0.0,0.0,0.0,0.0,0.0,0.0,0.0,0.0,0.0,0.0,0.0,0.0,0.0,0.0,0.0,0.0,0.0,0.0,0.0,0.0,0.0,0.0,0.0,0.0,0.0,0.0,0.0,0.0,0.0,0.0,0.0,0.0,0.0,0.0,0.0,0.0,0.0,0.0,0.0,0.0,0.0,-1.2505,-1.3073,-1.3599,0.0,-1.4615,-1.4625,-1.4392,-1.4487,-1.4678,-1.5082,0.0,0.0,0.0,0.0,0.0,0.0,0.0,0.0,0.0,0.0,0.0,0.0,0.0,0.0,0.0,0.0,0.0,0.0,0.0,0.0,0.0,0.0,0.0,0.0,0.0,0.0,0.0,0.0,0.0,0.0,0.0,0.0,0.0,0.0,0.0,0.0,0.0,0.0,0.0,0.0,0.0,0.0,0.0,0.0,0.0,0.0,0.0,0.0,0.0,0.0,0.0,0.0,0.0,0.0,0.0,0.0,0.0,0.0,0.0,0.0,0.0,0.0,0.0,0.0,0.0,0.0,0.0,0.0,0.0,0.0,0.0,0.0,0.0,0.0,0.0,0.0,0.0,0.0,0.0,0.0,0.0,0.0,0.0,0.0,0.0,0.0,0.0,0.0,0.0,0.0,0.0,0.0,0.0,0.0,0.0,0.0,0.0,0.0,0.0,0.0,0.0,0.0,-1.2225,-1.2576,-1.3127,-1.4001,-1.4088,-1.4088,-1.4088,-1.3795,-1.3925,0.0,0.0,0.0,0.0,0.0,0.0,0.0,0.0,0.0,0.0,0.0,0.0,0.0,0.0,0.0,0.0,0.0,0.0,0.0,0.0,0.0,0.0,0.0,0.0,0.0,0.0,0.0,0.0,0.0,0.0,0.0,0.0,0.0,0.0,0.0,0.0,0.0,0.0,0.0,0.0,0.0,0.0,0.0,0.0,0.0,0.0,0.0,0.0,0.0,0.0,0.0,0.0,0.0,0.0,0.0,0.0,0.0,0.0,0.0,0.0,0.0,0.0,0.0,0.0,0.0,0.0,0.0,0.0,0.0,0.0,0.0,0.0,0.0,0.0,0.0,0.0,0.0,0.0,0.0,0.0,0.0,0.0,0.0,0.0,0.0,0.0,0.0,0.0,0.0,0.0,0.0,0.0,0.0,0.0,0.0,0.0,0.0,0.0,0.0,0.0,0.0,0.0,0.0,-1.2253,-1.258,-1.3041,-1.371,-1.3711,-1.3711,-1.3711,-1.3698,-1.4083,-1.515,0.0,0.0,0.0,0.0,0.0,0.0,0.0,0.0,0.0,0.0,0.0,0.0,0.0,0.0,0.0,0.0,0.0,0.0,0.0,0.0,0.0,0.0,0.0,0.0,0.0,0.0,0.0,0.0,0.0,0.0,0.0,0.0,0.0,0.0,0.0,0.0,0.0,0.0,0.0,0.0,0.0,0.0,0.0,0.0,0.0,0.0,0.0,0.0,0.0,0.0,0.0,0.0,0.0,0.0,0.0,0.0,0.0,0.0,0.0,0.0,0.0,0.0,0.0,0.0,0.0,0.0,0.0,0.0,0.0,0.0,0.0,0.0,0.0,0.0,0.0,0.0,0.0,0.0,0.0,0.0,0.0,0.0,0.0,0.0,0.0,0.0,0.0,0.0,0.0,0.0,0.0,0.0,0.0,0.0,0.0,0.0,0.0,0.0,0.0,0.0,0.0,0.0,-1.2242,-1.2445,-1.2863,-1.3516,-1.3389,-1.3385,-1.3574,-1.3516,-1.3818,-1.4576,0.0,0.0,0.0,0.0,0.0,0.0,0.0,0.0,0.0,0.0,0.0,0.0,0.0,0.0,0.0,0.0,0.0,0.0,0.0,0.0,0.0,0.0,0.0,0.0,0.0,0.0,0.0,0.0,0.0,0.0,0.0,0.0,0.0,0.0,0.0,0.0,0.0,0.0,0.0,0.0,0.0,0.0,0.0,0.0,0.0,0.0,0.0,0.0,0.0,0.0,0.0,0.0,0.0,0.0,0.0,0.0,0.0,0.0,0.0,0.0,0.0,0.0,0.0,0.0,0.0,0.0,0.0,0.0,0.0,0.0,0.0,0.0,0.0,0.0,0.0,0.0,0.0,0.0,0.0,0.0,0.0,0.0,0.0,0.0,0.0,0.0,0.0,0.0,0.0,0.0,0.0,0.0,0.0,0.0,0.0,0.0,0.0,0.0,0.0,0.0,0.0,0.0,-1.2416,-1.2374,-1.2636,-1.343,-1.3121,-1.3002,-1.3457,-1.3265,-1.3312,-1.3546,0.0,0.0,0.0,0.0,0.0,0.0,0.0,0.0,0.0,0.0,0.0,0.0,0.0,0.0,0.0,0.0,0.0,0.0,0.0,0.0,0.0,0.0,0.0,0.0,0.0,0.0,0.0,0.0,0.0,0.0,0.0,0.0,0.0,0.0,0.0,0.0,0.0,0.0,0.0,0.0,0.0,0.0,0.0,0.0,0.0,0.0,0.0,0.0,0.0,0.0,0.0,0.0,0.0,0.0,0.0,0.0,0.0,0.0,0.0,0.0,-2.758,0.0,0.0,0.0,0.0,0.0,0.0,0.0,0.0,0.0,0.0,0.0,0.0,0.0,0.0,0.0,0.0,0.0,0.0,0.0,0.0,0.0,0.0,0.0,0.0,0.0,0.0,0.0,0.0,0.0,0.0,0.0,0.0,0.0,0.0,0.0,0.0,0.0,0.0,0.0,0.0,0.0,-1.2937,-1.2784,-1.2743,-1.292,-1.3049,-1.3082,-1.3003,-1.294,-1.3208,-1.3988,0.0,0.0,0.0,0.0,0.0,0.0,0.0,0.0,0.0,0.0,0.0,0.0,0.0,0.0,0.0,0.0,0.0,0.0,0.0,0.0,0.0,0.0,0.0,0.0,0.0,0.0,0.0,0.0,0.0,0.0,0.0,0.0,0.0,0.0,0.0,0.0,0.0,0.0,0.0,0.0,0.0,0.0,0.0,0.0,0.0,0.0,0.0,0.0,0.0,0.0,0.0,0.0,0.0,0.0,0.0,0.0,0.0,0.0,0.0,0.0,0.0,-3.0299,0.0,0.0,0.0,0.0,0.0,0.0,0.0,0.0,0.0,0.0,0.0,0.0,0.0,0.0,0.0,0.0,0.0,0.0,0.0,0.0,0.0,0.0,0.0,0.0,0.0,0.0,0.0,0.0,0.0,0.0,0.0,0.0,0.0,0.0,0.0,0.0,0.0,0.0,0.0,0.0,-1.3157,-1.2657,-1.2518,-1.2746,-1.281,-1.2808,-1.2977,-1.2721,-1.2808,-1.3483,-1.414,0.0,0.0,0.0,0.0,0.0,0.0,0.0,0.0,0.0,0.0,0.0,0.0,0.0,0.0,0.0,0.0,0.0,0.0,0.0,0.0,0.0,0.0,0.0,0.0,0.0,0.0,0.0,0.0,0.0,0.0,0.0,0.0,0.0,0.0,0.0,0.0,0.0,0.0,0.0,0.0,0.0,0.0,0.0,0.0,0.0,0.0,0.0,0.0,0.0,0.0,0.0,0.0,0.0,-3.6243,-3.737,-3.8888,-3.9247,-3.9435,-3.9336,-3.6581,-3.4955,-3.4038,0.0,0.0,0.0,0.0,0.0,0.0,0.0,0.0,0.0,0.0,0.0,0.0,0.0,0.0,0.0,0.0,0.0,0.0,0.0,0.0,0.0,0.0,0.0,0.0,0.0,-2.2669,-2.3222,0.0,0.0,0.0,0.0,0.0,0.0,0.0,0.0,0.0,0.0,0.0,0.0,-1.3563,-1.2782,-1.2424,-1.2663,-1.2537,-1.2553,-1.2977,-1.2574,-1.2418,-1.2728,-1.4252,-1.493,0.0,0.0,0.0,0.0,0.0,0.0,0.0,0.0,0.0,0.0,0.0,0.0,0.0,0.0,0.0,0.0,0.0,0.0,0.0,0.0,0.0,0.0,0.0,0.0,0.0,0.0,0.0,0.0,0.0,0.0,0.0,0.0,-2.155,-2.4645,0.0,0.0,0.0,0.0,0.0,0.0,0.0,0.0,0.0,0.0,0.0,0.0,0.0,0.0,-3.5139,-3.7629,-3.8616,-3.814,-4.114,-4.2207,-4.1666,-4.3449,-4.3516,-4.2192,-4.245,0.0,-3.639,-3.6457,0.0,0.0,0.0,0.0,0.0,0.0,0.0,0.0,0.0,0.0,0.0,0.0,0.0,0.0,0.0,0.0,0.0,0.0,0.0,0.0,0.0,0.0,-2.3474,-2.439,-2.4973,-2.5511,0.0,-2.349,-2.0301,-1.9272,0.0,0.0,0.0,0.0,0.0,0.0,0.0,0.0,-1.4951,-1.4277,-1.3474,-1.2518,-1.2567,-1.264,-1.2466,-1.2356,-1.2344,-1.2338,-1.4155,-1.5321,-1.5547,-1.7023,0.0,0.0,0.0,0.0,0.0,0.0,0.0,0.0,0.0,0.0,0.0,0.0,0.0,0.0,0.0,0.0,0.0,0.0,0.0,0.0,0.0,0.0,0.0,0.0,0.0,0.0,0.0,0.0,0.0,-2.0496,-2.3381,-2.46,-2.5529,-2.5868,0.0,0.0,0.0,0.0,0.0,0.0,0.0,0.0,0.0,-3.815,-3.9867,-4.085,-4.1011,-4.2975,-4.3381,-4.2273,-4.4214,-4.4812,-4.4199,-4.5113,-4.4749,-4.3418,-4.4068,-4.2548,-3.9573,-3.8982,-3.7249,-3.4792,0.0,0.0,0.0,0.0,0.0,-2.8097,-2.8372,-2.9052,0.0,0.0,0.0,0.0,0.0,0.0,0.0,0.0,0.0,0.0,0.0,0.0,0.0,-2.6754,-2.7673,-2.8598,-2.9261,-2.7629,-2.5467,0.0,-2.2475,-2.1741,-2.1458,0.0,0.0,0.0,0.0,0.0,-1.6002,-1.4796,-1.3837,-1.3145,-1.2633,-1.2385,-1.2553,-1.2381,-1.2414,-1.2573,-1.425,-1.5361,-1.5807,-1.742,-1.8125,0.0,0.0,0.0,0.0,0.0,0.0,0.0,0.0,0.0,0.0,0.0,0.0,0.0,0.0,0.0,0.0,0.0,0.0,0.0,0.0,0.0,0.0,0.0,0.0,0.0,0.0,0.0,0.0,-2.2884,-2.4971,-2.5477,-2.7845,-2.9007,0.0,0.0,0.0,0.0,0.0,0.0,-3.8277,-3.9804,-4.1412,-4.3161,-4.4472,-4.5312,-4.5626,-4.67,-4.6574,-4.5298,-4.5853,-4.5883,-4.5496,-4.5704,-4.5047,-4.3828,-4.4455,-4.3778,-4.2119,-4.0663,-3.9376,-3.8092,-3.6229,-3.4768,-3.358,-3.3002,-3.2935,-3.3181,-3.3597,-3.4048,-3.4304,-3.3599,0.0,-3.1716,-3.0577,0.0,0.0,0.0,0.0,-2.614,-2.6889,-2.7771,-2.8509,-2.8662,-2.9676,-3.0771,-3.1047,-3.0674,-2.9688,0.0,-2.6026,-2.4777,-2.4404,0.0,0.0,0.0,0.0,-1.9109,-1.7243,-1.5756,-1.4609,-1.4095,-1.3034,-1.2466,-1.264,-1.2466,-1.2392,-1.264,-1.4494,-1.5657,-1.5914,-1.7879,-1.8626,-1.7935,0.0,0.0,0.0,0.0,0.0,0.0,0.0,0.0,0.0,0.0,0.0,0.0,0.0,0.0,0.0,0.0,0.0,0.0,0.0,0.0,0.0,0.0,0.0,0.0,0.0,0.0,0.0,0.0,0.0,-2.9055,-3.1432,0.0,0.0,0.0,0.0,-3.5768,-3.7792,-3.9768,-4.149,-4.3272,-4.4996,-4.6698,-4.7743,-4.789,-4.7109,-4.7098,-4.6663,-4.5763,-4.5683,-4.53,-4.4674,-4.544,-4.4987,-4.3554,-4.4378,-4.4196,-4.3301,-4.196,-4.0661,-3.9443,-3.8628,-3.7453,-3.6203,-3.6017,-3.6508,-3.6962,-3.5461,-3.5989,-3.7242,-3.6548,-3.5081,-3.3763,-3.4261,-3.2508,0.0,0.0,-3.0608,-3.0647,-2.942,-2.9875,-3.0435,-2.9785,-3.0319,-3.1187,-3.1789,-3.1399,-3.0752,0.0,-2.8993,-2.7783,-2.6565,0.0,-2.45,-2.199,-2.1363,-2.0573,-1.8922,-1.7595,-1.6367,-1.5058,-1.415,-1.3233,-1.2385,-1.2305,-1.2305,-1.2305,-1.4832,-1.6385,-1.6377,-1.8606,-1.9625,-1.917,-1.8006,0.0,0.0,0.0,0.0,0.0,0.0,0.0,0.0,0.0,0.0,0.0,0.0,0.0,0.0,0.0,0.0,0.0,0.0,0.0,0.0,0.0,0.0,0.0,0.0,0.0,0.0,0.0,0.0,-3.2898,-3.5383,0.0,-3.5572,-3.6803,-3.824,-3.963,-4.1543,-4.3366,-4.4982,-4.6714,-4.7931,-4.8529,-4.9586,-4.9439,-4.7913,-4.8529,-4.7829,-4.5817,-4.624,-4.5778,-4.4624,-4.49,-4.4464,-4.3516,-4.3791,-4.3754,-4.3461,-4.2992,-4.2322,-4.1579,-4.1292,-4.0659,-3.9852,-3.9799,-3.9992,-4.0132,-3.9118,-3.8888,-3.8774,-3.7199,-3.592,-3.4935,-3.4717,-3.3937,-3.316,-3.3144,-3.2986,-3.2656,-3.2113,-3.2276,-3.2283,-3.1082,-3.1402,-3.2076,-3.256,-3.247,-3.2547,-3.3455,-3.1675,-2.9733,-2.8883,-2.7607,-2.5696,-2.2656,-2.2166,-2.1394,-1.9444,-1.823,-1.6998,-1.553,-1.4198,-1.3145,-1.2385,-1.2305,-1.2305,-1.2305,-1.3778,-1.5088,-1.5988,-1.7394,-1.8518,-1.9284,-1.8883,-1.8281,0.0,0.0,0.0,0.0,0.0,0.0,0.0,0.0,0.0,0.0,0.0,0.0,0.0,0.0,0.0,0.0,0.0,0.0,0.0,0.0,0.0,0.0,0.0,0.0,0.0,0.0,-3.3361,-3.5756,-3.8539,-3.9813,-3.8693,-3.9957,-4.1366,-4.2625,-4.4592,-4.6184,-4.7259,-4.8913,-4.9702,-4.9413,-5.0183,-4.9734,-4.7938,-4.856,-4.7861,-4.5834,-4.6259,-4.5878,-4.4757,-4.4657,-4.4252,-4.3679,-4.3679,-4.3679,-4.3679,-4.3823,-4.367,-4.3332,-4.3176,-4.2886,-4.2531,-4.2531,-4.2531,-4.2343,-4.0944,-3.966,-3.8407,-3.6916,-3.6045,-3.5515,-3.5052,-3.4941,-3.4947,-3.4922,-3.4431,-3.3828,-3.3548,-3.337,-3.2886,-3.166,-3.1741,-3.2248,-3.2874,-3.2889,-3.327,-3.4807,-3.3107,-3.1151,-3.0381,-2.8572,-2.6302,-2.3591,-2.2865,-2.211,-2.0682,-1.9636,-1.8229,-1.6233,-1.5015,-1.3822,-1.2392,-1.2305,-1.2305,-1.2305,-1.3228,-1.4324,-1.5565,-1.6687,-1.7989,-1.9507,-1.9458,-1.8947,-1.7996,0.0,0.0,0.0,0.0,0.0,0.0,0.0,0.0,0.0,0.0,0.0,0.0,0.0,0.0,0.0,0.0,0.0,0.0,0.0,0.0,0.0,0.0,0.0,-2.9051,-3.2254,-3.5315,-3.7631,-4.079,-4.2372,-4.135,-4.3591,-4.4954,-4.4564,-4.6741,-4.8067,-4.8067,-4.9702,-5.024,-4.9394,-4.9509,-4.8813,-4.7213,-4.7147,-4.6698,-4.5911,-4.5699,-4.5419,-4.5096,-4.4732,-4.4392,-4.4016,-4.4016,-4.4016,-4.4046,-4.4447,-4.458,-4.4553,-4.4175,-4.3998,-4.4016,-4.3979,-4.3911,-4.3447,-4.056,-3.8204,-3.6326,-3.5783,-3.5622,-3.5622,-3.5588,-3.5588,-3.5605,-3.5588,-3.5064,-3.4418,-3.3723,-3.3011,-3.2302,-3.1545,-3.132,-3.1648,-3.2706,-3.2701,-3.2792,-3.399,-3.3178,-3.1981,-3.0907,-2.8594,-2.639,-2.4808,-2.3492,0.0,-2.2596,-2.1744,-2.0041,-1.7207,-1.6581,-1.5233,-1.2553,-1.2305,-1.2298,-1.2285,-1.328,-1.4246,-1.512,-1.6573,-1.8202,-2.0107,-1.9722,-1.9052,-1.8038,0.0,0.0,0.0,0.0,0.0,0.0,0.0,0.0,0.0,0.0,0.0,0.0,0.0,0.0,0.0,0.0,0.0,0.0,0.0,0.0,0.0,0.0,-3.2157,-3.3886,-3.6461,-3.9212,-4.2057,-4.3659,-4.4513,-4.4511,-4.5229,-4.5626,-4.5526,-4.6719,-4.745,-4.7452,-4.8491,-4.8952,-4.8606,-4.8837,-4.8392,-4.7221,-4.7187,-4.6732,-4.5911,-4.5699,-4.5419,-4.5096,-4.4732,-4.4527,-4.4419,-4.4136,-4.4165,-4.4447,-4.4553,-4.458,-4.458,-4.4474,-4.4261,-4.3942,-4.3346,-4.2095,-4.0542,-3.9192,-3.7847,-3.6576,-3.5853,-3.5622,-3.552,-3.4962,-3.5471,-3.5994,-3.5077,-3.558,-3.6212,-3.5091,-3.4634,-3.4196,-3.2894,-3.2303,-3.1975,-3.1795,-3.1672,-3.1737,-3.2133,-3.143,-3.0903,-3.1153,-2.922,-2.7189,-2.6009,-2.4452,0.0,-2.2647,-2.125,-1.9456,-1.739,-1.6347,-1.4956,-1.2808,-1.264,-1.251,-1.206,-1.2437,-1.3404,-1.48,-1.5719,-1.769,-2.0863,-2.0534,-1.9979,0.0,0.0,0.0,0.0,0.0,0.0,0.0,0.0,0.0,0.0,0.0,0.0,0.0,0.0,0.0,0.0,0.0,0.0,0.0,0.0,0.0,0.0,-3.3637,-3.6552,-3.9022,-4.0274,-4.1916,-4.4566,-4.5209,-4.5546,-4.5813,-4.5853,-4.5863,-4.5896,-4.6698,-4.7201,-4.7192,-4.8029,-4.8269,-4.7777,-4.7969,-4.759,-4.6607,-4.6601,-4.6299,-4.5649,-4.5457,-4.5302,-4.5096,-4.4732,-4.4676,0.0,-4.4561,-4.4587,-4.4825,-4.4966,-4.4801,0.0,0.0,0.0,0.0,0.0,-4.0924,-3.9,-3.8557,-3.7626,-3.6512,-3.5847,-3.5739,-3.5761,-3.4796,-3.5036,-3.5394,-3.4321,-3.4569,-3.4992,-3.4243,-3.3819,-3.3304,-3.2118,-3.1615,-3.1274,-3.0911,-3.0823,-3.0949,-3.1318,0.0,0.0,-3.1217,-2.9525,-2.772,-2.6807,-2.5634,-2.4503,-2.3547,-2.2152,-2.0165,-1.7415,-1.6434,-1.503,-1.2785,-1.2592,0.0,0.0,0.0,-1.2913,-1.4627,-1.6425,0.0,0.0,0.0,-2.1112,-2.0778,0.0,0.0,0.0,-1.7237,-1.6813,0.0,0.0,0.0,0.0,0.0,0.0,0.0,0.0,0.0,0.0,0.0,0.0,0.0,0.0,0.0,0.0,-3.8207,-4.0565,-4.3548,-4.3361,-4.3628,-4.5547,-4.5783,-4.5834,-4.5892,-4.5853,-4.5853,-4.5935,-4.666,-4.7097,-4.7097,0.0,0.0,0.0,0.0,-4.6655,-4.5801,-4.5699,-4.5501,-4.5224,-4.4941,-4.4851,-4.4872,-4.4492,-4.4516,-4.4872,-4.4832,-4.4832,-4.4894,-4.5188,-4.4837,-4.4149,-4.4629,-4.4079,-4.2894,-4.1838,-4.0134,-3.8333,-3.8333,0.0,0.0,-3.5769,-3.5891,-3.6015,-3.4644,-3.4346,-3.4287,-3.3474,-3.2971,-3.2559,-3.2411,-3.1851,-3.1104,-3.0336,-3.0061,-2.9958,-3.0001,-3.0,-3.0226,-3.0921,-3.0478,-3.0217,-3.0937,-2.9519,-2.8126,-2.7549,-2.6917,-2.6061,-2.4775,-2.3537,-2.1363,-1.7531,0.0,0.0,-1.2671,-1.2389,-1.2325,-1.2284,-1.2271,-1.3046,-1.4797,-1.777,-1.957,-2.0018,-2.143,-2.2127,-2.2004,-2.0908,-1.9881,-1.8859,-1.8291,-1.7506,0.0,0.0,0.0,0.0,0.0,0.0,0.0,0.0,0.0,0.0,0.0,0.0,0.0,0.0,0.0,-3.8163,-4.0231,-4.2213,-4.4119,-4.394,-4.4097,-4.548,-4.5728,-4.5834,-4.5892,-4.5988,-4.61,-4.6217,-4.638,-4.6477,-4.6477,-4.6527,0.0,-4.6119,-4.6132,-4.6041,-4.5801,-4.5103,-4.4727,-4.463,0.0,0.0,-4.3461,-4.286,-4.2905,-4.3461,-4.3138,-4.3196,-4.3478,-4.3568,-4.3308,-4.2928,-4.2981,-4.2332,-4.1297,-4.0745,-3.9454,-3.7989,-3.7989,-3.7594,-3.6855,-3.5729,-3.5417,-3.5157,-3.3308,-3.343,0.0,-3.2859,-3.3408,-3.4161,-3.3196,-3.2357,-3.1562,-3.0837,-2.9932,-2.9119,-2.8812,-2.876,-2.8794,-2.8968,-2.886,-2.8902,-2.9352,-2.9189,-2.9021,-2.8987,-2.7515,-2.6129,-2.5325,-2.2871,-2.0496,-1.8718,-1.6845,-1.5109,-1.3424,-1.294,-1.2608,-1.2343,-1.3712,-1.4988,-1.6061,-1.7802,-1.9471,-2.0945,-2.1664,-2.2033,-2.2004,-2.2108,-2.1363,-1.9787,-1.8567,-1.7521,0.0,0.0,0.0,0.0,0.0,0.0,0.0,0.0,0.0,0.0,0.0,-3.4739,0.0,0.0,-3.9172,-4.1351,-4.2478,-4.3425,-4.4378,-4.4364,-4.4461,-4.4991,-4.472,-4.4566,-4.4722,-4.4818,-4.4877,-4.4943,-4.4952,-4.4917,-4.4844,-4.4793,-4.4683,-4.4559,-4.4608,-4.4579,-4.4454,-4.4059,-4.3724,-4.3484,-4.2851,-4.2641,-4.2776,-4.2036,-4.2198,-4.3066,-4.2428,-4.2504,-4.3066,-4.2446,-4.201,-4.1705,-4.1225,-4.0873,-4.0521,-3.9314,-3.8211,-3.7282,-3.7282,-3.6876,-3.6221,-3.5531,-3.5192,-3.4711,-3.2861,-3.273,-3.3066,-3.2015,-3.2111,-3.2364,-3.174,-3.105,-3.0261,-2.9471,-2.885,-2.8285,-2.792,-2.7848,-2.7914,-2.8103,-2.8143,-2.8283,-2.8659,-2.8806,-2.8888,-2.8844,-2.7756,-2.6404,-2.5117,-2.2524,-2.0176,-1.8495,-1.6587,-1.4806,-1.3404,-1.2808,-1.254,-1.2549,-1.4248,-1.5443,-1.5945,-1.7496,-1.8797,-1.9872,-2.1356,-2.2078,-2.2001,-2.2721,-2.2483,-2.1385,-1.9521,-1.8154,0.0,0.0,0.0,0.0,0.0,0.0,0.0,0.0,-3.0314,-3.3839,-3.5589,-3.7191,-3.9455,-4.0369,-4.1435,-4.3527,-4.3884,-4.4018,-4.4254,-4.4087,-4.3904,-4.384,-4.3494,-4.3359,-4.3573,-4.3452,-4.3341,-4.3355,-4.3185,-4.3106,-4.3141,-4.315,-4.3138,-4.3208,-4.3285,-4.3255,-4.3093,-4.282,-4.2499,-4.2106,-4.1702,-4.155,-4.1609,-4.0882,-4.1093,-4.1997,-4.1409,-4.1449,-4.1909,-4.1167,-4.0647,-4.0244,-3.9664,-3.9593,-3.9668,-3.8153,-3.7253,-3.6819,-3.6675,-3.6154,-3.5472,-3.5092,-3.4754,-3.4144,-3.2576,-3.211,-3.1918,-3.119,-3.0565,-3.004,-2.9736,-2.9211,-2.8569,-2.7774,-2.7604,-2.7487,-2.7139,-2.7127,-2.7262,-2.7565,-2.7718,-2.7897,-2.8334,-2.8397,-2.8329,-2.8151,-2.7471,-2.6361,-2.4569,-2.2128,-1.9873,-1.8169,-1.6257,-1.4506,-1.307,-1.264,-1.2594,-1.2802,-1.4168,-1.5255,-1.5706,-1.7107,-1.81,-1.8683,-2.1073,-2.221,-2.1999,-2.3207,-2.3399,-2.2633,-2.0688,-1.922,-2.9347,-2.796,-2.7362,-2.8716,-2.8388,-2.9193,0.0,0.0,-3.5816,-3.8156,-4.0345,-4.1361,-3.9758,-4.127,-4.2656,-4.2302,-4.2838,-4.3362,-4.3509,-4.2209,-4.1277,-4.1368,-4.2673,-4.3573,-4.3611,-4.2909,-4.2451,-4.244,-4.1666,-4.1501,-4.2218,-4.2189,-4.2478,-4.3173,-4.3153,-4.3137,-4.3108,-4.1578,-4.0777,-4.0707,-3.8895,-3.8225,-3.8481,-3.8112,-3.804,-3.8229,-3.8627,-3.8428,-3.7936,-3.8933,-3.8906,-3.8275,-3.8644,-3.8405,-3.7816,-3.7839,-3.7674,-3.7308,-3.6593,-3.5988,-3.5407,-3.4248,-3.3599,-3.306,-3.1708,-3.1309,-3.1157,-3.0429,-3.0176,-2.9786,-2.8397,-2.7992,-2.7757,-2.6996,-2.6826,-2.6691,-2.6227,-2.6453,-2.6742,-2.6673,-2.7041,-2.7597,-2.8278,-2.803,-2.7651,-2.7459,-2.6403,-2.5148,-2.3848,-2.1151,-1.9199,-1.8977,-1.6286,-1.3964,-1.249,-1.2808,-1.3021,-1.2808,-1.3736,-1.4822,-1.6102,-1.6903,-1.7918,-1.9221,-2.1567,-2.2513,-2.1999,-2.3759,-2.3974,-2.2686,-2.1963,-2.0703,-2.8333,-2.8626,-2.962,0.0,-3.1355,-3.2881,-3.5788,-3.6427,-3.698,-3.9059,-4.0647,-4.1567,-4.1266,-4.2126,-4.2833,0.0,-4.2888,-4.277,-4.1992,-4.0867,-3.9743,-3.8795,-3.9367,-4.006,-4.0527,-4.0235,-4.001,-3.9913,-3.956,-3.9449,-3.9703,-4.0171,-4.035,-4.0177,-4.0623,-4.0642,-4.0142,-3.9411,-3.9046,-3.9027,-3.7686,-3.7064,-3.7028,-3.5878,-3.5548,-3.597,-3.7196,-3.7404,-3.6958,-3.748,-3.7411,-3.699,-3.7206,-3.7092,-3.6828,-3.6943,-3.6574,-3.5962,-3.5381,-3.4776,-3.4114,-3.3547,-3.2894,-3.2184,-3.1414,-3.0903,-3.0497,-3.0192,-2.9465,-2.86,-2.7958,-2.7503,-2.708,-2.6776,-2.6505,-2.6253,-2.6031,-2.5899,-2.5799,-2.5749,-2.5916,-2.6169,-2.6488,-2.6421,-2.6139,-2.562,-2.5179,-2.4385,-2.3013,-2.0838,-1.9007,-1.7773,-1.5783,-1.4096,-1.3175,-1.2845,-1.2709,-1.2799,-1.403,-1.5068,-1.5795,-1.7054,-1.793,-1.8554,-2.0819,-2.1724,-2.1206,-2.3286,-2.3879,-2.2911,-2.225,-2.1498,-2.7583,-2.898,0.0,-3.1745,-3.3289,-3.4998,-3.6439,-3.6937,-3.76,-3.9368,-4.0435,-4.1162,-4.157,-4.1705,-4.1857,-4.205,-4.1933,-4.1472,-4.0479,-3.9427,-3.8335,-3.7133,-3.6477,-3.6394,-3.7109,-3.7492,-3.7595,-3.7378,-3.6988,-3.6909,-3.7296,-3.7906,-3.8161,-3.8007,-3.8604,-3.8642,-3.8007,-3.7757,-3.7526,-3.7296,-3.6349,-3.5703,-3.5308,-3.3895,-3.362,-3.4292,-3.5346,-3.577,-3.5732,-3.5855,-3.5836,-3.5809,-3.6029,-3.6033,-3.5936,-3.5936,-3.555,-3.4926,-3.4292,-3.3592,-3.2943,-3.2546,-3.2046,-3.1479,-3.0798,-3.0362,-3.0023,-2.96,-2.8651,-2.7739,-2.7571,-2.7097,-2.6657,-2.6556,-2.6253,-2.5916,-2.5638,-2.5376,-2.5161,-2.5004,-2.5098,-2.5199,-2.5199,-2.5131,-2.4868,-2.4177,-2.4114,-2.3724,-2.2511,-2.0766,-1.8825,-1.6643,-1.5421,-1.451,-1.379,-1.29,-1.2553,-1.2782,-1.4067,-1.501,-1.5554,-1.6887,-1.7745,-1.8008,-2.0238,-2.1163,-2.0624,-2.288,-2.3716,-2.3065,-2.2528,-2.2225,-2.75,-2.8651,-3.0206,-3.2938,-3.3633,-3.4524,-3.7951,-3.8511,-3.8651,-3.975,-4.071,-4.1007,-3.9739,-3.9506,-3.9431,-3.9257,-3.9154,-3.913,-3.9148,-3.772,-3.6761,-3.6986,-3.4874,-3.3621,0.0,-3.5201,-3.5724,-3.5312,-3.3916,-3.3795,-3.5501,-3.5603,-3.6353,-3.795,-3.8027,-3.8027,-3.8007,-3.7161,-3.6353,-3.5551,-3.4431,-3.3494,-3.2699,-3.2127,-3.2306,-3.3003,-3.2482,-3.264,-3.334,-3.3734,-3.4121,-3.4532,-3.5322,-3.5375,-3.5027,-3.5027,-3.5009,-3.4852,-3.364,-3.2939,-3.2327,-3.1133,-3.0982,-3.0959,-2.9482,-2.955,-2.9803,-2.8279,-2.7823,-2.762,-2.6911,-2.6708,-2.659,-2.612,-2.5995,-2.5726,-2.465,-2.4855,-2.5045,-2.4544,-2.4836,-2.5195,-2.5195,-2.4716,-2.4139,-2.3595,-2.3402,-2.3097,-2.2454,-2.0854,-1.8738,-1.6224,-1.5745,-1.508,-1.38,-1.3153,-1.2818,-1.2809,-1.3418,-1.4302,-1.5562,-1.6244,-1.7039,-1.8008,-2.0238,-2.1135,-2.0637,-2.2911,-2.3703,-2.3078,-2.3065,-2.3065,-2.7442,-2.9535,-3.1954,-3.4095,-3.5056,-3.5888,-3.7564,-3.7754,-3.7769,-3.8352,-3.7814,-3.7115,-3.674,-3.6216,-3.5932,-3.6261,-3.673,-3.708,-3.711,-3.6102,-3.4867,-3.3563,-3.3435,0.0,0.0,0.0,0.0,-3.3536,-3.2699,-3.2897,-3.4603,-3.5218,-3.5757,-3.6334,-3.6353,-3.6065,-3.5468,-3.4603,-3.3972,-3.357,-3.2072,-3.0891,-3.0085,-3.0027,-3.0161,-3.0423,-3.0743,-3.1063,-3.1327,-3.1943,-3.2299,-3.2453,-3.2699,-3.2883,-3.2925,-3.2162,-3.204,-3.2327,-3.2621,-3.2097,-3.1185,-3.0516,-3.0054,-2.9634,-2.9127,-2.8789,-2.8448,-2.7941,-2.7242,-2.6543,-2.6293,-2.598,-2.5672,-2.5486,-2.519,-2.4836,-2.4483,-2.3935,-2.3488,-2.3298,-2.3066,-2.2876,-2.2876,-2.3051,-2.3216,-2.3354,-2.2027,-2.108,-2.1188,-1.9663,-1.8203,-1.7387,-1.6674,-1.606,-1.5665,-1.429,-1.3718,-1.4321,-1.4617,-1.5202,-1.6245,-1.7088,-1.7658,-1.8008,-1.9899,-2.0747,-2.0602,-2.2518,-2.3326,-2.3078,-2.3078,-2.3078,-2.7691,-2.9995,-3.2327,-3.3804,-3.4649,-3.5301,-3.605,-3.6115,-3.6166,-3.6671,-3.5472,-3.433,-3.441,-3.3531,-3.2974,-3.3547,-3.4183,-3.4692,-3.4959,-3.3985,-3.2914,-3.2117,-3.227,-3.1836,0.0,0.0,0.0,-3.2029,-3.1609,-3.19,-3.3158,-3.3719,-3.4093,-3.4301,-3.44,-3.4059,-3.3177,-3.2927,-3.2424,-3.1694,-2.9996,-2.8965,-2.8474,-2.8612,-2.8841,-2.9107,-2.9184,-2.9526,-3.0048,-3.0106,-3.0386,-3.0765,-3.0744,-3.1005,-3.1303,-3.0576,-3.0368,-3.054,-3.1203,-3.0956,-3.0197,-2.951,-2.9161,-2.8909,-2.8332,-2.7994,-2.7687,-2.7276,-2.6593,-2.5977,-2.5762,-2.5449,-2.5144,-2.495,-2.4508,-2.4011,-2.3838,-2.302,-2.2367,-2.2321,-2.1992,-2.1713,-2.1713,-2.2021,-2.2355,-2.2742,-2.1127,-2.0011,-2.0529,-1.9354,-1.8368,-1.8018,-1.7126,-1.662,-1.6569,-1.5171,-1.4521,-1.5178,-1.5513,-1.5984,-1.6587,-1.7483,-1.8008,-1.8008,-1.94,-2.0325,-2.0602,-2.197,-2.2845,-2.3078,-2.3078,-2.3078,-2.82,-2.9943,-3.1384,-3.2191,-3.2582,-3.2927,-3.3574,-3.3766,-3.3987,-3.4683,-3.3647,-3.2563,0.0,0.0,-3.0502,-3.1093,-3.1462,-3.1949,-3.2715,-3.1513,-3.1056,0.0,0.0,0.0,0.0,0.0,0.0,-3.0734,0.0,-3.0684,-3.1268,-3.131,-3.1575,-3.2165,-3.2374,-3.2069,-3.1234,-3.1924,-3.1486,-2.9895,-2.8301,-2.7616,-2.7745,-2.7787,-2.8211,-2.8824,-2.7687,-2.8042,-2.9314,-2.8253,-2.8456,-2.9502,-2.9524,-2.9782,-3.0206,-3.014,-2.9857,-2.9485,-2.9434,-2.9469,-2.9332,-2.8166,-2.8313,-2.8586,-2.7131,-2.7164,-2.7464,-2.6319,-2.5961,-2.5799,-2.5297,-2.5144,-2.4934,-2.4415,-2.3857,-2.3284,-2.2775,-2.2106,-2.1643,-2.1656,-2.164,-2.164,-2.1705,-2.1644,-2.1623,-2.1891,-2.0673,-1.9946,-2.046,-1.9776,-1.8927,-1.8105,-1.7203,-1.6674,-1.6674,-1.5813,-1.53,-1.535,-1.6129,-1.6597,-1.6674,-1.7552,-1.8008,-1.8008,-1.8849,-1.9715,-2.0575,-2.15,-2.2333,-2.3078,-2.3078,-2.3078,-2.7748,-2.9451,-3.1096,-3.0966,-3.1576,-3.2035,-3.1438,-3.1754,-3.1983,-3.1283,-2.9696,-2.832,0.0,0.0,0.0,-2.7964,-2.8355,0.0,-3.0352,-3.0058,0.0,-2.9068,0.0,-3.0224,-2.8738,-2.9245,0.0,0.0,-2.926,-3.0113,-3.1452,-3.1378,-3.1575,-3.2165,-3.1101,-3.0414,-3.017,-2.8764,-2.7843,-2.7411,-2.6823,-2.6307,-2.5813,-2.6279,-2.627,-2.5899,-2.6217,-2.6538,-2.6962,-2.7554,-2.7975,-2.8243,-2.8252,-2.8509,-2.8784,-2.7939,-2.7715,-2.7779,-2.7161,-2.7513,-2.8218,-2.7889,-2.7552,-2.7199,-2.681,-2.657,-2.6388,-2.6099,-2.5411,-2.4792,-2.4632,-2.3945,-2.3318,-2.3172,-2.2642,-2.2119,-2.1969,-2.1464,-2.1017,-2.1029,-2.0978,-2.1069,-2.1458,-2.1306,-2.1319,-2.1801,-2.0497,-1.9512,-1.9625,-1.8849,-1.8281,-1.8018,-1.7823,-1.7648,-1.7648,-1.677,-1.6547,-1.7207,-1.6834,-1.6934,-1.7639,-1.7842,-1.8008,-1.8008,-1.8849,-1.9697,-2.061,-2.1463,-2.2333,-2.3078,-2.3078,-2.3078,-2.684,-2.8347,-2.975,-2.9425,-2.984,-3.0182,-2.9532,-2.9568,-2.9512,-2.881,-2.7109,-2.5659,-2.5332,-2.458,0.0,0.0,0.0,0.0,-2.7469,-2.7082,-2.6786,0.0,-2.8117,0.0,-2.7192,-2.7882,-2.8072,0.0,-2.7964,-2.8688,-2.9326,-2.925,-2.9233,-2.9302,-2.8688,-2.8353,-2.8353,-2.6239,-2.5423,-2.5871,-2.5202,-2.4765,-2.4598,-2.5025,-2.4951,-2.4557,0.0,-2.5642,-2.5723,-2.6643,-2.6882,-2.6677,-2.6928,-2.6987,-2.6889,-2.5942,-2.5748,-2.5831,-2.5053,-2.5193,-2.59,-2.6463,-2.6389,-2.6052,-2.6052,-2.5872,-2.5615,-2.5373,-2.4855,-2.4292,-2.3791,-2.3378,-2.2973,-2.2725,-2.2138,-2.1683,-2.1689,-2.0996,-2.0348,-2.0348,-2.0245,-2.0395,-2.1369,-2.0885,-2.0641,-2.1207,-2.0164,-1.9134,-1.8761,-1.8291,-1.8008,-1.8008,-1.8008,-1.8008,-1.8008,-1.7552,-1.7464,-1.7998,-1.7483,-1.7464,-1.8008,-1.8008,-1.8008,-1.8008,-1.8476,-1.9322,-2.0633,-2.11,-2.1946,-2.3078,-2.3078,-2.3078,-2.5683,-2.6895,-2.7834,-2.7679,-2.7839,-2.7976,-2.7731,-2.7332,-2.6937,-2.6693,-2.5116,-2.3781,-2.3605,-2.2758,-2.2164,-2.2316,0.0,-2.2289,-2.4312,-2.3479,-2.3492,-2.5654,-2.5707,-2.5597,-2.5609,-2.6109,-2.6255,-2.5757,-2.6366,-2.6674,-2.6463,-2.6429,-2.614,-2.545,-2.5941,-2.6167,-2.6057,-2.4241,-2.3797,-2.4676,-2.3583,-2.3212,-2.3539,-2.3922,-2.4042,-2.3973,0.0,0.0,-2.5211,-2.5603,-2.5546,-2.5226,-2.5489,-2.5322,-2.4868,-2.4296,-2.4075,-2.3958,-2.331,-2.317,-2.3426,-2.4673,-2.5075,-2.5093,-2.5189,-2.5144,-2.4973,-2.4415,-2.421,-2.3933,-2.2962,-2.2922,-2.3039,-2.2586,-2.1894,-2.134,-2.1372,-2.0537,-1.9786,-1.9633,-1.9544,-1.9875,-2.1056,-2.0384,-1.9812,-2.0328,-1.9687,-1.8839,-1.8105,-1.8008,-1.8008,-1.8008,-1.8008,-1.8008,-1.8008,-1.8008,-1.8008,-1.8008,-1.8008,-1.8008,-1.8008,-1.8008,-1.8008,-1.8008,-1.8008,-1.8829,-2.0443,-2.0511,-2.1428,-2.2955,-2.3053,-2.3078,-2.4587,-2.5353,-2.6076,-2.5822,-2.6446,-2.6857,-2.5776,-2.5463,0.0,0.0,-2.2415,-2.1212,-2.0927,-2.0098,-1.976,-2.0713,-1.9494,-1.9068,-2.1017,-2.0912,-2.0873,0.0,-2.2747,0.0,0.0,0.0,0.0,0.0,0.0,-2.4229,-2.6068,-2.6116,-2.5646,-2.4637,-2.4699,-2.445,-2.3766,-2.2824,-2.2446,-2.2626,-2.2403,-2.2005,-2.1569,-2.2917,-2.3188,-2.2698,0.0,0.0,-2.5147,-2.4708,-2.4697,-2.4931,-2.4032,-2.3632,-2.3545,-2.3417,-2.3372,-2.3272,-2.2728,-2.2905,-2.3467,-2.4144,-2.4372,-2.4505,-2.5045,-2.491,-2.4415,-2.3846,-2.3362,-2.2931,-2.2698,-2.1964,-2.1358,-2.1688,-2.0939,-2.013,-2.0105,-1.9965,-1.9544,-1.8697,-1.9366,-2.0055,-2.0085,-1.9687,-1.943,-1.9536,-1.8761,-1.8193,-1.8018,-1.8008,-1.8008,-1.8008,-1.8008,-1.8008,-1.8008,-1.8008,-1.8008,-1.8008,-1.8008,-1.8008,-1.8008,-1.8008,-1.8008,-1.8008,-1.8008,-1.8476,-1.951,-2.0233,-2.1105,-2.214,-2.2772,-2.3078,-2.2781,-2.3732,-2.4647,-2.4792,-2.5351,-2.5647,-2.4866,0.0,0.0,0.0,-2.1098,-1.989,-1.911,-1.8394,0.0,-1.7794,-1.6704,-1.6353,-1.7731,-1.7549,0.0,-1.8884,-1.9728,-2.0352,0.0,0.0,0.0,0.0,0.0,-2.1945,-2.3613,-2.3244,-2.2943,-2.2894,-2.2445,-2.2247,-2.2319,-2.1795,-2.1532,-2.1532,-2.1295,-2.0964,-2.0663,-2.1593,-2.1972,-2.2024,-2.3077,0.0,-2.3884,-2.3504,-2.3172,-2.2802,-2.221,-2.1812,-2.1549,-2.1188,-2.1068,-2.097,-2.0389,-2.0558,-2.1145,-2.1787,-2.2859,-2.3875,-2.3895,-2.3691,-2.3448,-2.3187,-2.2651,-2.2077,-2.1757,-2.1419,-2.1106,-2.0646,-1.9799,-1.9059,-1.8721,-1.8661,-1.8555,-1.8355,-1.8622,-1.9113,-1.9702,-1.917,-1.8768,-1.9209,-1.8564,-1.8008,-1.8008,-1.8008,-1.8008,-1.8008,-1.8008,-1.8008,-1.8008,-1.8008,-1.8008,-1.8008,-1.8008,-1.8008,-1.8008,-1.8008,-1.8008,-1.8008,-1.8008,-1.8456,-1.9301,-2.0149,-2.1058,-2.1932,-2.2725,-2.3078,-2.1002,-2.229,-2.3506,-2.4125,-2.4487,-2.4568,-2.417,-2.3312,0.0,-2.1444,-2.0106,-1.8777,-1.7714,-1.6935,-1.6053,0.0,-1.3789,-1.3431,-1.4288,-1.3998,-1.4217,0.0,-1.6356,0.0,0.0,0.0,0.0,0.0,0.0,0.0,-2.1004,-2.0393,-2.0327,-2.102,-2.0409,-2.0376,-2.1051,-2.0701,-2.0518,-2.0518,-2.0043,-1.9834,-1.9849,-2.0198,-2.0637,-2.1167,-2.1857,0.0,0.0,-2.198,-2.1409,-2.0665,-2.0384,-2.0032,-1.9628,-1.9072,-1.8892,-1.8837,-1.841,-1.8645,-1.9209,-1.9727,-2.1294,-2.2966,-2.2591,-2.2498,-2.2452,-2.2314,-2.1913,-2.1355,-2.0727,-2.0759,-2.0678,-1.9455,-1.8734,-1.8148,-1.7634,-1.7623,-1.7834,-1.8077,-1.8025,-1.8281,-1.9223,-1.8652,-1.8203,-1.8927,-1.8281,-1.7716,-1.7672,-1.7515,-1.7508,-1.7677,-1.791,-1.8008,-1.8008,-1.8008,-1.8008,-1.8008,-1.8008,-1.8008,-1.8008,-1.8008,-1.8008,-1.8008,-1.8008,-1.8368,-1.9026,-2.0095,-2.0928,-2.1682,-2.2665,-2.3078,-1.9878,-2.1342,-2.2782,-2.3651,-2.3908,-2.3815,-2.3191,0.0,-2.0986,-2.0287,-1.8737,-1.7327,-1.6663,-1.5173,-1.371,-1.2742,-1.0958,-0.989,-1.063,-1.0578,-1.0654,-1.1035,0.0,0.0,0.0,0.0,0.0,0.0,0.0,0.0,0.0,-1.9527,-1.9527,-1.9582,-1.9527,-1.9512,-1.9582,-1.9192,-1.9001,-1.9016,-1.8531,-1.8288,-1.8302,-1.8971,-1.9279,-1.9376,0.0,0.0,0.0,-1.9891,-1.9648,-1.9893,-1.8784,-1.8351,-1.8271,-1.8202,-1.8175,-1.8244,-1.8659,-1.9279,-1.9798,-1.9787,-2.0381,-2.1157,-2.1638,-2.1805,-2.1663,-2.1126,-2.0944,-2.0701,-1.992,-1.9336,-1.8774,-1.7975,-1.7755,-1.759,-1.7318,-1.7761,-1.8071,-1.7608,-1.8029,-1.8378,-1.8193,-1.8095,-1.8018,-1.8105,-1.73,-1.6715,-1.6727,-1.6001,-1.5804,-1.667,-1.7474,-1.8008,-1.8008,-1.8008,-1.8008,-1.8008,-1.8008,-1.8008,-1.8008,-1.8008,-1.8008,-1.8008,-1.8008,-1.8018,-1.8105,-1.9814,-2.0626,-2.078,-2.237,-2.3078,-1.8044,-1.958,-2.1077,-2.1769,-2.208,-2.2095,-2.1681,0.0,-2.0077,-1.9038,-1.7691,-1.6476,-1.5564,-1.4171,-1.2638,-1.0997,-1.0219,-0.9549,-0.8895,-0.8509,-0.8483,-0.8914,0.0,0.0,0.0,0.0,0.0,0.0,0.0,0.0,0.0,-1.687,-1.7183,-1.7543,-1.7557,-1.7743,-1.8057,-1.8296,-1.8377,-1.8377,-1.821,-1.8106,-1.8106,-1.8394,-1.8739,-1.9086,0.0,0.0,0.0,-1.907,-1.8697,-1.8741,-1.7606,-1.7146,-1.7146,-1.7146,-1.7102,-1.7024,-1.6928,-1.7688,-1.8639,-1.8384,-1.9152,-2.0332,-2.0948,-2.1161,-2.1015,-2.0344,-1.9851,-1.9384,-1.8596,-1.7889,-1.7302,-1.7034,-1.6585,-1.6239,-1.6153,-1.6557,-1.6996,-1.7001,-1.7451,-1.7842,-1.8008,-1.8008,-1.7772,-1.725,-1.6866,-1.6381,-1.5814,-1.5405,-1.5365,-1.5745,-1.6576,-1.7387,-1.793,-1.8008,-1.8008,-1.8008,-1.8008,-1.8008,-1.8008,-1.8008,-1.8008,-1.8008,-1.8008,-1.8008,-1.8008,-1.9233,-2.0092,-2.0657,-2.182,-2.2629,-1.6065,-1.7587,-1.9131,-1.9645,-2.0047,-2.0241,0.0,0.0,-1.9089,-1.8034,-1.6902,-1.5872,-1.4869,-1.348,-1.18,-0.9717,-0.9389,-0.8829,-0.7234,-0.5834,-0.5346,0.0,0.0,0.0,0.0,0.0,0.0,0.0,0.0,0.0,0.0,-1.3989,-1.4643,-1.5775,-1.5879,-1.6065,-1.6469,-1.6902,-1.7081,-1.7081,-1.7081,-1.7177,-1.7341,-1.7341,-1.7704,-1.8328,0.0,0.0,0.0,-1.7704,-1.7301,-1.7332,-1.633,-1.5976,-1.5976,-1.5976,-1.5894,-1.5846,-1.5811,-1.6489,-1.7389,-1.7393,-1.8172,-1.9254,-1.9697,-2.0016,-2.0016,-1.931,-1.8573,-1.7961,-1.7413,-1.6754,-1.6151,-1.6151,-1.5748,-1.5478,-1.5742,-1.6038,-1.6446,-1.7015,-1.7159,-1.725,-1.7567,-1.7357,-1.6988,-1.6315,-1.5945,-1.5495,-1.4867,-1.4518,-1.4421,-1.4715,-1.538,-1.626,-1.7493,-1.7571,-1.7736,-1.8008,-1.8008,-1.8008,-1.8008,-1.8008,-1.8008,-1.8008,-1.8008,-1.8008,-1.8008,-1.8859,-1.9615,-2.0267,-2.1348,-2.2321,-1.4116,-1.5545,-1.7023,-1.7493,-1.8068,-1.8401,-1.7943,-1.7938,-1.7905,-1.7409,-1.6403,-1.541,-1.4789,-1.307,-1.1031,-0.9027,-0.7978,-0.6824,-0.5093,-0.2101,0.0,0.0,0.0,0.0,0.0,0.0,0.0,0.0,0.0,0.0,0.0,-1.119,-1.2033,-1.4652,-1.4698,-1.4698,-1.4744,-1.4744,-1.4744,-1.4744,-1.4744,-1.5062,-1.5632,-1.5632,-1.5952,0.0,0.0,0.0,0.0,-1.5209,-1.5107,-1.5555,-1.4971,-1.4709,-1.4709,-1.4709,-1.4709,-1.4855,-1.5829,-1.6177,-1.6345,-1.7308,-1.7622,-1.7633,-1.7633,-1.8112,-1.8555,-1.7841,-1.709,-1.6539,-1.6482,-1.5979,-1.541,-1.541,-1.541,-1.5654,-1.6533,-1.6665,-1.6918,-1.7832,-1.7213,-1.6638,-1.6572,-1.5833,-1.5259,-1.5221,-1.4374,-1.3741,-1.3741,-1.2889,-1.2666,-1.3608,-1.3726,-1.4544,-1.6419,-1.6597,-1.702,-1.793,-1.8008,-1.8008,-1.8008,-1.8008,-1.8008,-1.8008,-1.8008,-1.8008,-1.8008,-1.8839,-1.9301,-1.9359,-2.1111,-2.2322,-1.1522,-1.2528,-1.3643,-1.5101,-1.5611,-1.5849,-1.6173,-1.6266,-1.6145,-1.5652,-1.4903,-1.4168,-1.3538,-1.1733,-0.9819,-0.822,-0.7311,-0.5597,0.0,0.0,0.0,0.0,0.0,0.0,0.0,0.0,0.0,0.0,0.0,0.0,0.0,-1.0637,-1.1157,-1.2033,-1.2908,-1.3396,-1.3396,-1.4261,-1.4698,-1.4698,-1.4698,-1.4789,-1.4971,-1.4971,0.0,0.0,0.0,0.0,0.0,-1.5005,-1.5039,-1.5484,-1.4915,-1.4698,-1.4698,-1.4698,-1.462,-1.4564,-1.4864,-1.544,-1.6031,-1.6332,-1.6972,-1.7523,-1.6978,-1.7357,-1.7797,-1.7034,-1.6312,-1.5633,-1.5089,-1.4737,-1.4643,-1.4981,-1.5046,-1.513,-1.539,-1.5817,-1.6017,-1.5472,-1.5531,-1.5677,-1.5655,-1.5406,-1.4998,-1.4275,-1.3925,-1.3483,-1.2808,-1.2472,-1.2445,-1.2732,-1.2774,-1.3805,-1.6395,-1.6597,-1.702,-1.793,-1.8008,-1.8008,-1.8008,-1.8008,-1.8008,-1.8008,-1.8008,-1.8008,-1.8008,-1.8281,-1.8741,-1.9301,-2.0466,-2.1448,-0.9057,-1.0205,-1.1175,-1.2397,-1.3091,0.0,-1.4301,-1.4642,-1.4801,-1.4732,-1.4039,-1.3321,-1.287,-1.0898,-0.903,-0.8178,-0.6416,-0.3956,0.0,0.0,0.0,0.0,0.0,0.0,0.0,0.0,0.0,0.0,0.0,0.0,0.0,0.0,-0.9363,-0.9629,-1.119,-1.2043,-1.2043,-1.31,-1.349,-1.3243,-1.3501,-1.3595,-1.3564,-1.3564,0.0,0.0,0.0,0.0,0.0,-1.3543,-1.358,-1.4003,-1.346,-1.3243,-1.3243,-1.3243,-1.3135,-1.3093,-1.353,-1.422,-1.4894,-1.5348,-1.5863,-1.6146,-1.5419,-1.5698,-1.6213,-1.5776,-1.5089,-1.4392,-1.3906,-1.3734,-1.383,-1.4267,-1.4363,-1.4442,-1.4667,-1.5094,-1.5214,-1.4662,-1.4555,-1.4633,-1.4629,-1.4309,-1.3911,-1.3233,-1.3145,-1.297,-1.2385,-1.2305,-1.2305,-1.2305,-1.2305,-1.3148,-1.5322,-1.5817,-1.6492,-1.7387,-1.7823,-1.8008,-1.8008,-1.8008,-1.8008,-1.8008,-1.8008,-1.8008,-1.8008,-1.8008,-1.8466,-1.9301,-1.9852,-2.0602,0.0,-0.839,-0.9416,-0.9578,-1.0588,-1.1702,-1.2473,-1.309,0.0,-1.4365,-1.3548,-1.2725,-1.2667,-1.0554,-0.8764,-0.8632,-0.5287,-0.19,0.0,0.0,0.0,0.0,0.0,0.0,0.0,0.0,0.0,0.0,0.0,0.0,0.0,0.0,-0.6912,-0.7616,-0.9526,-1.061,-1.072,-1.1416,-1.1416,-1.0813,-1.1443,-1.1715,-1.1653,-1.1653,0.0,0.0,0.0,0.0,0.0,-1.1282,-1.114,-1.1563,-1.0998,-1.0813,-1.0813,-1.0813,-1.0813,-1.0972,-1.2069,-1.2725,-1.3214,-1.4334,-1.4447,-1.3965,-1.3252,-1.3545,-1.4085,-1.4085,-1.3563,-1.2981,-1.2948,-1.292,-1.3042,-1.3306,-1.3404,-1.3607,-1.4266,-1.4437,-1.4543,-1.4923,-1.426,-1.3621,-1.3593,-1.2879,-1.2305,-1.2305,-1.2305,-1.2305,-1.2305,-1.2305,-1.2305,-1.2305,-1.2305,-1.264,-1.3564,-1.4552,-1.548,-1.6428,-1.7415,-1.793,-1.7891,-1.7949,-1.8008,-1.8008,-1.8008,-1.8008,-1.8008,-1.8008,-1.8388,-1.9213,-1.9213,-1.9674,-0.522,0.0,-0.686,-0.8508,-0.9186,-0.9746,0.0,-1.1399,-1.1688,-1.2337,-1.2248,-1.1904,-1.1349,-1.0454,-0.9313,-0.7937,-0.3607,0.0346,0.0,0.0,0.0,0.0,0.0,0.0,0.0,0.0,0.0,0.0,0.0,0.0,0.0,0.0,-0.6696,-0.6858,-0.7865,-0.8967,-1.0012,-1.0712,-1.0965,-1.0813,-1.0973,-1.1015,-1.0998,-1.0998,0.0,0.0,0.0,0.0,-1.1232,-1.0906,-1.0855,-1.1007,-1.0864,-1.0813,-1.0813,-1.0813,-1.0813,-1.0904,-1.1772,-1.2104,-1.2346,-1.3134,-1.3356,-1.3252,-1.307,-1.313,-1.3312,-1.3312,-1.326,-1.3105,-1.2274,-1.2409,-1.2828,-1.2971,-1.3178,-1.334,-1.3569,-1.3729,-1.3645,-1.2842,-1.2639,-1.2652,-1.2659,-1.2445,-1.2305,-1.2305,-1.2305,-1.2305,-1.2305,-1.2305,-1.2305,-1.2305,-1.2305,-1.2385,-1.2633,-1.3499,-1.4439,-1.5477,-1.6446,-1.6927,-1.6924,-1.7586,-1.8008,-1.8008,-1.8008,-1.8008,-1.8008,-1.8008,-1.8105,-1.8291,-1.8291,-1.8758,-0.4568,-0.5143,-0.6028,-0.7196,-0.77,-0.8337,-0.9659,-0.9881,-1.0136,-1.1107,-1.1116,-1.0762,-1.0415,-0.9549,-0.7755,-0.4278,-0.0977,0.0,0.0,0.0,0.0,0.0,0.0,0.0,0.0,0.0,0.0,0.0,0.0,0.0,0.0,0.0,-0.5664,-0.5642,-0.6298,-0.7219,-0.8336,-0.9311,-0.9673,-0.937,-0.9673,-0.9835,-0.9865,-0.9865,-0.9703,0.0,0.0,0.0,-0.9429,-0.9755,-0.9865,-0.9865,-0.9865,-0.9865,-0.9865,-0.9865,-0.9865,-0.997,-1.0692,-1.1349,-1.1962,-1.2342,-1.2451,-1.2389,-1.2027,-1.1947,-1.21,-1.2375,-1.239,-1.2126,-1.143,-1.1489,-1.1824,-1.2169,-1.2294,-1.25,-1.2785,-1.2977,-1.2945,-1.2418,-1.2398,-1.2505,-1.2505,-1.2123,-1.1771,-1.1639,-1.1242,-1.1099,-1.1545,-1.162,-1.1774,-1.2224,-1.2305,-1.2305,-1.2305,-1.2802,-1.3483,-1.4436,-1.5433,-1.5964,-1.5947,-1.645,-1.6934,-1.7377,-1.7755,-1.8008,-1.8008,-1.8008,-1.8008,-1.8008,-1.8008,-1.8281,-0.4207,-0.479,-0.5502,-0.5824,-0.631,-0.7096,-0.8247,-0.8498,-0.8844,-1.0041,-0.9835,-0.9451,-0.9494,-0.8166,0.0,0.0,0.0,0.0,0.0,0.0,0.0,0.0,0.0,0.0,0.0,0.0,0.0,0.0,0.0,0.0,0.0,0.0,-0.4349,-0.4491,-0.5152,-0.576,-0.6263,-0.7682,-0.8112,-0.7557,-0.8119,-0.8389,-0.848,-0.848,-0.8103,0.0,0.0,0.0,-0.7563,-0.8209,-0.848,-0.848,-0.848,-0.848,-0.848,-0.8593,-0.8646,-0.8705,-0.9355,-1.0491,-1.1652,-1.1456,-1.1524,-1.1469,-1.0807,-1.0762,-1.1125,-1.1493,-1.1361,-1.0995,-1.0701,-1.0719,-1.0815,-1.1309,-1.1456,-1.1643,-1.2184,-1.2338,-1.2445,-1.2775,-1.2669,-1.2593,-1.2593,-1.1621,-1.0824,-1.0599,-0.982,-0.9599,-1.0484,-1.0565,-1.0864,-1.1774,-1.2003,-1.2077,-1.2057,-1.2218,-1.264,-1.3402,-1.4429,-1.5033,-1.5192,-1.5202,-1.5609,-1.6587,-1.7387,-1.7842,-1.8008,-1.7842,-1.7842,-1.8008,-1.7833,-1.7842,-0.2893,-0.2665,-0.3195,-0.503,-0.5373,-0.5439,-0.6218,-0.6992,-0.7722,-0.8031,-0.8029,-0.7996,-0.8154,-0.6804,-0.4324,0.0,0.0,0.0,0.0,0.0,0.0,0.0,0.0,0.0,0.0,0.0,0.0,0.0,0.0,0.0,0.0,0.0,-0.3624,-0.447,-0.5167,-0.5273,-0.4846,-0.6199,-0.6853,-0.675,-0.6853,-0.6907,-0.6912,-0.6912,-0.6858,0.0,0.0,-0.6858,-0.6804,-0.6912,-0.6912,-0.6912,-0.6912,-0.6912,-0.702,-0.7616,-0.7883,-0.7943,-0.8432,-0.9603,-1.0677,-0.9939,-1.0161,-1.0744,-1.0624,-1.0762,-1.0994,-1.0826,-1.1073,-1.1289,-1.1002,-1.1109,-1.1316,-1.1403,-1.1617,-1.1891,-1.2231,-1.2498,-1.2768,-1.2815,-1.2049,-1.1426,-1.1426,-1.0395,-0.9565,-0.9528,-0.9372,-0.9372,-0.9523,-0.9518,-0.9599,-0.975,-1.0519,-1.1019,-1.0997,-1.1803,-1.2385,-1.2472,-1.3402,-1.4309,-1.5194,-1.5162,-1.5606,-1.6597,-1.676,-1.7203,-1.8008,-1.7203,-1.7213,-1.8008,-1.7203,-1.7213,-0.2148,-0.2226,-0.2471,-0.3647,-0.3934,-0.4001,-0.4134,-0.5004,-0.6039,-0.691,-0.7041,-0.6653,-0.5281,0.0,0.0495,0.6621,0.0,0.0,0.0,0.0,0.0,0.0,0.0,0.0,0.0,0.0,0.0,0.0,0.0,0.0,0.0,0.0,-0.2345,-0.4442,-0.4805,-0.4798,-0.4525,-0.512,-0.566,-0.5982,-0.5982,-0.6199,-0.6588,-0.6588,-0.6367,-0.6036,0.0,-0.6367,-0.6036,-0.6421,-0.6588,-0.6588,-0.6588,-0.6588,-0.6642,-0.6966,-0.7155,-0.7305,-0.7703,-0.8298,-0.8903,-0.8728,-0.9008,-0.9294,-0.9359,-0.9547,-0.969,-0.9574,-1.0461,-1.1356,-1.1069,-1.1209,-1.1325,-1.0981,-1.1404,-1.1657,-1.0891,-1.1304,-1.1723,-1.1182,-1.0819,-1.0513,-1.0513,-0.9536,-0.87,-0.8617,-0.8073,-0.7893,-0.8531,-0.8617,-0.8815,-0.9483,-0.9875,-1.0422,-1.1095,-1.139,-1.1723,-1.2298,-1.2721,-1.3145,-1.3579,-1.4088,-1.4613,-1.5037,-1.5541,-1.607,-1.6501,-1.6061,-1.606,-1.6501,-1.6033,-1.607,-0.1369,-0.1078,-0.0472,-0.0747,-0.1611,-0.2294,-0.2108,-0.233,-0.3147,-0.515,-0.5363,-0.4495,0.0,0.0942,0.0,0.0,0.0,0.0,0.0,0.0,0.0,0.0,0.0,0.0,0.0,0.0,0.0,0.0,0.0,0.0,0.0,0.0,-0.1062,-0.337,-0.3752,-0.4141,-0.448,-0.4525,-0.4736,-0.5273,-0.5273,-0.5546,-0.61,-0.61,-0.5819,-0.5269,-0.5878,-0.5769,-0.5328,-0.5878,-0.61,-0.61,-0.61,-0.6237,-0.6394,-0.6447,-0.6709,-0.7026,-0.7066,-0.7267,-0.7643,-0.7836,-0.803,-0.8205,-0.8339,-0.8478,-0.8554,-0.8554,-0.9642,-1.0754,-1.0484,-1.0566,-1.0578,-1.0122,-1.0623,-1.0846,-0.9546,-1.0007,-1.0495,-0.9843,-0.9667,-0.9533,-0.9533,-0.8569,-0.7724,-0.76,-0.6902,-0.6659,-0.7557,-0.7688,-0.8006,-0.8878,-0.911,-0.9675,-1.0883,-1.0708,-1.0899,-1.189,-1.2137,-1.2305,-1.2305,-1.2977,-1.3491,-1.3822,-1.4553,-1.5083,-1.5263,-1.5083,-1.5067,-1.5299,-1.5043,-1.5091,-0.0122,0.2315,0.4827,0.4812,0.2245,-0.0212,-0.0216,0.1488,0.1957,-0.1787,-0.1757,0.0,0.0,0.4307,0.0,0.0,0.0,0.0,0.0,0.0,0.0,0.0,0.0,0.0,0.0,0.0,0.0,0.0,0.0,0.0,0.0,0.0,0.0,-0.0335,-0.1673,-0.307,-0.448,-0.448,-0.4525,-0.457,-0.457,-0.4625,-0.4625,-0.4625,-0.4625,-0.457,-0.4625,-0.4625,-0.457,-0.4625,-0.4625,-0.4625,-0.4625,-0.5158,-0.5887,-0.6007,-0.6671,-0.7335,-0.6537,-0.7049,-0.7847,-0.7211,-0.755,-0.8205,-0.8339,-0.8403,-0.8403,-0.8403,-0.8689,-0.8939,-0.8795,-0.8679,-0.8669,-0.8887,-0.8942,-0.9076,-0.9246,-0.9545,-0.9838,-0.9878,-0.9117,-0.8479,-0.8479,-0.745,-0.6586,-0.645,-0.6458,-0.6541,-0.6631,-0.6678,-0.685,-0.6943,-0.7623,-0.8508,-0.9377,-0.9529,-0.9933,-1.0825,-1.1803,-1.2305,-1.2305,-1.2385,-1.297,-1.4169,-1.4213,-1.4699,-1.5585,-1.4699,-1.4731,-1.5577,-1.4649,-1.4877,0.3356,0.3627,0.418,0.5129,0.5199,0.4474,0.2627,0.2944,0.3521,0.3127,0.2311,0.0,0.0,0.0,0.0,0.0,0.0,0.0,0.0,0.0,0.0,0.0,0.0,0.0,0.0,0.0,0.0,0.0,0.0,0.0,0.0,0.0,0.0,0.0,-0.0559,-0.2011,-0.4501,-0.4494,-0.4487,-0.4484,-0.4525,-0.4519,-0.4519,-0.4519,-0.4519,-0.4519,-0.4519,-0.4519,-0.4519,-0.4519,-0.4519,-0.4525,-0.4568,-0.4868,-0.5251,-0.5314,-0.562,-0.5943,-0.5631,-0.5868,-0.6386,-0.6256,-0.6413,-0.675,-0.7036,-0.7044,-0.688,-0.688,-0.7,-0.7327,-0.8409,-0.886,-0.8837,-0.8323,-0.8641,-0.8849,-0.7749,-0.8171,-0.8567,-0.7988,-0.7681,-0.7506,-0.7506,-0.6957,-0.6627,-0.6671,-0.6641,-0.6647,-0.6746,-0.6807,-0.6875,-0.6963,-0.7942,-0.8535,-0.8624,-0.9426,-0.9997,-1.0079,-1.0864,-1.1723,-1.256,-1.2633,-1.2896,-1.3572,-1.3572,-1.3715,-1.4139,-1.3715,-1.3741,-1.4103,-1.3775,-1.3783,0.612,0.551,0.4956,0.6924,0.8025,0.8156,0.6603,0.5934,0.5956,0.7119,0.6507,0.6989,1.1289,0.0,0.0,0.0,0.0,0.0,0.0,0.0,0.0,0.0,0.0,0.0,0.0,0.0,0.0,0.0,0.0,0.0,0.0,0.0,0.0,0.0,0.0,-0.1007,-0.3086,-0.4045,-0.4271,-0.3755,-0.3796,-0.4018,-0.4473,-0.4473,-0.4525,-0.4522,-0.4522,-0.4522,-0.4522,-0.457,-0.4562,-0.4623,-0.4772,-0.4894,-0.4992,-0.504,-0.5121,-0.5209,-0.526,-0.5345,-0.5484,-0.5779,-0.5874,-0.5922,-0.6183,-0.6186,-0.6101,-0.6101,-0.6101,-0.64,-0.7654,-0.8205,-0.8161,-0.748,-0.7902,-0.8052,-0.6766,-0.7152,-0.7529,-0.6927,-0.6858,-0.6929,-0.6929,-0.6844,-0.6793,-0.6848,-0.681,-0.681,-0.6915,-0.6966,-0.6944,-0.7041,-0.7849,-0.8166,-0.776,-0.8602,-0.9161,-0.9242,-0.9736,-1.0704,-1.2325,-1.2405,-1.2692,-1.3306,-1.3306,-1.3353,-1.3322,-1.3353,-1.3306,-1.3326,-1.3333,-1.3419,0.7766,0.8173,0.8128,1.1168,1.086,1.0281,1.1781,1.1028,0.9927,0.9722,1.0539,1.216,1.4897,0.0,0.0,0.0,0.0,0.0,0.0,0.0,0.0,0.0,0.0,0.0,0.0,0.0,0.0,0.0,0.0,0.0,0.0,0.0,0.0,0.0,0.0,0.0,0.0,-0.2972,-0.3708,-0.2174,-0.2176,-0.3019,-0.4497,-0.4497,-0.449,-0.448,-0.448,-0.4473,-0.4532,-0.4629,-0.4782,-0.4935,-0.5077,-0.5068,-0.5152,-0.5304,-0.5428,-0.5452,-0.5538,-0.5589,-0.564,-0.5935,-0.603,-0.6057,-0.6213,-0.6338,-0.6338,-0.6338,-0.6264,-0.6342,-0.6338,-0.6264,-0.6342,-0.6342,-0.6369,-0.6471,-0.6474,-0.6597,-0.6749,-0.6902,-0.6929,-0.6929,-0.6929,-0.6929,-0.6878,-0.6725,-0.6834,-0.6929,-0.6929,-0.7054,-0.7051,-0.6959,-0.7051,-0.6959,-0.6688,-0.6868,-0.7234,-0.8147,-0.8151,-0.9154,-1.1391,-1.1485,-1.2199,-1.3522,-1.3607,-1.3607,-1.3607,-1.3607,-1.3607,-1.3607,-1.3607,-1.3795,0.9693,1.02,1.0685,1.1905,1.3113,1.4139,1.4748,1.2848,1.0994,0.0,1.1132,1.1969,1.3112,0.0,0.0,0.0,0.0,0.0,0.0,0.0,0.0,0.0,0.0,0.0,0.0,0.0,0.0,0.0,0.0,0.0,0.0,0.0,0.0,0.0,0.0,0.0,0.0,-0.0896,-0.1625,-0.2188,-0.2182,-0.2463,-0.2905,-0.2905,-0.2884,-0.2945,-0.402,-0.4495,-0.4505,-0.4733,-0.4842,-0.4915,-0.4954,-0.5097,-0.5325,-0.5369,-0.5386,-0.5406,-0.5621,-0.5745,-0.5867,-0.5939,-0.603,-0.6057,-0.6213,-0.6338,-0.6338,-0.6338,-0.6332,-0.6386,-0.6288,-0.6335,-0.641,-0.641,-0.6441,-0.6532,-0.6746,-0.6827,-0.6905,-0.7048,-0.7078,-0.7078,-0.7078,-0.7078,-0.7061,-0.7017,-0.7048,-0.7078,-0.7078,-0.7112,-0.7051,-0.7051,-0.7051,-0.7051,-0.6959,-0.7051,-0.7143,-0.7415,-0.7415,-0.8388,-1.0516,-1.1354,-1.2108,-1.2668,-1.2668,-1.3134,-1.3984,-1.3134,-1.3134,-1.3984,-1.3984,-1.3516,1.2626,1.3462,1.456,1.5927,1.7046,1.7789,1.789,1.5446,0.0,0.0,1.3059,1.2854,1.3787,0.0,0.0,0.0,0.0,0.0,0.0,0.0,0.0,0.0,0.0,0.0,0.0,0.0,0.0,0.0,0.0,0.0,0.0,0.0,0.0,0.0,0.0,0.0,0.0,0.0,-0.0449,-0.1347,-0.1318,-0.1315,-0.1341,-0.1303,-0.1334,-0.1431,-0.2949,-0.3563,-0.3575,-0.3742,-0.3893,-0.4001,-0.4048,-0.4135,-0.4306,-0.4306,-0.4335,-0.4322,-0.4435,-0.5132,-0.5909,-0.6064,-0.6132,-0.6146,-0.6244,-0.6268,-0.6264,-0.6268,-0.6325,-0.6369,-0.6285,-0.6366,-0.6471,-0.6471,-0.6519,-0.663,-0.6875,-0.6929,-0.697,-0.7112,-0.7095,-0.7075,-0.7129,-0.7139,-0.7139,-0.7139,-0.7139,-0.7139,-0.7139,-0.7139,-0.7139,-0.7139,-0.7139,-0.7139,-0.7139,-0.7139,-0.7139,-0.7139,-0.7139,-0.7687,-0.8886,-1.0106,-1.0963,-1.1646,-1.1646,-1.1997,-1.2709,-1.1991,-1.2018,-1.2675,-1.2675,-1.2295,1.6177,1.7546,1.9171,2.1916,2.1788,2.1026,2.114,1.8524,1.6328,1.71,0.0,1.4611,0.0,0.0,0.0,0.0,0.0,0.0,0.0,0.0,0.0,0.0,0.0,0.0,0.0,0.0,0.0,0.0,0.0,0.0,0.0,0.0,0.0,0.0,0.0,0.0,0.0,0.0,0.0,0.0,0.0,0.0,0.0,0.0,0.0,-0.0061,-0.1432,-0.2008,-0.2008,-0.2016,-0.2202,-0.2454,-0.2452,-0.2449,-0.2435,-0.2435,-0.2476,-0.2469,-0.2459,-0.3695,-0.5333,-0.5851,-0.6048,-0.6041,-0.6213,-0.6197,-0.6028,-0.6291,-0.6302,-0.6305,-0.6305,-0.64,-0.6498,-0.6498,-0.6603,-0.6746,-0.6912,-0.6939,-0.697,-0.7112,-0.7037,-0.699,-0.7115,-0.7139,-0.7139,-0.7139,-0.7166,-0.7177,-0.7163,-0.7173,-0.7183,-0.7183,-0.7156,-0.7139,-0.7139,-0.7139,-0.7139,-0.7139,-0.7139,-0.7139,-0.7139,-0.8239,-0.9414,-1.0418,-1.0413,-1.0469,-1.0568,-1.0469,-1.0503,-1.0593,-1.0593,-1.0593,1.9114,2.0883,2.2616,2.3523,2.353,2.3404,2.3821,2.114,1.833,1.7496,1.6619,1.5773,0.0,0.0,0.0,0.0,0.0,0.0,0.0,0.0,0.0,0.0,0.0,0.0,0.0,0.0,0.0,0.0,0.0,0.0,0.0,0.0,0.0,0.0056,0.0,0.0,0.0,0.0,0.0,0.0,0.0,0.0,0.0,0.0,0.0,-0.0,-0.0307,-0.0499,-0.0491,-0.0453,-0.0531,-0.06,-0.0604,-0.0608,-0.0611,-0.0611,-0.0553,-0.0568,-0.0581,-0.0891,-0.1515,-0.3258,-0.3752,-0.4066,-0.5814,-0.5096,-0.4157,-0.6016,-0.6384,-0.6309,-0.6466,-0.6579,-0.6692,-0.6692,-0.6695,-0.6773,-0.7037,-0.7007,-0.697,-0.7112,-0.7115,-0.7105,-0.7136,-0.7139,-0.7139,-0.7139,-0.7346,-0.7458,-0.7336,-0.7428,-0.7502,-0.7502,-0.7379,-0.7323,-0.7323,-0.7231,-0.7139,-0.7139,-0.7139,-0.7139,-0.7139,-0.8239,-0.9042,-0.9262,-0.9262,-0.9662,-1.0568,-0.9662,-0.9722,-1.0562,-1.0562,-1.0187,2.2075,2.3877,2.5286,2.5048,2.4981,2.4921,2.4482,2.2335,1.9936,1.8611,1.689,0.0,0.0,0.0,0.0,0.0,0.0,0.0,0.0,0.0,0.0,0.0,0.0,0.0,0.0,0.0,0.0,0.0,0.0,0.0,0.0,0.4024,0.3239,0.2179,0.0726,0.0,0.0,0.0,0.0,0.0,0.0,0.0,0.0,0.0,0.0,0.0,0.0,0.0,0.0,0.0,0.0,0.0,0.0,0.0,0.0,0.0,0.0,0.0,0.0,0.0,-0.0154,-0.1247,-0.1642,-0.1798,-0.2978,-0.3209,-0.3141,-0.3381,-0.4918,-0.6236,-0.5191,-0.4907,-0.4952,-0.4952,-0.5843,-0.6703,-0.6837,-0.692,-0.6997,-0.7051,-0.7021,-0.6906,-0.7064,-0.7221,-0.7288,-0.735,-0.7499,-0.757,-0.7492,-0.755,-0.76,-0.76,-0.755,-0.7486,-0.7429,-0.7326,-0.7323,-0.7234,-0.7323,-0.7323,-0.7323,-0.7875,-0.8147,-0.8055,-0.8055,-0.8332,-0.8886,-0.8332,-0.8332,-0.8886,-0.8979,-0.8794,2.4163,2.5773,2.6889,2.6155,2.5936,2.5709,2.4444,2.2645,2.0888,1.9561,0.0,0.0,0.0,0.0,0.0,0.0,0.0,0.0,0.0,0.0,0.0,0.0,0.0,0.0,0.0,0.0,0.0,0.0,0.0,0.0,0.4477,0.4477,0.448,0.4494,0.2066,0.0502,0.0,0.0,0.0,0.0,0.0,0.0,0.0,0.0,0.0,0.0,0.0,0.0,0.0,0.0,0.0,0.0,0.0,0.0,0.0,0.0,0.0,0.0,0.0,0.0,0.0,0.0,0.0,0.0,0.0,-0.1175,-0.2201,-0.0485,-0.2693,-0.5271,-0.4132,-0.343,-0.312,-0.312,-0.4628,-0.6144,-0.6186,-0.6288,-0.6399,-0.6526,-0.6307,-0.6195,-0.648,-0.6998,-0.7509,-0.759,-0.7645,-0.7665,-0.7641,-0.7658,-0.7675,-0.7675,-0.7675,-0.7573,-0.7504,-0.7567,-0.7553,-0.7476,-0.7576,-0.7576,-0.7576,-0.7483,-0.7341,-0.7234,-0.7143,-0.7143,-0.7139,-0.7143,-0.7143,-0.7139,-0.7323,-0.7382,2.346,2.4996,2.6209,2.6105,2.5884,2.5479,0.0,0.0,2.0102,0.0,0.0,0.0,0.0,0.0,0.0,0.0,0.0,0.0,0.0,0.0,0.0,0.0,0.0,0.0,0.0,0.0,0.0,0.0,0.0,0.0,0.4519,0.4519,0.4525,0.448,0.4092,0.2629,0.0,0.0,0.0,0.0,0.0,0.0,0.0,0.0,0.0,0.0,0.0,0.0,0.0,0.0,0.0,0.0,0.0,0.0,0.0,0.0,0.0,0.0,0.0,0.0,0.0,0.0,0.0,0.0,0.0,-0.0157,-0.0317,-0.0082,-0.0418,-0.1776,-0.5569,-0.4854,-0.3137,-0.3137,-0.3566,-0.4013,-0.399,-0.3773,-0.3749,-0.4003,-0.407,-0.4025,-0.4036,-0.6067,-0.765,-0.7729,-0.7824,-0.7933,-0.7801,-0.7899,-0.798,-0.798,-0.7878,-0.7763,-0.7723,-0.7632,-0.7552,-0.7586,-0.7619,-0.7619,-0.7619,-0.7615,-0.7577,-0.7517,-0.7415,-0.7234,-0.7139,-0.7234,-0.7234,-0.7139,-0.7323,-0.7424,2.3649,2.454,2.5143,2.5316,2.5229,2.4878,2.3867,2.2297,2.06,0.0,0.0,0.0,0.0,0.0,0.0,0.0,0.0,0.0,0.0,0.0,0.0,0.0,0.0,0.0,0.0,0.0,0.0,0.0,0.0,0.4519,0.4519,0.4519,0.4519,0.4525,0.448,0.3577,0.1726,0.0569,0.0,0.0,0.0,0.0,0.0,0.0,0.0,0.0,0.0,0.0,0.0,0.0,0.0,0.0,0.0,0.0,0.0,0.0,0.0,0.0,0.0,0.0,0.0,0.0,0.0,0.0,0.0,0.0,0.0,0.0,0.0,-0.0518,-0.2585,-0.2232,-0.133,-0.133,-0.1508,-0.1599,-0.1609,-0.1423,-0.1423,-0.1541,-0.1573,-0.1601,-0.1616,-0.2607,-0.4401,-0.7381,-0.7987,-0.7945,-0.7878,-0.7928,-0.7965,-0.7959,-0.7945,-0.7836,-0.7836,-0.7797,-0.776,-0.7717,-0.7733,-0.7836,-0.7836,-0.7733,-0.7713,-0.7746,-0.7594,-0.7493,-0.7351,-0.7399,-0.7326,-0.7234,-0.7326,-0.7465,2.2831,2.3454,2.3826,2.4091,2.4506,2.44,0.0,0.0,0.0,0.0,0.0,0.0,0.0,0.0,0.0,0.0,0.0,0.0,0.0,0.0,0.0,0.0,0.0,0.0,0.0,0.0,0.0,0.0,0.0,0.4594,0.4575,0.4541,0.4594,0.4575,0.4589,0.4245,0.3488,0.1182,0.0,0.0,0.0,0.0,0.0,0.0,0.0,0.0,0.0,0.0,0.0,0.0,0.0,0.0,0.0,0.0,0.0,0.0,0.0,0.0,0.0,0.0,0.0,0.0,0.0,0.0,0.0,0.0,0.0,0.0,0.0,0.0,0.0,0.0,0.0,0.0,0.0,0.0,0.0,0.0,0.0,0.0,0.0,0.0,0.0,0.0,-0.1384,-0.5329,-0.6556,-0.6962,-0.6962,-0.6962,-0.7059,-0.7356,-0.7753,-0.7949,-0.7846,-0.7942,-0.7939,-0.7836,-0.7939,-0.8038,-0.8038,-0.7939,-0.7836,-0.7836,-0.7792,-0.7688,-0.7528,-0.7587,-0.7476,-0.7323,-0.7323,-0.7383,2.0001,2.1184,2.243,2.2435,2.364,2.44,0.0,0.0,0.0,0.0,0.0,0.0,0.0,0.0,0.0,0.0,0.0,0.0,0.0,0.0,0.0,0.0,0.0,0.0,0.0,0.0,0.0,0.0,0.0,0.4741,0.4887,0.4758,0.4745,0.4891,0.4844,0.4786,0.4725,0.1576,0.0,0.0,0.0,0.0,0.0,0.0,0.0,0.0,0.0,0.0,0.0,0.0,0.0,0.0,0.0,0.0,0.0,0.0,0.0,0.0,0.0,0.0,0.0,0.0,0.0,0.0,0.0,0.0,0.0,0.0,0.0,0.0,0.0,0.0,0.0,0.0,0.0,0.0,0.0,0.0,0.0,0.0,0.0,0.0,0.0,0.0,-0.01,-0.0402,-0.2611,-0.4218,-0.4218,-0.4218,-0.4518,-0.5422,-0.7048,-0.7972,-0.7972,-0.7952,-0.8038,-0.8038,-0.8038,-0.8038,-0.8038,-0.8038,-0.8038,-0.8038,-0.8011,-0.7803,-0.7425,-0.7803,-0.7699,-0.7139,-0.7139,-0.7156,2.025,2.0803,2.143,2.2133,2.2761,2.2775,2.1241,2.0808,0.0,0.0,0.0,0.0,0.0,0.0,0.0,0.0,0.0,0.0,0.0,0.0,0.0,0.0,0.0,0.0,0.0,0.0,0.0,0.0,0.0,0.0,0.4914,0.4867,0.4863,0.4918,0.486,0.491,0.5008,0.3062,0.2006,0.1717,0.1735,0.1717,0.1671,0.0524,0.0,0.0,0.0,0.0,0.0,0.0,0.0,0.0,0.0,0.0,0.0,0.0,0.0,0.0,0.0,0.0,0.0,0.0,0.0,0.0,0.0,0.0,0.0,0.0,0.0,0.0,0.0,0.0,0.0,0.0,0.0,0.0,0.0,0.0,0.0,0.0,0.0,0.0,0.0,0.0,0.0,0.0,-0.0806,-0.1411,-0.1411,-0.1411,-0.161,-0.1908,-0.5546,-0.7284,-0.5546,-0.5429,-0.5429,-0.545,-0.545,-0.545,-0.545,-0.545,-0.545,-0.545,-0.7089,-0.7086,-0.5247,-0.5349,-0.5275,-0.5135,-0.494,-0.4844,2.0326,0.0,0.0,0.0,2.1675,2.1044,2.0114,0.0,0.0,0.0,0.0,0.0,0.0,0.0,0.0,0.0,0.0,0.0,0.0,0.0,0.0,0.0,0.0,0.0,0.0,0.0,0.0,0.0,0.0,0.0,0.5064,0.502,0.5013,0.5067,0.5067,0.5118,0.5223,0.4428,0.3878,0.3623,0.3623,0.3588,0.3591,0.2394,0.1129,0.0,0.0,0.0,0.0,0.0,0.0,0.0,0.0,0.0,0.0,0.0,0.0,0.0,0.0,0.0,0.0,0.0,0.0,0.0,0.0,0.0,0.0,0.0,0.0,0.0,0.0,0.0,0.0,0.0,0.0,0.0,0.0,0.0,0.0,0.0,0.0,0.0,0.0,0.0,0.0,0.0,0.0,0.0,0.0,0.0,0.0,0.0,-0.3226,-0.5361,-0.5354,-0.3726,-0.2619,-0.2629,-0.2629,-0.2629,-0.2629,-0.2629,-0.3035,-0.3949,-0.6611,-0.7125,-0.5376,-0.3542,-0.2629,-0.2629,-0.2427,-0.2427,0.0,0.0,0.0,0.0,0.0,0.0,1.9756,0.0,0.0,0.0,0.0,0.0,0.0,0.0,0.0,0.0,0.0,0.0,0.0,0.0,0.0,0.0,0.0,0.0,0.0,0.0,0.0,0.0,0.0,0.5203,0.5418,0.522,0.5206,0.5422,0.5428,0.5432,0.5379,0.5379,0.5382,0.5393,0.5393,0.5399,0.541,0.5343,0.3437,0.0135,0.0067,0.0,0.0,0.0,0.0,0.0,0.0,0.0,0.0,0.0,0.0,0.0,0.0,0.0,0.0,0.0,0.0,0.0,0.0,0.0,0.0,0.0,0.0,0.0,0.0,0.0,0.0,0.0,0.0,0.0,0.0,0.0,0.0,0.0,0.0,0.0,0.0,0.0,0.0,0.0,0.0,0.0,0.0,0.0,0.0,0.0,0.0,-0.212,-0.7305,-0.303,0.0,0.0,0.0,0.0,0.0,0.0,-0.1212,-0.3848,-0.6404,-0.7749,-0.7749,-0.2528,0.0,0.0,0.0,0.0,1.8371,0.0,0.0,0.0,0.0,0.0,0.0,0.0,0.0,0.0,0.0,0.0,0.0,0.0,0.0,0.0,0.0,0.0,0.0,0.0,0.0,0.0,0.0,0.0,0.0,0.0,0.0,0.0,0.6225,0.5318,0.5425,0.5321,0.5318,0.5425,0.5428,0.5428,0.5432,0.5432,0.5369,0.5372,0.5372,0.5376,0.5389,0.403,0.3629,0.3777,0.1145,0.0,0.0,0.0,0.0,0.0,0.0,0.0,0.0,0.0,0.0,0.0,0.0,0.0,0.0,0.0,0.0,0.0,0.0,0.0,0.0,0.0,0.0,0.0,0.0,0.0,0.0,0.0,0.0,0.0,0.0,0.0,0.0,0.0,0.0,0.0,0.0,0.0,0.0,0.0,0.0,0.0,0.0,0.0,0.0,0.0,0.0,-0.0606,-0.212,-0.0808,0.0,0.0,0.0,0.0,0.0,0.0,-0.0303,-0.1111,-0.1819,-0.2224,-0.2224,-0.0707,0.0,0.0,0.0,0.0,0.0,0.0,0.0,0.0,0.0,0.0,1.7701,1.7235,0.0,0.0,0.0,0.0,0.0,0.0,0.0,0.0,0.0,0.0,0.0,0.0,0.0,0.0,0.0,0.0,0.0,0.0,0.0,0.7634,0.6355,0.5518,0.546,0.5396,0.5428,0.5428,0.5428,0.5428,0.5428,0.5428,0.5428,0.5428,0.5428,0.5369,0.5309,0.3551,0.3286,0.4172,0.2827,0.1413,0.0067,0.0807,0.0673,0.0,0.0,0.0,0.0,0.0,0.0,0.0,0.0,0.0,0.0,0.0,0.0,0.0,0.0,0.0,0.0,0.0,0.0,0.0,0.0,0.0,0.0,0.0,0.0,0.0,0.0,0.0,0.0,0.0,0.0,0.0,0.0,0.0,0.0,0.0,0.0,0.0,0.0,0.0,0.0,0.0,0.0,0.0,0.0,0.0,0.0,0.0,0.0,0.0,0.0,0.0,0.0,0.0,0.0,0.0,0.0,0.0,0.0,0.0,0.0,0.0,0.0,0.0,0.0,0.0,0.0,0.0,1.7955,1.6832,1.5781,0.0,0.0,0.0,0.0,0.0,0.0,0.0,0.0,0.0,0.0,0.0,0.0,0.0,0.0,0.0,0.0,0.9141,0.8207,0.7149,0.6297,0.5739,0.5596,0.546,0.5446,0.5428,0.5428,0.5428,0.5428,0.5428,0.5428,0.5428,0.5428,0.5369,0.5376,0.3751,0.2878,0.2811,0.4582,0.3572,0.074,0.215,0.1681,0.0,0.0,0.0,0.0,0.0,0.0302,0.0684,0.0684,0.054,0.0315,0.0081,0.0,0.0,0.0,0.0,0.0,0.0,0.0,0.0,0.0,0.0,0.0,0.0,0.0,0.0,0.0,0.0,0.0,0.0,0.0,0.0,0.0,0.0,0.0,0.0,0.0,0.0,0.0,0.0,0.0,0.0,0.0,0.0,0.0,0.0,0.0,0.0,0.0,0.0,0.0,0.0,0.0,0.0,0.0,0.0,0.0,0.0,0.0,0.0,0.0,0.0,0.0,0.0,0.0,0.0,0.0,0.0,1.6638,1.6515,1.6461,0.0,0.0,0.0,0.0,0.0,0.0,0.0,0.0,0.0,0.0,0.0,0.0,0.0,0.0,0.0,0.0,0.9405,0.8207,0.7149,0.6297,0.5739,0.5596,0.5562,0.5488,0.5432,0.5428,0.5428,0.5428,0.5428,0.5428,0.5428,0.5428,0.5369,0.5379,0.5036,0.409,0.2811,0.4643,0.5122,0.4585,0.3472,0.1821,0.0,0.0,0.0,0.0,0.0,0.2182,0.5093,0.5093,0.391,0.2198,0.0563,0.0,0.0,0.0,0.0,0.0,0.0,0.0,0.0,0.0,0.0,0.0,0.0,0.0,0.0,0.0,0.0,0.0,0.0,0.0,0.0,0.0,0.0,0.0,0.0,0.0,0.0,0.0,0.0,0.0,0.0,0.0,0.0,0.0,0.0,0.0,0.0,0.0,0.0,0.0,0.0,0.0,0.0,0.0,0.0,0.0,0.0,0.0,0.0,0.0,0.0,0.0,0.0,0.0,1.7312,0.0,0.0,0.0,1.6802,1.6797,1.7012,0.0,0.0,0.0,0.0,0.0,0.0,0.0,0.0,0.0,0.0,0.0,0.0,0.0,0.0,0.0,0.9385,0.8304,0.6841,0.6177,0.5884,0.5813,0.5671,0.5555,0.5477,0.5403,0.5428,0.5428,0.5428,0.5428,0.5428,0.5428,0.5432,0.5369,0.5376,0.4937,0.417,0.5148,0.5655,0.5647,0.4838,0.3904,0.3063,0.1944,0.154,0.1563,0.1563,0.2896,0.488,0.6073,0.5765,0.4733,0.3654,0.262,0.1796,0.1753,0.2582,0.3337,0.2111,0.0937,0.0,0.0,0.0,0.0,0.0,0.0,0.0,0.0,0.0,0.0,0.0,0.0,0.0,0.0,0.0,0.0,0.0,0.0,0.0,0.0,0.0,0.0,0.0,0.0,0.0,0.0,0.0,0.0,0.0,0.0,0.0,0.0,0.0,0.0,0.0,0.0,0.0,0.0,0.0,0.0,0.0,0.0,0.0,0.0,0.0,0.0,0.0,0.0,1.7745,0.0,0.0,0.0,1.7197,0.0,0.0,0.0,0.0,0.0,0.0,0.0,0.0,0.0,0.0,0.0,0.0,0.0,0.0,0.0,0.9371,0.8317,0.6419,0.6169,0.6091,0.6034,0.5803,0.5661,0.5633,0.5484,0.5473,0.5473,0.5442,0.5428,0.5428,0.5428,0.5428,0.5428,0.5372,0.5454,0.5589,0.5672,0.5701,0.5788,0.5782,0.5989,0.6125,0.432,0.3659,0.3742,0.3742,0.3756,0.4025,0.5984,0.6683,0.6651,0.6701,0.5578,0.4202,0.3742,0.5243,0.6775,0.4899,0.2925,0.1254,0.0294,0.0,0.0,0.0,0.0,0.0,0.0,0.0,0.0,0.0,0.0,0.0,0.0,0.0,0.0,0.0,0.0,0.0,0.0,0.0,0.0,0.0,0.0,0.0,0.0,0.0,0.0,0.0,0.0,0.0,0.0,0.0,0.0,0.0,0.0,0.0,0.0,0.0,0.0,0.0,0.0,0.0,0.0,0.0,0.0,0.0,1.7995,0.0,0.0,0.0,1.7217,1.6875,0.0,0.0,0.0,0.0,0.0,0.0,0.0,0.0,0.0,0.0,0.0,0.0,0.0,0.0,0.0,0.0,0.7885,0.6433,0.6363,0.6308,0.6044,0.5996,0.5918,0.5783,0.564,0.5562,0.5562,0.543,0.5428,0.5428,0.5428,0.5428,0.5428,0.5428,0.5447,0.5589,0.5593,0.5749,0.6003,0.5973,0.6143,0.6234,0.5864,0.5796,0.5957,0.5967,0.6047,0.6237,0.6505,0.6575,0.6529,0.6759,0.6779,0.6352,0.4198,0.5423,0.751,0.7234,0.6934,0.571,0.1202,0.0,0.0,0.0,0.0,0.0,0.0,0.0,0.0,0.0,0.0,0.0,0.0,0.0,0.0,0.0,0.0,0.0,0.0,0.0,0.0,0.0,0.0,0.0,0.0,0.0,0.0,0.0,0.0,0.0,0.0,0.0,0.0,0.0,0.0,0.0,0.0,0.0,0.0,0.0,0.0,0.0,0.0,0.0,0.0,0.0,0.0,0.0,0.0,0.0,1.7695,0.0,0.0,0.0,0.0,0.0,0.0,0.0,0.0,0.0,0.0,0.0,0.0,0.0,0.0,0.0,0.0,0.0,0.0,0.0,0.0,0.6383,0.6176,0.6078,0.6,0.5935,0.5789,0.5711,0.5711,0.5566,0.5494,0.5494,0.5403,0.5473,0.5494,0.5494,0.5623,0.5844,0.5844,0.5966,0.6162,0.6142,0.6263,0.6261,0.6187,0.6237,0.6383,0.6305,0.642,0.662,0.662,0.6671,0.6773,0.69,0.7027,0.6907,0.5894,0.643,0.7299,0.7468,0.755,0.7143,0.5031,0.3387,0.1908,0.0403,0.0,0.0,0.0,0.0,0.0,0.0,0.0,0.0,0.0,0.0,0.0,0.0,0.0,0.0,0.0,0.0,0.0,0.0,0.0,0.0,0.0,0.0,0.0,0.0,0.0,0.0,0.0,0.0,0.0,0.0,0.0,0.0,0.0,0.0,0.0,0.0,0.0,0.0,1.7606,0.0,0.0,0.0,0.0,0.0,0.0,0.0,0.0,0.0,0.0,0.0,0.0,0.0,0.0,0.0,0.0,0.0,0.0,0.0,0.0,0.0,0.0,0.0,0.0,0.0,0.0,0.7953,0.7395,0.6846,0.6349,0.6156,0.6095,0.6095,0.5942,0.5864,0.5864,0.5722,0.563,0.5589,0.5515,0.5518,0.5593,0.563,0.5786,0.603,0.603,0.6118,0.6338,0.6338,0.6338,0.6338,0.6338,0.6346,0.6454,0.6315,0.642,0.6644,0.6685,0.6827,0.6997,0.7061,0.7031,0.7074,0.7058,0.7121,0.7312,0.7407,0.758,0.776,0.7778,0.6476,0.4622,0.2615,0.1107,0.0,0.0,0.0,0.0,0.0,0.0,0.0,0.0,0.0,0.0,0.0,0.0,0.0,0.0,0.0,0.0,0.0,0.0,0.0,0.0,0.0,0.0,0.0,0.0,0.0,0.0,0.0,0.0,0.0,0.0,0.0,0.0,0.0,0.0,0.0,0.0,0.0,0.0,0.0,0.0,1.7189,0.0,0.0,0.0,0.0,1.8008,0.0,0.0,0.0,0.0,0.0,0.0,0.0,0.0,0.0,0.0,0.0,0.0,0.0,0.0,0.0,0.0,0.0,0.0,0.8405,0.829,0.7757,0.6352,0.6254,0.6254,0.6254,0.6101,0.6023,0.6023,0.5871,0.5725,0.5593,0.5725,0.5718,0.5596,0.5732,0.5881,0.603,0.603,0.6118,0.6338,0.6338,0.6338,0.6338,0.6338,0.6346,0.6454,0.6315,0.6356,0.6502,0.6651,0.6892,0.7112,0.6976,0.7031,0.7143,0.7139,0.735,0.7587,0.759,0.7801,0.8031,0.7959,0.7969,0.7879,0.7808,0.3729,0.0,0.0,0.0,0.0,0.0,0.0,0.0,0.0,0.0,0.0,0.0,0.0,0.0,0.0,0.0,0.0,0.0,0.0,0.0,0.0,0.0,0.0,0.0,0.0,0.0,0.0,0.0,0.0,0.0,0.0,0.0,0.0,0.0,0.0,0.0,0.0,0.0,0.0,0.0,1.8283,1.8593,0.0,0.0,0.0,0.0,0.0,0.0,0.0,0.0,0.0,0.0,0.0,0.0,0.0,0.0,0.0,0.0,0.0,0.0,0.0,0.0,0.0,0.0,0.0,0.8976,0.7774,0.6831,0.0,0.6338,0.6338,0.6338,0.621,0.6183,0.6183,0.603,0.5928,0.5881,0.5827,0.583,0.5881,0.5932,0.6037,0.6183,0.6183,0.6213,0.6338,0.6338,0.6338,0.6349,0.6366,0.643,0.6454,0.6315,0.6413,0.6644,0.68,0.698,0.7132,0.7085,0.717,0.7292,0.7292,0.7434,0.7617,0.7712,0.7811,0.7913,0.8024,0.7952,0.7959,0.7982,0.5233,0.221,0.0403,0.0,0.0,0.0,0.0,0.0,0.0,0.0,0.0,0.0,0.0,0.0,0.0,0.0,0.0,0.0,0.0,0.0,0.0,0.0,0.0,0.0,0.0,0.0,0.0,0.0,0.0,0.0,0.0,0.0,0.0,0.0,0.0,0.0,0.0,0.0,1.8924,1.8416,0.0,1.8539,1.8216,0.0,1.7978,0.0,0.0,0.0,0.0,0.0,0.0,0.0,0.0,0.0,0.0,0.0,0.0,1.2472,0.0,0.0,0.0,0.0,0.0,0.0,1.0011,0.8937,0.7687,0.6776,0.0,0.0,0.6285,0.6335,0.6288,0.6285,0.6335,0.6186,0.6084,0.603,0.5986,0.5989,0.603,0.6088,0.6166,0.6338,0.6338,0.6338,0.6338,0.6338,0.6291,0.6346,0.6437,0.6505,0.6542,0.6451,0.6573,0.6797,0.6895,0.7021,0.7139,0.7139,0.7244,0.737,0.737,0.7512,0.7692,0.7784,0.7848,0.7916,0.8014,0.8038,0.8045,0.7969,0.6645,0.4722,0.2009,0.0704,0.0,0.0,0.0,0.0,0.0,0.0,0.0,0.0,0.0,0.0,0.0,0.0,0.0,0.0,0.0,0.0,0.0,0.0,0.0,0.0,0.0,0.0,0.0,0.0,0.0,0.0,0.0,0.0,0.0,0.0,0.0,0.0,0.0,0.0]}]]